[[{"header":{"parameterUnit":"m.s-1","parameterCategory":1,"la1":31.0,"la2":29.5877,"lo1":-88.7671,"lo2":-86.6584,"dy":0.0162,"dx":0.0185,"nx":115,"ny":88,"refTime":"2023-06-13T06:00:00:Z","depth":0,"parameterNumber":2,"parameterNumberName":"U-component_of_WINDS"},"data":[0.0,0.0,0.0,0.0,0.0,0.0,0.0,0.0,0.0,0.0,0.0,0.0,0.0,0.0,0.0,0.0,0.0,0.0,0.0,0.0,0.0,0.0,0.0,0.0,0.0,0.0,0.0,0.0,0.0,0.0,0.0,0.0,0.0,0.0,0.0,0.0,0.0,0.0,0.0,0.0,0.0,0.0,0.0,0.0,0.0,0.0,0.0,0.0,0.0,0.0,0.0,0.0,0.0,0.0,0.0,0.0,0.0,0.0,0.0,0.0,0.0,0.0,0.0,0.0,0.0,0.0,0.0,0.0,0.0,0.0,0.0,0.0,0.0,0.0,0.0,0.0,0.0,0.0,0.0,0.0,0.0,0.0,0.0,0.0,0.0,0.0,0.0,0.0,0.0,0.0,0.0,0.0,0.0,0.0,0.0,0.0,0.0,0.0,0.0,0.0,0.0,0.0,0.0,0.0,0.0,0.0,0.0,0.0,0.0,0.0,0.0,0.0,0.0,0.0,0.0,0.0,0.0,0.0,0.0,0.0,0.0,0.0,0.0,0.0,0.0,0.0,0.0,0.0,0.0,0.0,0.0,0.0,0.0,0.0,0.0,0.0,0.0,0.0,0.0,0.0,0.0,0.0,0.0,0.0,0.0,0.0,0.0,0.0,0.0,0.0,0.0,0.0,0.0,0.0,0.0,0.0,0.0,0.0,0.0,0.0,0.0,0.0,0.0,0.0,0.0,0.0,0.0,0.0,0.0,0.0,0.0,0.0,0.0,0.0,0.0,0.0,0.0,0.0,0.0,0.0,0.0,0.0,0.0,0.0,0.0,0.0,0.0,0.0,0.0,0.0,0.0,0.0,0.0,0.0,0.0,0.0,0.0,0.0,0.0,0.0,0.0,0.0,0.0,0.0,0.0,0.0,0.0,0.0,0.0,0.0,0.0,0.0,0.0,0.0,0.0,0.0,0.0,0.0,0.0,0.0,0.0,0.0,0.0,0.0,0.0,0.0,0.0,0.0,0.0,0.0,0.0,0.0,0.0,0.0,0.0,0.0,0.0,0.0,0.0,0.0,0.0,0.0,0.0,0.0,0.0,0.0,0.0,0.0,0.0,0.0,0.0,0.0,0.0,0.0,0.0,0.0,0.0,0.0,0.0,0.0,0.0,0.0,0.0,0.0,0.0,0.0,0.0,0.0,0.0,0.0,0.0,0.0,0.0,0.0,0.0,0.0,0.0,0.0,0.0,0.0,0.0,0.0,0.0,0.0,0.0,0.0,0.0,0.0,0.0,0.0,0.0,0.0,0.0,0.0,0.0,0.0,0.0,0.0,0.0,0.0,0.0,0.0,0.0,0.0,0.0,0.0,0.0,0.0,0.0,0.0,0.0,0.0,0.0,0.0,0.0,0.0,0.0,0.0,0.0,0.0,0.0,0.0,0.0,0.0,0.0,0.0,0.0,0.0,0.0,0.0,0.0,0.0,0.0,0.0,0.0,0.0,0.0,0.0,0.0,0.0,0.0,0.0,0.0,0.0,0.0,0.0,0.0,0.0,0.0,0.0,0.0,0.0,0.0,0.0,0.0,0.0,0.0,0.0,0.0,0.0,0.0,0.0,0.0,0.0,0.0,0.0,0.0,0.0,0.0,0.0,0.0,0.0,0.0,0.0,0.0,0.0,0.0,0.0,0.0,0.0,0.0,0.0,0.0,0.0,0.0,0.0,0.0,0.0,0.0,0.0,0.0,0.0,0.0,0.0,0.0,0.0,0.0,0.0,0.0,0.0,0.0,0.0,0.0,0.0,0.0,0.0,0.0,0.0,0.0,0.0,0.0,0.0,0.0,0.0,0.0,0.0,0.0,0.0,0.0,0.0,0.0,0.0,0.0,0.0,0.0,0.0,0.0,0.0,0.0,0.0,0.0,0.0,0.0,0.0,0.0,0.0,0.0,0.0,0.0,0.0,0.0,0.0,0.0,0.0,0.0,0.0,0.0,0.0,0.0,0.0,0.0,0.0,0.0,0.0,0.0,0.0,0.0,0.0,0.0,0.0,0.0,0.0,0.0,0.0,0.0,0.0,0.0,0.0,0.0,0.0,0.0,0.0,0.0,0.0,0.0,0.0,0.0,0.0,0.0,0.0,0.0,0.0,0.0,0.0,0.0,0.0,0.0,0.0,0.0,0.0,0.0,0.0,0.0,0.0,0.0,0.0,0.0,0.0,0.0,0.0,0.0,0.0,0.0,0.0,0.0,0.0,0.0,0.0,0.0,0.0,0.0,0.0,0.0,0.0,0.0,0.0,0.0,0.0,0.0,0.0,0.0,0.0,0.0,0.0,0.0,0.0,0.0,0.0,0.0,0.0,0.0,0.0,0.0,0.0,0.0,0.0,0.0,0.0,0.0,0.0,0.0,0.0,0.0,0.0,0.0,0.0,0.0,0.0,0.0,0.0,0.0,0.0,0.0,0.0,0.0,0.0,0.0,0.0,0.0,0.0,0.0,0.0,0.0,0.0,0.0,0.0,0.0,0.0,0.0,0.0,0.0,0.0,0.0,0.0,0.0,0.0,0.0,0.0,0.0,0.0,0.0,0.0,0.0,0.0,0.0,0.0,0.0,0.0,0.0,0.0,0.0,0.0,0.0,0.0,0.0,0.0,0.0,0.0,0.0,0.0,0.0,0.0,0.0,0.0,0.0,0.0,0.0,0.0,0.0,0.0,0.0,0.0,0.0,0.0,0.0,0.0,0.0,0.0,0.0,0.0,0.0,0.0,0.0,0.0,0.0,0.0,0.0,0.0,0.0,0.0,0.0,0.0,0.0,0.0,0.0,0.0,0.0,0.0,0.0,0.0,0.0,0.0,0.0,0.0,0.0,0.0,0.0,0.0,0.0,0.0,0.0,0.0,0.0,0.0,0.0,0.0,0.0,0.0,0.0,0.0,0.0,0.0,0.0,0.0,0.0,0.0,0.0,0.0,0.0,0.0,0.0,0.0,0.0,0.0,0.0,0.0,0.0,0.0,0.0,0.0,0.0,0.0,0.0,0.0,0.0,0.0,0.0,0.0,0.0,0.0,0.0,0.0,0.0,0.0,0.0,0.0,0.0,0.0,0.0,0.0,0.0,0.0,0.0,0.0,0.0,0.0,0.0,0.0,0.0,0.0,0.0,0.0,0.0,0.0,0.0,0.0,0.0,0.0,0.0,0.0,0.0,0.0,0.0,0.0,0.0,0.0,0.0,0.0,0.0,0.0,0.0,0.0,0.0,0.0,0.0,0.0,0.0,0.0,0.0,0.0,0.0,0.0,0.0,0.0,0.0,0.0,0.0,0.0,0.0,0.0,0.0,0.0,0.0,0.0,0.0,0.0,0.0,0.0,0.0,0.0,0.0,0.0,0.0,0.0,0.0,0.0,0.0,0.0,0.0,0.0,0.0,0.0,0.0,0.0,0.0,0.0,0.0,0.0,0.0,0.0,0.0,0.0,0.0,0.0,0.0,0.0,0.0,0.0,0.0,0.0,0.0,0.0,0.0,0.0,0.0,0.0,0.0,0.0,0.0,0.0,0.0,0.0,0.0,0.0,0.0,0.0,0.0,0.0,0.0,0.0,0.0,0.0,0.0,0.0,0.0,0.0,0.0,0.0,0.0,0.0,0.0,0.0,0.0,0.0,0.0,0.0,0.0,0.0,0.0,0.0,0.0,0.0,0.0,0.0,0.0,0.0,0.0,0.0,0.0,0.0,0.0,0.0,0.0,0.0,0.0,0.0,0.0,0.0,0.0,0.0,0.0,0.0,0.0,0.0,0.0,0.0,0.0,0.0,0.0,0.0,0.0,0.0,0.0,0.0,0.0,0.0,0.0,0.0,0.0,0.0,0.0,0.0,0.0,0.0,0.0,0.0,0.0,0.0,0.0,0.0,0.0,0.0,0.0,0.0,0.0,0.0,0.0,0.0,0.0,0.0,0.0,0.0,0.0,0.0,0.0,0.0,0.0,0.0,0.0,0.0,0.0,0.0,0.0,0.0,0.0,0.0,0.0,0.0,0.0,0.0,0.0,0.0,0.0,0.0,0.0,0.0,0.0,0.0,0.0,0.0,0.0,0.0,0.0,0.0,0.0,0.0,0.0,0.0,0.0,0.0,0.0,0.0,0.0,0.0,0.0,0.0,0.0,0.0,0.0,0.0,0.0,0.0,0.0,0.0,0.0,0.0,0.0,0.0,0.0,0.0,0.0,0.0,0.0,0.0,0.0,0.0,0.0,0.0,0.0,0.0,0.0,0.0,0.0,0.0,0.0,0.0,-1.7728,0.0,0.0,0.0,0.0,0.0,0.0,0.0,0.0,0.0,0.0,0.0,0.0,0.0,0.0,0.0,0.0,0.0,0.0,0.0,0.0,0.0,0.0,0.0,0.0,0.0,0.0,0.0,0.0,0.0,0.0,0.0,0.0,0.0,0.0,0.0,0.0,0.0,0.0,0.0,0.0,0.0,0.0,0.0,0.0,0.0,0.0,0.0,0.0,0.0,0.0,0.0,0.0,0.0,0.0,0.0,0.0,0.0,0.0,0.0,0.0,0.0,0.0,0.0,0.0,0.0,0.0,0.0,0.0,0.0,0.0,0.0,0.0,0.0,0.0,0.0,0.0,0.0,0.0,0.0,0.0,0.0,0.0,0.0,0.0,0.0,0.0,0.0,0.0,0.0,0.0,0.0,0.0,0.0,0.0,0.0,0.0,0.0,0.0,0.0,0.0,0.0,0.0,0.0,0.0,0.0,0.0,0.0,0.0,0.0,0.0,-1.7593,-1.7222,-1.7284,-1.7368,-1.7473,0.0,0.0,0.0,0.0,0.0,0.0,0.0,0.0,0.0,0.0,0.0,0.0,0.0,0.0,0.0,0.0,0.0,0.0,0.0,0.0,0.0,0.0,0.0,0.0,0.0,0.0,0.0,0.0,0.0,0.0,0.0,0.0,0.0,0.0,0.0,0.0,0.0,0.0,0.0,0.0,0.0,0.0,0.0,0.0,0.0,0.0,0.0,0.0,0.0,0.0,0.0,0.0,0.0,0.0,0.0,0.0,0.0,0.0,0.0,0.0,0.0,0.0,0.0,0.0,0.0,0.0,0.0,0.0,0.0,0.0,0.0,0.0,0.0,0.0,0.0,0.0,0.0,0.0,0.0,0.0,0.0,0.0,0.0,0.0,0.0,0.0,0.0,0.0,0.0,0.0,0.0,0.0,0.0,0.0,0.0,0.0,0.0,0.0,0.0,0.0,0.0,0.0,0.0,0.0,0.0,0.0,0.0,0.0,0.0,0.0,0.0,0.0,-1.6878,-1.6976,-1.725,0.0,0.0,0.0,0.0,0.0,0.0,0.0,0.0,0.0,0.0,0.0,0.0,0.0,0.0,0.0,0.0,0.0,0.0,0.0,0.0,0.0,0.0,0.0,0.0,0.0,0.0,0.0,0.0,0.0,0.0,0.0,0.0,0.0,0.0,0.0,0.0,0.0,0.0,0.0,0.0,0.0,0.0,0.0,0.0,0.0,0.0,0.0,0.0,0.0,0.0,0.0,0.0,0.0,0.0,0.0,0.0,0.0,0.0,0.0,0.0,0.0,0.0,0.0,0.0,0.0,0.0,0.0,0.0,0.0,0.0,0.0,0.0,0.0,0.0,0.0,0.0,0.0,0.0,0.0,0.0,0.0,0.0,0.0,0.0,0.0,0.0,0.0,0.0,0.0,0.0,0.0,0.0,0.0,0.0,0.0,0.0,0.0,0.0,0.0,0.0,0.0,0.0,0.0,0.0,0.0,0.0,0.0,0.0,0.0,0.0,-1.7045,-1.7387,-1.6783,0.0,-1.7011,0.0,0.0,0.0,0.0,0.0,0.0,0.0,0.0,0.0,0.0,0.0,0.0,0.0,0.0,0.0,0.0,0.0,0.0,0.0,0.0,0.0,0.0,0.0,0.0,0.0,0.0,0.0,0.0,0.0,0.0,0.0,0.0,0.0,0.0,0.0,0.0,0.0,0.0,0.0,0.0,0.0,0.0,0.0,0.0,0.0,0.0,0.0,0.0,0.0,0.0,0.0,0.0,0.0,0.0,0.0,0.0,0.0,0.0,0.0,0.0,0.0,0.0,0.0,0.0,0.0,0.0,0.0,0.0,0.0,0.0,0.0,0.0,0.0,0.0,0.0,0.0,0.0,0.0,0.0,0.0,0.0,0.0,0.0,0.0,0.0,0.0,0.0,0.0,0.0,0.0,0.0,0.0,0.0,0.0,0.0,0.0,0.0,0.0,0.0,0.0,0.0,0.0,0.0,0.0,0.0,0.0,0.0,0.0,0.0,0.0,-1.641,-1.6651,-1.6571,-1.6637,0.0,0.0,0.0,0.0,0.0,0.0,0.0,0.0,0.0,0.0,0.0,0.0,0.0,0.0,0.0,0.0,0.0,0.0,0.0,0.0,0.0,0.0,0.0,0.0,0.0,0.0,0.0,0.0,0.0,0.0,0.0,0.0,0.0,0.0,0.0,0.0,0.0,0.0,0.0,0.0,0.0,0.0,0.0,0.0,0.0,0.0,0.0,0.0,0.0,0.0,0.0,0.0,0.0,0.0,0.0,0.0,0.0,0.0,0.0,0.0,0.0,0.0,0.0,0.0,0.0,0.0,0.0,0.0,0.0,0.0,0.0,0.0,0.0,0.0,0.0,0.0,0.0,0.0,0.0,0.0,0.0,0.0,0.0,0.0,0.0,0.0,0.0,0.0,0.0,0.0,0.0,0.0,0.0,0.0,0.0,0.0,0.0,0.0,0.0,0.0,0.0,0.0,0.0,0.0,0.0,0.0,0.0,0.0,0.0,0.0,-1.6225,-1.5951,-1.6104,-1.6332,-1.6531,-1.6722,0.0,0.0,0.0,0.0,0.0,0.0,0.0,0.0,0.0,0.0,0.0,0.0,0.0,0.0,0.0,0.0,0.0,0.0,0.0,0.0,0.0,0.0,0.0,0.0,0.0,0.0,0.0,0.0,0.0,0.0,0.0,0.0,0.0,0.0,0.0,0.0,0.0,0.0,0.0,0.0,0.0,0.0,0.0,0.0,0.0,0.0,0.0,0.0,0.0,0.0,0.0,0.0,0.0,0.0,0.0,0.0,0.0,0.0,0.0,0.0,0.0,0.0,0.0,0.0,0.0,0.0,0.0,0.0,0.0,0.0,0.0,0.0,0.0,0.0,0.0,0.0,0.0,0.0,0.0,0.0,0.0,0.0,0.0,0.0,0.0,0.0,0.0,0.0,0.0,0.0,0.0,0.0,0.0,0.0,0.0,0.0,0.0,0.0,0.0,0.0,0.0,0.0,0.0,0.0,0.0,0.0,0.0,0.0,-1.7183,-1.6336,-1.5951,-1.6095,-1.6104,-1.6247,0.0,0.0,0.0,0.0,0.0,0.0,0.0,0.0,0.0,0.0,0.0,0.0,0.0,0.0,0.0,0.0,0.0,0.0,0.0,0.0,0.0,0.0,0.0,0.0,0.0,0.0,0.0,0.0,0.0,0.0,0.0,0.0,0.0,0.0,0.0,0.0,0.0,0.0,0.0,0.0,0.0,0.0,0.0,0.0,0.0,0.0,0.0,0.0,0.0,0.0,0.0,0.0,0.0,0.0,0.0,0.0,0.0,0.0,0.0,0.0,0.0,0.0,0.0,0.0,0.0,0.0,0.0,0.0,0.0,0.0,0.0,0.0,0.0,0.0,0.0,0.0,0.0,0.0,0.0,0.0,0.0,0.0,0.0,0.0,0.0,0.0,0.0,0.0,0.0,0.0,0.0,0.0,0.0,0.0,0.0,0.0,0.0,0.0,0.0,0.0,0.0,0.0,0.0,0.0,0.0,0.0,0.0,0.0,0.0,-1.5958,-1.5635,-1.5517,-1.5642,-1.5778,-1.6058,0.0,0.0,0.0,0.0,0.0,0.0,0.0,0.0,0.0,0.0,0.0,0.0,0.0,0.0,0.0,0.0,0.0,0.0,0.0,0.0,0.0,0.0,0.0,0.0,0.0,0.0,0.0,0.0,0.0,0.0,0.0,0.0,0.0,0.0,0.0,0.0,0.0,0.0,0.0,0.0,0.0,0.0,0.0,0.0,0.0,0.0,0.0,0.0,0.0,0.0,0.0,0.0,0.0,0.0,0.0,0.0,0.0,0.0,0.0,0.0,0.0,0.0,0.0,0.0,0.0,0.0,0.0,0.0,0.0,0.0,0.0,0.0,0.0,0.0,0.0,0.0,0.0,0.0,0.0,0.0,0.0,0.0,0.0,0.0,0.0,0.0,0.0,0.0,0.0,0.0,0.0,0.0,0.0,0.0,0.0,0.0,0.0,0.0,0.0,0.0,0.0,0.0,0.0,0.0,0.0,0.0,0.0,0.0,0.0,-1.5215,0.0,-1.5284,-1.5517,-1.5604,-1.5914,0.0,0.0,0.0,0.0,0.0,0.0,0.0,0.0,0.0,0.0,0.0,0.0,0.0,0.0,0.0,0.0,0.0,0.0,0.0,0.0,0.0,0.0,0.0,0.0,0.0,0.0,0.0,0.0,0.0,0.0,0.0,0.0,0.0,0.0,0.0,0.0,0.0,0.0,0.0,0.0,0.0,0.0,0.0,0.0,0.0,0.0,0.0,0.0,0.0,0.0,0.0,0.0,0.0,0.0,0.0,0.0,0.0,0.0,0.0,0.0,0.0,0.0,0.0,0.0,0.0,0.0,0.0,0.0,0.0,0.0,0.0,0.0,0.0,0.0,0.0,0.0,0.0,0.0,0.0,0.0,0.0,0.0,0.0,0.0,0.0,0.0,0.0,0.0,0.0,0.0,0.0,0.0,0.0,0.0,0.0,0.0,0.0,0.0,0.0,0.0,0.0,0.0,0.0,0.0,0.0,0.0,0.0,0.0,-1.5205,-1.5205,-1.5205,-1.5361,-1.5673,-1.5673,-1.5827,0.0,0.0,0.0,0.0,0.0,0.0,0.0,0.0,0.0,0.0,0.0,0.0,0.0,0.0,0.0,0.0,0.0,0.0,0.0,0.0,0.0,0.0,0.0,0.0,0.0,0.0,0.0,0.0,0.0,0.0,0.0,0.0,0.0,0.0,0.0,0.0,0.0,0.0,0.0,0.0,0.0,0.0,0.0,0.0,0.0,0.0,0.0,0.0,0.0,0.0,0.0,0.0,0.0,0.0,0.0,0.0,0.0,0.0,0.0,0.0,0.0,0.0,0.0,0.0,0.0,0.0,0.0,0.0,0.0,0.0,0.0,0.0,0.0,0.0,0.0,0.0,0.0,0.0,0.0,0.0,0.0,0.0,0.0,0.0,0.0,0.0,0.0,0.0,0.0,0.0,0.0,0.0,0.0,0.0,0.0,0.0,0.0,0.0,0.0,0.0,0.0,0.0,0.0,0.0,0.0,0.0,0.0,0.0,0.0,-1.494,-1.5216,-1.5457,-1.5688,-1.567,-1.5799,0.0,0.0,0.0,0.0,0.0,0.0,0.0,0.0,0.0,0.0,0.0,0.0,0.0,0.0,0.0,0.0,0.0,0.0,0.0,0.0,0.0,0.0,0.0,0.0,0.0,0.0,0.0,0.0,0.0,0.0,0.0,0.0,0.0,0.0,0.0,0.0,0.0,0.0,0.0,0.0,0.0,0.0,0.0,0.0,0.0,0.0,0.0,0.0,0.0,0.0,0.0,0.0,0.0,0.0,0.0,0.0,0.0,0.0,0.0,0.0,0.0,0.0,0.0,0.0,0.0,0.0,0.0,0.0,0.0,0.0,0.0,0.0,0.0,0.0,0.0,0.0,0.0,0.0,0.0,0.0,0.0,0.0,0.0,0.0,0.0,0.0,0.0,0.0,0.0,0.0,0.0,0.0,0.0,0.0,0.0,0.0,0.0,0.0,0.0,0.0,0.0,0.0,0.0,0.0,0.0,0.0,0.0,0.0,0.0,-1.5677,-1.5936,-1.6179,-1.6373,-1.6459,-1.6375,-1.6124,0.0,0.0,0.0,0.0,0.0,0.0,0.0,0.0,0.0,0.0,0.0,0.0,0.0,0.0,0.0,0.0,0.0,0.0,0.0,0.0,0.0,0.0,0.0,0.0,0.0,0.0,0.0,0.0,0.0,0.0,0.0,0.0,0.0,0.0,0.0,0.0,0.0,0.0,0.0,0.0,0.0,0.0,0.0,0.0,0.0,0.0,0.0,0.0,0.0,0.0,0.0,0.0,0.0,0.0,0.0,0.0,0.0,0.0,0.0,0.0,0.0,0.0,0.0,0.0,0.0,0.0,0.0,0.0,0.0,0.0,0.0,0.0,0.0,0.0,0.0,0.0,0.0,0.0,0.0,0.0,0.0,0.0,0.0,0.0,0.0,0.0,0.0,0.0,0.0,0.0,0.0,0.0,0.0,0.0,0.0,0.0,0.0,0.0,0.0,0.0,0.0,0.0,0.0,0.0,0.0,0.0,0.0,0.0,-1.7316,-1.7442,-1.7598,-1.7678,-1.7908,-1.7404,0.0,0.0,0.0,0.0,0.0,0.0,0.0,0.0,0.0,0.0,0.0,0.0,0.0,0.0,0.0,0.0,0.0,0.0,0.0,0.0,0.0,0.0,0.0,0.0,0.0,0.0,0.0,0.0,0.0,0.0,0.0,0.0,0.0,0.0,0.0,0.0,0.0,0.0,0.0,0.0,0.0,0.0,0.0,0.0,0.0,0.0,0.0,0.0,0.0,0.0,0.0,0.0,0.0,0.0,0.0,0.0,0.0,0.0,0.0,0.0,0.0,0.0,0.0,0.0,0.0,0.0,0.0,0.0,0.0,0.0,0.0,0.0,0.0,0.0,0.0,0.0,0.0,0.0,0.0,0.0,0.0,0.0,0.0,0.0,0.0,0.0,0.0,0.0,0.0,0.0,0.0,0.0,0.0,0.0,0.0,0.0,0.0,0.0,0.0,0.0,0.0,0.0,0.0,0.0,0.0,0.0,0.0,0.0,0.0,-1.9906,-2.0994,-2.0964,-1.9969,-1.9057,-1.8409,0.0,0.0,0.0,0.0,0.0,0.0,0.0,0.0,0.0,0.0,0.0,0.0,0.0,0.0,0.0,0.0,0.0,0.0,0.0,0.0,0.0,0.0,0.0,0.0,0.0,0.0,0.0,0.0,0.0,0.0,0.0,0.0,0.0,0.0,0.0,0.0,0.0,0.0,0.0,0.0,0.0,0.0,0.0,0.0,0.0,0.0,0.0,0.0,0.0,0.0,0.0,0.0,0.0,0.0,0.0,0.0,0.0,0.0,0.0,0.0,0.0,0.0,0.0,0.0,0.0,0.0,0.0,0.0,0.0,0.0,0.0,0.0,0.0,0.0,0.0,0.0,0.0,0.0,0.0,0.0,0.0,0.0,0.0,0.0,0.0,0.0,0.0,0.0,0.0,0.0,0.0,0.0,0.0,0.0,0.0,0.0,0.0,0.0,0.0,0.0,0.0,0.0,0.0,0.0,0.0,0.0,0.0,0.0,-1.9218,-2.0897,-2.3061,-2.3846,-2.3103,-2.1425,-2.0055,0.0,0.0,0.0,0.0,0.0,0.0,0.0,0.0,0.0,0.0,0.0,0.0,0.0,0.0,0.0,0.0,0.0,0.0,0.0,0.0,0.0,0.0,0.0,0.0,0.0,0.0,0.0,0.0,0.0,0.0,0.0,0.0,0.0,0.0,0.0,0.0,0.0,0.0,0.0,0.0,0.0,0.0,0.0,0.0,0.0,0.0,0.0,0.0,0.0,0.0,0.0,0.0,0.0,0.0,0.0,0.0,0.0,0.0,0.0,0.0,0.0,0.0,0.0,0.0,0.0,0.0,0.0,0.0,0.0,0.0,0.0,0.0,0.0,0.0,0.0,0.0,0.0,0.0,0.0,0.0,0.0,0.0,0.0,0.0,0.0,0.0,0.0,0.0,0.0,0.0,0.0,0.0,0.0,0.0,0.0,0.0,0.0,0.0,0.0,0.0,0.0,0.0,0.0,0.0,0.0,0.0,0.0,0.0,-2.0612,-2.1297,-2.4393,-2.6227,-2.64,-2.4114,-2.1768,0.0,0.0,0.0,0.0,0.0,0.0,0.0,0.0,0.0,0.0,0.0,0.0,0.0,0.0,0.0,0.0,0.0,0.0,0.0,0.0,0.0,0.0,0.0,0.0,0.0,0.0,0.0,0.0,0.0,0.0,0.0,0.0,0.0,0.0,0.0,0.0,0.0,0.0,0.0,0.0,0.0,0.0,0.0,0.0,0.0,0.0,0.0,0.0,0.0,0.0,0.0,0.0,0.0,0.0,0.0,0.0,0.0,0.0,0.0,0.0,0.0,0.0,0.0,0.0,0.0,0.0,0.0,0.0,0.0,0.0,0.0,0.0,0.0,0.0,0.0,0.0,0.0,0.0,0.0,0.0,0.0,0.0,0.0,0.0,0.0,0.0,0.0,0.0,0.0,0.0,0.0,0.0,0.0,0.0,0.0,0.0,0.0,0.0,0.0,0.0,0.0,0.0,0.0,0.0,0.0,0.0,0.0,0.0,-2.2032,-2.4282,-2.6222,-2.76,-2.8348,-2.4381,-2.1868,0.0,0.0,0.0,0.0,0.0,0.0,0.0,0.0,0.0,0.0,0.0,0.0,0.0,0.0,0.0,0.0,0.0,0.0,0.0,0.0,0.0,0.0,0.0,0.0,0.0,0.0,0.0,0.0,0.0,0.0,0.0,0.0,0.0,0.0,0.0,0.0,0.0,0.0,0.0,0.0,0.0,0.0,0.0,0.0,0.0,0.0,0.0,0.0,-2.5092,0.0,0.0,0.0,0.0,0.0,0.0,0.0,0.0,0.0,0.0,0.0,0.0,0.0,0.0,0.0,0.0,0.0,0.0,0.0,0.0,0.0,0.0,0.0,0.0,0.0,0.0,0.0,0.0,0.0,0.0,0.0,0.0,0.0,0.0,0.0,0.0,0.0,0.0,0.0,0.0,0.0,0.0,0.0,0.0,0.0,0.0,0.0,0.0,0.0,0.0,0.0,0.0,0.0,0.0,0.0,0.0,0.0,0.0,0.0,-2.2794,-2.5251,-2.7092,-2.8327,-2.8653,-2.569,-2.358,0.0,0.0,0.0,0.0,0.0,0.0,0.0,0.0,0.0,0.0,0.0,0.0,0.0,0.0,0.0,0.0,0.0,0.0,0.0,0.0,0.0,0.0,0.0,0.0,0.0,0.0,0.0,0.0,0.0,0.0,0.0,0.0,0.0,0.0,0.0,0.0,0.0,0.0,0.0,0.0,0.0,0.0,0.0,0.0,0.0,0.0,0.0,0.0,0.0,0.0,0.0,0.0,0.0,0.0,0.0,0.0,0.0,0.0,0.0,0.0,0.0,0.0,0.0,0.0,0.0,0.0,0.0,0.0,0.0,0.0,0.0,0.0,0.0,0.0,0.0,0.0,0.0,0.0,0.0,0.0,0.0,0.0,0.0,0.0,0.0,0.0,0.0,0.0,0.0,0.0,0.0,0.0,0.0,0.0,0.0,0.0,0.0,0.0,0.0,0.0,0.0,0.0,0.0,0.0,0.0,0.0,0.0,-2.1324,-2.3537,-2.5837,-2.7725,-2.8752,-2.8814,-2.7305,-2.5678,-2.3907,0.0,0.0,0.0,0.0,0.0,0.0,0.0,0.0,0.0,0.0,0.0,0.0,0.0,0.0,0.0,0.0,0.0,0.0,0.0,0.0,0.0,0.0,0.0,0.0,0.0,0.0,0.0,0.0,0.0,0.0,0.0,0.0,0.0,0.0,0.0,0.0,0.0,0.0,-2.3109,-2.4256,0.0,0.0,0.0,0.0,0.0,0.0,0.0,0.0,-2.7133,0.0,0.0,0.0,0.0,0.0,0.0,0.0,0.0,0.0,0.0,0.0,0.0,0.0,0.0,0.0,0.0,0.0,0.0,0.0,0.0,0.0,0.0,0.0,0.0,0.0,0.0,0.0,0.0,0.0,0.0,0.0,0.0,0.0,0.0,0.0,0.0,0.0,0.0,0.0,0.0,0.0,0.0,0.0,0.0,0.0,0.0,0.0,0.0,0.0,0.0,0.0,0.0,0.0,0.0,0.0,0.0,-2.1992,-2.2889,-2.4914,-2.8284,-2.8927,-2.9373,-2.9704,-2.8205,-2.6471,-2.4578,0.0,0.0,0.0,0.0,0.0,0.0,0.0,0.0,0.0,0.0,0.0,0.0,0.0,0.0,0.0,0.0,0.0,0.0,0.0,0.0,0.0,0.0,0.0,0.0,0.0,0.0,0.0,0.0,0.0,0.0,0.0,0.0,0.0,0.0,0.0,0.0,0.0,0.0,0.0,-2.5273,-2.5701,0.0,0.0,0.0,0.0,0.0,0.0,0.0,0.0,-2.7325,0.0,0.0,0.0,0.0,0.0,0.0,0.0,0.0,0.0,0.0,0.0,0.0,0.0,0.0,0.0,0.0,0.0,0.0,0.0,0.0,0.0,0.0,0.0,0.0,0.0,0.0,0.0,0.0,0.0,0.0,0.0,0.0,0.0,0.0,0.0,0.0,0.0,0.0,0.0,0.0,0.0,0.0,0.0,0.0,0.0,0.0,0.0,0.0,0.0,0.0,0.0,0.0,0.0,0.0,0.0,-2.2168,-2.389,-2.6119,-2.8686,-2.9362,-2.9766,-2.9973,-2.8523,-2.6903,0.0,0.0,0.0,0.0,0.0,0.0,0.0,0.0,0.0,0.0,0.0,0.0,0.0,0.0,0.0,0.0,0.0,0.0,0.0,0.0,0.0,0.0,0.0,0.0,0.0,0.0,0.0,0.0,0.0,0.0,0.0,0.0,0.0,0.0,0.0,0.0,0.0,0.0,0.0,0.0,-2.6259,-2.6599,-2.6638,0.0,0.0,0.0,0.0,0.0,0.0,-2.7797,-2.8281,0.0,0.0,0.0,0.0,0.0,0.0,0.0,0.0,0.0,0.0,0.0,0.0,0.0,0.0,0.0,0.0,0.0,0.0,0.0,0.0,0.0,0.0,0.0,0.0,0.0,0.0,0.0,0.0,0.0,0.0,0.0,0.0,0.0,0.0,0.0,0.0,0.0,0.0,0.0,0.0,0.0,0.0,0.0,0.0,0.0,0.0,0.0,0.0,0.0,0.0,0.0,0.0,0.0,0.0,0.0,-2.2221,-2.4894,-2.7151,-2.895,-2.9849,-3.0263,-3.0243,-2.8624,-2.701,0.0,0.0,0.0,0.0,0.0,0.0,0.0,0.0,0.0,0.0,0.0,0.0,0.0,0.0,0.0,0.0,0.0,0.0,0.0,0.0,0.0,0.0,0.0,0.0,0.0,0.0,0.0,0.0,0.0,0.0,0.0,0.0,0.0,0.0,0.0,0.0,0.0,0.0,0.0,0.0,0.0,-2.7422,-2.7617,-2.8245,0.0,0.0,0.0,0.0,-2.7947,-2.8991,0.0,0.0,0.0,0.0,0.0,0.0,0.0,0.0,0.0,0.0,0.0,0.0,0.0,0.0,0.0,0.0,0.0,0.0,0.0,0.0,0.0,0.0,0.0,0.0,0.0,0.0,0.0,0.0,0.0,0.0,0.0,0.0,0.0,0.0,0.0,0.0,0.0,0.0,0.0,0.0,0.0,0.0,0.0,0.0,0.0,0.0,0.0,0.0,0.0,0.0,0.0,0.0,0.0,0.0,0.0,0.0,-2.3644,-2.5916,-2.8164,-3.0334,-3.0946,-3.1215,-3.1195,-2.8637,-2.6793,0.0,0.0,0.0,0.0,0.0,0.0,0.0,0.0,0.0,0.0,0.0,0.0,0.0,0.0,0.0,0.0,0.0,0.0,0.0,0.0,0.0,0.0,0.0,0.0,0.0,0.0,0.0,0.0,0.0,0.0,0.0,0.0,0.0,0.0,0.0,0.0,0.0,0.0,0.0,0.0,0.0,-2.7586,-2.8111,-2.832,-2.8388,0.0,0.0,-2.9549,-2.9249,-3.0438,0.0,0.0,0.0,0.0,0.0,0.0,0.0,0.0,0.0,0.0,0.0,0.0,0.0,0.0,0.0,0.0,0.0,0.0,0.0,0.0,0.0,0.0,0.0,0.0,0.0,0.0,0.0,0.0,0.0,0.0,0.0,0.0,0.0,0.0,0.0,0.0,0.0,0.0,0.0,0.0,0.0,0.0,0.0,0.0,0.0,0.0,0.0,0.0,0.0,0.0,0.0,0.0,0.0,0.0,0.0,-2.2473,-2.3956,-2.6844,-2.9003,-3.0284,-3.1008,-3.1381,-3.1381,-2.8729,-2.7033,0.0,0.0,0.0,0.0,0.0,0.0,0.0,0.0,0.0,0.0,0.0,0.0,0.0,0.0,0.0,0.0,0.0,0.0,0.0,0.0,0.0,0.0,0.0,0.0,0.0,0.0,0.0,0.0,0.0,0.0,0.0,0.0,0.0,0.0,0.0,0.0,0.0,0.0,0.0,0.0,0.0,0.0,-2.8141,-2.8723,0.0,0.0,0.0,-3.0231,-3.0121,0.0,0.0,0.0,0.0,0.0,0.0,0.0,0.0,0.0,0.0,0.0,0.0,0.0,0.0,0.0,0.0,0.0,0.0,0.0,0.0,0.0,0.0,0.0,0.0,0.0,0.0,0.0,0.0,0.0,0.0,0.0,0.0,0.0,0.0,0.0,0.0,0.0,0.0,0.0,0.0,0.0,0.0,0.0,0.0,0.0,0.0,0.0,0.0,0.0,0.0,0.0,0.0,0.0,0.0,0.0,0.0,0.0,-2.4202,-2.7784,-2.987,-3.0346,-3.1236,-3.1712,-3.1692,-2.9384,0.0,0.0,0.0,0.0,0.0,0.0,0.0,0.0,0.0,0.0,0.0,0.0,0.0,0.0,0.0,0.0,0.0,0.0,0.0,0.0,0.0,0.0,0.0,0.0,0.0,0.0,0.0,-2.1147,0.0,0.0,0.0,0.0,0.0,0.0,0.0,0.0,0.0,0.0,0.0,0.0,0.0,0.0,-2.886,-2.8429,-2.9209,-2.9771,0.0,0.0,-3.0812,-3.1201,-3.202,-3.2321,0.0,0.0,0.0,0.0,0.0,0.0,0.0,0.0,0.0,0.0,0.0,0.0,0.0,0.0,0.0,0.0,0.0,0.0,0.0,0.0,0.0,0.0,0.0,0.0,0.0,0.0,0.0,0.0,0.0,0.0,0.0,0.0,0.0,0.0,0.0,0.0,0.0,0.0,0.0,0.0,0.0,0.0,0.0,0.0,0.0,0.0,0.0,0.0,0.0,0.0,0.0,0.0,0.0,0.0,-2.3966,-2.4816,-2.8589,-3.0801,-3.1298,-3.2168,-3.2644,-3.2566,-3.0764,-2.9126,0.0,0.0,0.0,0.0,0.0,0.0,0.0,0.0,0.0,0.0,0.0,0.0,0.0,0.0,0.0,0.0,0.0,0.0,0.0,0.0,0.0,0.0,0.0,0.0,0.0,0.0,0.0,0.0,0.0,0.0,0.0,0.0,0.0,0.0,0.0,0.0,0.0,0.0,0.0,0.0,0.0,-2.839,-2.9168,-2.9757,-3.0406,0.0,-3.113,-3.1421,-3.2905,-3.3521,-3.3546,-3.2559,0.0,0.0,0.0,0.0,0.0,0.0,0.0,0.0,0.0,0.0,0.0,0.0,0.0,0.0,0.0,0.0,0.0,0.0,0.0,0.0,0.0,0.0,0.0,0.0,0.0,0.0,0.0,0.0,0.0,0.0,0.0,0.0,0.0,0.0,0.0,0.0,0.0,0.0,0.0,0.0,0.0,0.0,0.0,0.0,0.0,0.0,0.0,0.0,0.0,0.0,0.0,0.0,0.0,-2.4485,-2.5812,-2.9106,-3.1278,-3.2209,-3.3099,-3.341,-3.3141,-3.1482,-2.989,0.0,0.0,0.0,0.0,0.0,0.0,0.0,0.0,0.0,0.0,0.0,0.0,0.0,0.0,0.0,0.0,0.0,0.0,0.0,0.0,0.0,0.0,0.0,0.0,0.0,0.0,0.0,0.0,-2.3552,-2.421,-2.4693,0.0,0.0,0.0,0.0,0.0,0.0,0.0,0.0,0.0,0.0,-2.971,-2.9854,-3.0514,0.0,0.0,-3.18,-3.2264,-3.2606,-3.3392,-3.3609,-3.245,-3.2551,0.0,0.0,0.0,0.0,0.0,0.0,0.0,0.0,0.0,0.0,0.0,0.0,0.0,0.0,0.0,0.0,0.0,0.0,0.0,0.0,0.0,0.0,0.0,0.0,0.0,0.0,0.0,0.0,0.0,0.0,0.0,0.0,0.0,0.0,0.0,0.0,0.0,0.0,0.0,0.0,0.0,0.0,0.0,0.0,0.0,0.0,0.0,0.0,0.0,0.0,0.0,0.0,-2.5014,-2.6237,-2.9579,-3.1728,-3.2592,-3.3596,-3.3924,-3.3368,-3.2164,-3.0731,0.0,0.0,0.0,0.0,0.0,0.0,0.0,0.0,0.0,0.0,0.0,0.0,0.0,0.0,0.0,0.0,0.0,0.0,0.0,0.0,0.0,0.0,0.0,0.0,0.0,0.0,0.0,0.0,-2.4203,-2.492,-2.542,0.0,0.0,0.0,0.0,0.0,0.0,0.0,0.0,0.0,0.0,-3.0727,-3.0563,-3.1167,-3.1693,-3.1686,-3.2101,-3.2531,-3.2783,-3.3337,-3.3421,-3.2519,0.0,0.0,0.0,0.0,0.0,0.0,0.0,0.0,0.0,0.0,0.0,0.0,0.0,0.0,0.0,0.0,0.0,0.0,0.0,0.0,0.0,0.0,0.0,0.0,0.0,0.0,0.0,-1.9159,0.0,0.0,-1.829,0.0,0.0,0.0,0.0,0.0,0.0,0.0,0.0,0.0,0.0,0.0,0.0,0.0,0.0,0.0,0.0,0.0,0.0,0.0,0.0,0.0,0.0,-2.5651,-2.5985,-3.0143,-3.2305,-3.2367,-3.3499,-3.3865,-3.343,-3.2934,-3.1819,-2.9938,0.0,0.0,0.0,0.0,0.0,0.0,0.0,0.0,0.0,0.0,0.0,0.0,0.0,0.0,0.0,0.0,0.0,0.0,0.0,0.0,0.0,0.0,0.0,0.0,0.0,0.0,-2.4508,-2.492,-2.5442,0.0,0.0,0.0,0.0,0.0,0.0,0.0,0.0,0.0,-3.0007,-3.0632,-3.0989,-3.12,-3.155,-3.2066,-3.2708,-3.2028,-3.2011,-3.3726,-3.3495,-3.3034,0.0,0.0,0.0,0.0,0.0,0.0,0.0,0.0,0.0,0.0,0.0,0.0,0.0,0.0,0.0,0.0,0.0,0.0,0.0,0.0,0.0,0.0,0.0,0.0,0.0,0.0,0.0,-1.9696,-1.9771,0.0,0.0,0.0,0.0,0.0,0.0,0.0,0.0,0.0,0.0,0.0,-2.3797,-2.3736,0.0,0.0,0.0,0.0,0.0,0.0,0.0,0.0,0.0,0.0,0.0,0.0,-2.6368,-2.7618,-3.102,-3.3323,-3.4305,-3.4756,-3.49,-3.4734,-3.372,-3.2061,-2.9786,0.0,0.0,0.0,0.0,0.0,0.0,0.0,0.0,0.0,0.0,0.0,0.0,0.0,0.0,0.0,0.0,0.0,0.0,0.0,0.0,0.0,0.0,0.0,0.0,0.0,-2.4882,0.0,0.0,0.0,0.0,0.0,0.0,0.0,0.0,0.0,0.0,-2.8512,-2.8829,-2.958,-3.0355,-3.0992,-3.1153,-3.173,-3.2411,0.0,0.0,0.0,0.0,0.0,0.0,0.0,0.0,0.0,0.0,0.0,0.0,0.0,0.0,-3.2846,-3.236,-3.2485,-3.259,-3.2273,0.0,0.0,0.0,0.0,0.0,0.0,0.0,0.0,0.0,0.0,0.0,0.0,0.0,0.0,-2.1062,-2.1015,-2.1315,0.0,0.0,0.0,0.0,0.0,0.0,0.0,0.0,-2.4335,-2.5321,-2.624,-2.5998,-2.5998,-2.624,-2.5919,-2.4778,0.0,0.0,0.0,0.0,0.0,0.0,0.0,0.0,-2.7283,-2.8465,-3.1741,-3.3983,-3.5005,-3.5334,-3.5397,-3.5211,-3.3889,-3.2287,-3.0533,-2.9367,-2.838,0.0,0.0,0.0,0.0,0.0,0.0,0.0,0.0,0.0,0.0,0.0,0.0,0.0,0.0,0.0,0.0,0.0,0.0,0.0,0.0,0.0,0.0,0.0,-2.5296,0.0,0.0,0.0,0.0,0.0,0.0,0.0,0.0,0.0,-2.8951,-2.9265,-2.9673,-3.0307,-3.1171,-3.167,-3.1491,0.0,0.0,0.0,0.0,0.0,0.0,0.0,-3.3746,-3.3019,-3.3471,-3.3845,-3.389,-3.3965,-3.3905,-3.3514,0.0,0.0,-3.2888,-3.2879,-3.2944,-3.2631,-3.2685,-3.2814,-3.2814,-3.2757,-3.2645,0.0,0.0,0.0,0.0,-2.1893,0.0,0.0,0.0,-2.3278,-2.3092,0.0,-2.3291,0.0,0.0,0.0,0.0,-2.247,-2.3626,0.0,0.0,-2.74,-2.8517,-2.886,-2.8823,-2.8842,-2.8842,-2.7996,-2.7197,-2.6464,-2.6017,0.0,0.0,0.0,0.0,0.0,0.0,-2.8181,-2.8691,-3.2452,-3.4463,-3.4524,-3.5222,-3.5391,-3.4901,-3.3564,-3.2617,-3.2207,-3.1038,-3.0322,-3.0261,-2.8568,0.0,0.0,0.0,0.0,0.0,0.0,0.0,0.0,0.0,0.0,0.0,0.0,0.0,0.0,0.0,0.0,0.0,0.0,0.0,0.0,-2.5912,0.0,0.0,0.0,0.0,0.0,0.0,0.0,0.0,0.0,-2.9228,-2.971,-3.0108,-3.0937,-3.2225,0.0,0.0,0.0,0.0,-3.3257,-3.2293,-3.2883,-3.3534,-3.3612,-3.423,-3.4555,-3.4365,0.0,0.0,-3.492,-3.4626,-3.4432,-3.4453,-3.4662,-3.4439,-3.3279,-3.3151,-3.3001,-3.2617,-3.295,-3.3108,-3.3151,-3.357,-3.377,-2.6933,0.0,0.0,0.0,0.0,-2.382,-2.4686,-2.6341,-2.5459,-2.5054,-2.4987,-2.4756,0.0,0.0,0.0,0.0,0.0,0.0,-2.6135,-2.7842,-2.8439,-2.9391,-3.0703,-3.0432,-3.0451,-3.0723,-3.0431,-3.0238,-3.0006,-3.018,-2.8408,-2.4633,0.0,0.0,0.0,0.0,-2.9861,-3.1373,-3.3641,-3.5144,-3.5831,-3.5994,-3.5845,-3.5252,-3.455,-3.3661,-3.2596,-3.2184,-3.1449,-3.0342,-2.9774,0.0,0.0,0.0,0.0,0.0,0.0,0.0,0.0,0.0,0.0,0.0,0.0,0.0,0.0,0.0,0.0,0.0,0.0,0.0,-2.6393,-2.6844,-2.6932,0.0,0.0,0.0,0.0,0.0,0.0,0.0,0.0,0.0,-3.0826,-3.0722,-3.081,0.0,0.0,-3.2571,-3.2423,-3.3296,-3.4014,-3.4139,-3.4417,0.0,-3.4917,-3.496,-3.4917,-3.4848,-3.5226,-3.5423,-3.5294,-3.5468,-3.5526,-3.5526,-3.5584,-3.5533,-3.5201,-3.5114,-3.5049,-3.4962,-3.5027,-3.5114,-3.5135,-3.5071,-3.5128,-2.9636,-2.7896,-2.6475,-2.6207,-2.6575,-2.6021,-2.6683,-2.8151,-2.7452,-2.6986,-2.6699,-2.6706,-2.5679,-2.3977,-2.4087,0.0,0.0,0.0,-2.8086,-2.9892,-2.9892,-3.0741,-3.2207,-3.2012,-3.2109,-3.25,-3.2363,-3.2187,-3.2031,-3.1866,-3.036,-2.7446,0.0,-2.7074,-2.7779,-2.9839,-3.1447,-3.2483,-3.4369,-3.5651,-3.6196,-3.6284,-3.5977,-3.529,-3.5129,-3.4488,-3.3399,-3.3124,-3.2545,-3.1552,-3.0888,-3.016,0.0,0.0,0.0,0.0,0.0,0.0,0.0,0.0,0.0,0.0,0.0,-2.5913,-2.5006,0.0,0.0,0.0,-2.7262,-2.7572,-2.7407,-2.7613,0.0,0.0,0.0,0.0,0.0,0.0,0.0,-3.0107,-3.0662,-3.1257,-3.2043,-3.1919,-3.1911,-3.2211,-3.2789,-3.3114,-3.2969,0.0,-3.455,-3.4718,-3.5058,-3.5418,-3.5589,-3.5751,-3.5832,-3.5989,-3.6167,-3.6286,-3.6286,-3.6404,-3.6522,-3.6522,-3.6581,-3.6522,-3.6603,-3.6522,-3.6369,-3.6122,-3.6341,-3.6581,-3.6522,-3.6556,-3.6638,-3.2239,-3.1979,-2.9061,-2.8089,-2.8478,-2.8151,-2.8515,-2.9332,-2.9251,-2.8888,-2.8404,-2.8884,-2.8269,-2.68,-2.7092,0.0,-2.8653,-2.9354,-3.0489,-3.1779,-3.1779,-3.2424,-3.3559,-3.3579,-3.3794,-3.4166,-3.3711,-3.332,-3.2949,-3.2003,-3.1546,-3.1508,-3.1351,-3.0789,-2.9893,-3.1757,-3.2704,-3.2575,-3.4681,-3.5858,-3.5964,-3.615,-3.5972,-3.5167,-3.5312,-3.5026,-3.4329,-3.3749,-3.3472,-3.3389,-3.1984,-3.1175,-3.1038,0.0,0.0,0.0,0.0,0.0,0.0,0.0,0.0,0.0,0.0,0.0,0.0,0.0,0.0,0.0,-2.8768,0.0,-2.8764,-2.8351,0.0,0.0,0.0,-2.9125,-3.0067,-3.016,-3.0532,-3.1436,0.0,0.0,-3.3265,-3.3451,-3.3658,-3.4113,-3.4372,-3.4351,-3.3737,-3.4494,-3.4918,-3.4573,-3.5242,-3.5852,-3.6009,-3.646,-3.6946,-3.7226,-3.7374,-3.7309,-3.7309,-3.733,-3.7352,-3.7309,-3.7352,-3.7352,-3.7352,-3.7309,-3.7112,-3.6341,-3.6762,-3.7352,-3.733,-3.7658,-3.8055,-3.4171,-3.3834,-3.279,-3.1815,-3.106,-3.0775,-3.1067,-3.172,-3.1125,-3.0781,-3.0601,-3.0471,-2.9972,-2.9297,-2.9901,-3.0591,-3.1383,-3.2033,-3.3067,-3.4275,-3.4295,-3.4635,-3.5171,-3.4998,-3.4927,-3.4942,-3.4583,-3.4336,-3.4238,-3.4011,-3.3605,-3.3059,-3.3008,-3.2314,-3.1071,-3.187,-3.2747,-3.3804,-3.4384,-3.5239,-3.6273,-3.5792,-3.5531,-3.561,-3.5204,-3.4779,-3.435,-3.4427,-3.4318,-3.3966,-3.3207,-3.2576,-3.1999,-3.0383,0.0,0.0,0.0,0.0,0.0,0.0,0.0,0.0,0.0,-2.7368,-2.6582,0.0,-2.8104,0.0,-2.9031,-2.9721,-2.9831,-2.9709,0.0,0.0,-3.0036,-3.0514,-3.1291,-3.1761,-3.2224,-3.2657,-3.3111,-3.3555,-3.3865,-3.4277,-3.459,-3.5024,-3.4857,-3.4714,-3.4595,-3.523,-3.5617,-3.56,-3.6131,-3.6599,-3.6667,-3.7032,-3.7335,-3.7374,-3.7374,-3.7374,-3.7374,-3.7374,-3.7374,-3.7374,-3.7374,-3.7374,-3.7374,-3.7374,-3.7309,-3.709,-3.7221,-3.7374,-3.7374,-3.7767,-3.8248,-3.4974,-3.4976,-3.4523,-3.3961,-3.3271,-3.2406,-3.2284,-3.2625,-3.216,-3.1987,-3.195,-3.1709,-3.1466,-3.1264,-3.1973,-3.2508,-3.2922,-3.3646,-3.429,-3.5002,-3.5151,-3.5436,-3.5856,-3.599,-3.619,-3.637,-3.5971,-3.5739,-3.5739,-3.5541,-3.5212,-3.4648,-3.5039,-3.4487,-3.3067,-3.273,-3.2805,-3.3237,-3.3956,-3.5008,-3.6412,-3.5997,-3.5591,-3.5276,-3.4932,-3.4327,-3.3437,-3.3337,-3.3235,-3.2912,-3.2488,-3.2087,-3.1652,-3.0601,-2.9893,0.0,0.0,0.0,0.0,0.0,0.0,0.0,0.0,0.0,0.0,0.0,-2.9152,-2.9333,-3.0194,-3.0758,-3.0737,-3.0902,-3.1038,-3.1161,-3.1609,-3.212,-3.2746,-3.3132,-3.3447,-3.383,-3.417,-3.4505,-3.4631,-3.49,-3.5128,-3.5376,-3.5333,-3.5332,-3.5417,-3.5932,-3.6361,-3.6361,-3.6789,-3.718,-3.7375,-3.758,-3.7641,-3.7519,-3.7641,-3.7575,-3.7258,-3.7314,-3.7374,-3.7374,-3.7374,-3.7374,-3.7374,-3.7374,-3.7374,-3.7374,-3.7374,-3.7461,-3.7658,-3.8095,-3.8532,-3.5394,-3.5669,-3.532,-3.5155,-3.5082,-3.3714,-3.3073,-3.2966,-3.2957,-3.2896,-3.2806,-3.2836,-3.2814,-3.2824,-3.3516,-3.3842,-3.3934,-3.4622,-3.4929,-3.4995,-3.5468,-3.5884,-3.6196,-3.6971,-3.7597,-3.796,-3.7441,-3.726,-3.724,-3.673,-3.633,-3.6083,-3.6708,-3.6387,-3.5021,-3.3951,-3.3055,-3.2345,-3.3698,-3.5008,-3.6364,-3.6117,-3.55,-3.4566,-3.4329,-3.3629,-3.2307,-3.1777,-3.1562,-3.1602,-3.1152,-3.0996,-3.1093,-3.0662,-3.0484,0.0,-3.0131,0.0,0.0,0.0,0.0,0.0,0.0,0.0,0.0,-2.9439,-3.0097,-3.0857,-3.1543,-3.1855,-3.1643,-3.1952,-3.2401,-3.2851,-3.3285,-3.372,-3.4152,-3.4196,-3.4463,-3.4857,-3.4899,-3.5004,-3.5335,-3.5418,-3.5418,-3.5418,-3.5665,-3.589,-3.5972,-3.6423,-3.6728,-3.6871,-3.7093,-3.7384,-3.771,-3.7902,-3.7841,-3.7595,-3.7758,-3.7754,-3.7097,-3.7214,-3.7374,-3.7374,-3.7374,-3.7374,-3.7374,-3.7374,-3.7374,-3.7374,-3.744,-3.7636,-3.8008,-3.8444,-3.8838,-3.6017,-3.6091,-3.6017,-3.5944,-3.594,-3.5648,-3.5174,-3.4574,-3.4573,-3.4353,-3.4077,-3.4033,-3.4052,-3.404,-3.4767,-3.5248,-3.5468,-3.5949,-3.6348,-3.6703,-3.7402,-3.776,-3.7861,-3.8377,-3.869,-3.8702,-3.8087,-3.7888,-3.8234,-3.7448,-3.6887,-3.6642,-3.6416,-3.5869,-3.5108,0.0,0.0,0.0,-3.4471,-3.523,-3.6025,-3.4506,-3.3762,-3.383,-3.3096,0.0,-3.2266,-3.2166,-3.2072,-3.2053,-3.19,0.0,0.0,0.0,0.0,0.0,0.0,0.0,0.0,0.0,0.0,0.0,-3.1,-3.0416,-2.9561,-2.9561,-3.001,-3.0835,-3.1301,-3.189,-3.267,-3.3107,-3.3425,-3.3824,-3.4217,-3.4608,-3.4691,-3.4941,-3.5211,-3.5273,-3.5293,-3.5314,-3.5397,-3.5418,-3.5418,-3.5479,-3.5665,-3.5993,-3.63,-3.6423,-3.6484,-3.6545,-3.685,-3.7015,-3.7101,-3.7388,-3.7493,-3.7162,-3.7284,-3.7444,-3.7357,-3.7314,-3.7374,-3.7374,-3.7374,-3.7374,-3.7374,-3.7374,-3.7396,-3.7374,-3.7702,-3.8008,-3.8095,-3.8488,-3.8947,-3.6696,-3.6512,-3.6512,-3.6515,0.0,-3.6514,-3.6383,-3.6178,-3.5768,-3.5429,-3.5229,-3.5368,-3.5403,-3.5413,-3.6054,-3.6471,-3.6809,-3.7029,-3.7385,-3.7811,-3.8397,-3.8636,-3.8657,-3.9106,-3.938,-3.9589,-3.905,-3.8959,-3.9289,-3.8653,-3.8154,-3.7857,-3.7857,-3.756,-3.7073,-3.7073,-3.6552,-3.55,-3.551,-3.5916,-3.6702,-3.562,-3.4903,-3.4733,-3.4103,0.0,0.0,0.0,0.0,0.0,0.0,0.0,0.0,-3.2396,0.0,-3.2833,-3.2651,-3.2589,-3.2745,-3.2745,-3.2745,-3.2745,-3.2451,-3.1956,-3.1104,-3.1359,-3.1832,-3.2391,-3.2628,-3.2987,-3.3534,-3.3959,-3.4283,-3.4424,-3.4817,-3.5086,-3.5107,-3.5273,-3.5418,-3.5418,-3.5418,-3.5418,-3.5603,-3.5603,-3.5726,-3.5849,-3.6178,-3.6423,-3.6606,-3.6667,-3.6667,-3.685,-3.7032,-3.724,-3.7458,-3.7623,-3.7601,-3.7378,-3.7501,-3.7514,-3.7197,-3.7275,-3.7374,-3.7374,-3.7374,-3.744,-3.7658,-3.7549,-3.7527,-3.7942,-3.8095,-3.8313,-3.8663,-3.9012,-3.9165,-3.7136,-3.6842,-3.6824,-3.6886,-3.6812,-3.7035,-3.733,-3.7658,-3.6823,0.0,0.0,-3.6612,-3.6757,-3.6757,-3.7184,-3.7521,-3.7932,-3.7952,-3.8134,-3.8496,-3.8926,-3.9106,-3.9126,-3.9625,-3.9971,-4.0274,-3.99,-3.99,-4.0253,-3.9798,-3.9494,-3.9368,-3.9584,-3.9606,-3.9435,-3.902,-3.8337,-3.7342,-3.6484,-3.6527,-3.7461,-3.6907,-3.6284,-3.5806,-3.5284,-3.4429,-3.3214,-3.2976,-3.274,-3.2326,-3.2289,-3.235,-3.247,-3.2813,-3.3034,-3.3175,-3.3417,-3.3719,-3.388,-3.394,-3.388,-3.3819,-3.3659,-3.3196,-3.2632,-3.3153,-3.3615,-3.3937,-3.4056,-3.4157,-3.424,-3.4652,-3.4879,-3.494,-3.5211,-3.5418,-3.5418,-3.5418,-3.5418,-3.5418,-3.5418,-3.5479,-3.5726,-3.587,-3.5972,-3.6239,-3.6484,-3.6914,-3.7019,-3.7036,-3.7093,-3.7253,-3.7314,-3.7527,-3.7772,-3.792,-3.7841,-3.7447,-3.7675,-3.771,-3.7201,-3.7193,-3.7374,-3.7374,-3.744,-3.7636,-3.7898,-3.7811,-3.7876,-3.8575,-3.8554,-3.8575,-3.9382,-3.9688,-3.958,-3.6897,-3.6842,-3.7183,-3.711,-3.6905,-3.7949,-3.8557,-3.8846,-3.7778,-3.7239,-3.7215,-3.7566,-3.7719,-3.7719,-3.8087,-3.8335,-3.8396,-3.8396,-3.8436,-3.8516,-3.9251,-3.9575,-3.9666,-4.0359,-4.0708,-4.0779,-4.0351,-4.0443,-4.0666,-3.9971,-3.995,-4.0522,-4.0294,-4.0315,-4.0595,-4.0554,-4.0256,-3.9663,-3.7252,-3.6363,-3.7126,-3.5812,-3.5225,-3.5414,-3.4817,-3.426,-3.3995,-3.3309,-3.2878,-3.2799,-3.271,-3.2933,-3.3536,-3.3882,-3.435,-3.4944,-3.5047,-3.5108,-3.517,-3.517,-3.5047,-3.4738,-3.4676,-3.4084,-3.2834,-3.3035,-3.3276,-3.3455,-3.3984,-3.4391,-3.4738,-3.5088,-3.5293,-3.5314,-3.5376,-3.5418,-3.5418,-3.5418,-3.5418,-3.5418,-3.5418,-3.5418,-3.5562,-3.5788,-3.5972,-3.6055,-3.6465,-3.6756,-3.732,-3.7392,-3.7357,-3.7374,-3.7374,-3.7297,-3.7284,-3.7323,-3.7406,-3.7079,-3.7323,-3.7505,-3.7335,-3.7314,-3.7396,-3.7396,-3.7702,-3.7855,-3.7702,-3.816,-3.8423,-3.851,-3.8838,-3.9404,-3.9644,-3.9951,-4.0105,-3.7918,-3.8175,-3.8385,-3.8595,-3.8906,-3.9622,-4.0048,-4.0238,-3.9871,-3.9301,-3.8604,-3.8748,-3.8755,-3.8755,-3.8983,-3.9196,-3.9421,-3.94,-3.9543,-3.9839,-4.0206,-4.0359,-4.038,-4.0494,-4.0668,-4.0882,-4.0525,-4.0648,-4.1214,-4.0884,-4.1028,-4.1565,-4.1172,-4.0924,-4.0862,-4.0655,-4.0427,-4.015,-3.8909,-3.8133,-3.7983,-3.7307,-3.6951,-3.691,-3.6572,-3.6249,-3.6006,-3.5622,-3.5177,-3.4629,-3.4613,-3.4615,-3.4677,-3.48,-3.5026,-3.5397,-3.5418,-3.5418,-3.5418,-3.5418,-3.5294,-3.517,-3.517,-3.482,-3.3983,-3.4024,-3.4227,-3.441,-3.4759,-3.5005,-3.5149,-3.5294,-3.5418,-3.5418,-3.5418,-3.5418,-3.5418,-3.5418,-3.5418,-3.5418,-3.5541,-3.5726,-3.5932,-3.6239,-3.6545,-3.6667,-3.7105,-3.7447,-3.7848,-3.8037,-3.8051,-3.7811,-3.7571,-3.7335,-3.7214,-3.7275,-3.7335,-3.7154,-3.7335,-3.7374,-3.7374,-3.7374,-3.7483,-3.7724,-3.7986,-3.8248,-3.8379,-3.8663,-3.8903,-3.934,-3.9318,-3.9688,-3.9951,-4.0148,-4.0257,-3.9249,-3.9567,-3.9567,-3.9988,-4.0658,-4.0933,-4.1137,-4.1286,-4.1534,-4.1068,-4.0126,-4.01,-4.0096,-4.0013,-3.9992,-4.0137,-4.0344,-4.0344,-4.053,-4.0862,-4.0882,-4.0882,-4.0882,-4.0596,-4.0596,-4.0832,-4.0699,-4.0946,-4.1545,-4.1669,-4.1908,-4.2115,-4.1731,-4.1338,-4.0882,-4.0551,-4.0386,-4.0386,-4.0365,-3.986,-3.8972,-3.8848,-3.8688,-3.8357,-3.8233,-3.8026,-3.7674,-3.755,-3.7156,-3.6473,-3.6328,-3.6101,-3.5749,-3.5728,-3.5728,-3.5728,-3.5728,-3.5687,-3.5583,-3.548,-3.5418,-3.5418,-3.5521,-3.5459,-3.5189,-3.5189,-3.521,-3.5252,-3.5273,-3.5356,-3.5356,-3.5418,-3.5418,-3.5418,-3.5418,-3.5418,-3.5418,-3.5418,-3.5418,-3.5479,-3.5747,-3.6034,-3.6361,-3.6667,-3.7036,-3.7493,-3.7964,-3.827,-3.8444,-3.8641,-3.8426,-3.8313,-3.7855,-3.7527,-3.7418,-3.7374,-3.7374,-3.7374,-3.7374,-3.7374,-3.7396,-3.744,-3.7658,-3.8008,-3.8313,-3.8619,-3.9209,-3.9318,-3.9406,-3.9821,-3.9885,-3.9929,-4.0148,-4.0323,-4.0344,-4.0374,-4.0412,-4.0431,-4.0621,-4.1075,-4.1073,-4.138,-4.1616,-4.1615,-4.1586,-4.1369,-4.1835,-4.171,-4.1421,-4.1317,-4.111,-4.08,-4.082,-4.082,-4.0862,-4.0882,-4.0882,-4.0882,-4.0882,-4.0882,-4.0924,-4.1255,-4.1483,-4.1628,-4.2021,-4.2073,-4.1742,-4.1586,-4.1338,-4.0924,-4.082,-4.08,-4.082,-4.082,-4.0386,-3.9447,-3.9061,-3.8765,-3.8724,-3.8398,-3.8171,-3.8088,-3.7715,-3.7467,-3.7343,-3.6949,-3.6722,-3.666,-3.666,-3.666,-3.666,-3.666,-3.6515,-3.608,-3.5666,-3.5459,-3.5459,-3.5832,-3.6059,-3.5976,-3.5976,-3.5664,-3.5231,-3.5252,-3.5418,-3.5418,-3.5418,-3.5418,-3.5418,-3.5418,-3.5418,-3.5418,-3.5418,-3.5479,-3.5809,-3.5974,-3.6055,-3.6508,-3.6857,-3.727,-3.7946,-3.8466,-3.8881,-3.9207,-3.8879,-3.851,-3.8619,-3.8357,-3.7876,-3.7505,-3.7374,-3.7374,-3.7374,-3.7374,-3.7396,-3.7483,-3.7767,-3.8095,-3.8357,-3.8816,-3.9209,-3.9274,-3.9471,-3.9952,-3.9842,-4.0038,-4.0279,-4.0344,-4.0344,-4.0344,-4.1168,-4.1629,-4.1629,-4.1871,-4.2159,-4.2181,-4.2125,-4.2027,-4.1989,-4.1979,-4.2073,-4.226,-4.1855,-4.1172,-4.1151,-4.1048,-4.0882,-4.0882,-4.0882,-4.0882,-4.0882,-4.0882,-4.0882,-4.0882,-4.0882,-4.0882,-4.1069,-4.1514,-4.2094,-4.2704,-4.2704,-4.2115,-4.2053,-4.1679,-4.0944,-4.0882,-4.0882,-4.0882,-4.0882,-4.0696,-4.0303,-3.955,-3.9055,-3.8765,-3.8419,-3.8191,-3.8171,-3.7984,-3.7777,-3.7508,-3.7301,-3.7094,-3.6825,-3.6804,-3.6804,-3.6804,-3.6804,-3.6722,-3.6535,-3.6328,-3.6246,-3.6246,-3.6411,-3.6515,-3.6494,-3.6266,-3.5955,-3.5664,-3.5459,-3.5418,-3.5438,-3.5418,-3.5418,-3.5418,-3.5418,-3.55,-3.5665,-3.5562,-3.5686,-3.6454,-3.662,-3.6871,-3.7417,-3.7814,-3.8149,-3.8513,-3.8947,-3.9425,-3.9557,-3.9618,-3.9547,-3.9195,-3.9077,-3.8574,-3.7692,-3.7374,-3.7374,-3.7374,-3.7374,-3.7418,-3.785,-3.792,-3.8248,-3.8816,-3.9338,-3.971,-3.9755,-3.9886,-4.0192,-4.0017,-4.0104,-4.0344,-4.0344,-4.0344,-4.0344,-4.2139,-4.2677,-4.2754,-4.2876,-4.3097,-4.2973,-4.2745,-4.2414,-4.2186,-4.2062,-4.2062,-4.1938,-4.1524,-4.0944,-4.1007,-4.1007,-4.0882,-4.0882,-4.0882,-4.0882,-4.0882,-4.0882,-4.0882,-4.0882,-4.0882,-4.0903,-4.1027,-4.1545,-4.2414,-4.3056,-4.3077,-4.2497,-4.2311,-4.1928,-4.1131,-4.0965,-4.0882,-4.0882,-4.0882,-4.0882,-4.0758,-4.0137,-3.9495,-3.8972,-3.8481,-3.8191,-3.8191,-3.8191,-3.8026,-3.7715,-3.7674,-3.7529,-3.7218,-3.7177,-3.7198,-3.7177,-3.7053,-3.6991,-3.6991,-3.6867,-3.6804,-3.6804,-3.6804,-3.6867,-3.6887,-3.6556,-3.639,-3.6473,-3.6059,-3.5769,-3.5438,-3.5418,-3.5418,-3.5418,-3.55,-3.5666,-3.5873,-3.5894,-3.6332,-3.7106,-3.7358,-3.7652,-3.831,-3.8714,-3.9012,-3.9078,-3.9555,-3.9926,-3.999,-4.0336,-4.0373,-3.9815,-3.9739,-3.9226,-3.7979,-3.7912,-3.7852,-3.7918,-3.8045,-3.8353,-3.8539,-3.8627,-3.8678,-3.9484,-3.9686,-3.9841,-3.9995,-4.0192,-4.0279,-4.0279,-4.0344,-4.0344,-4.0344,-4.0344,-4.0344,-4.3518,-4.3518,-4.3539,-4.3477,-4.3532,-4.3077,-4.287,-4.2642,-4.1938,-4.1586,-4.1545,-4.1172,-4.0924,-4.0903,-4.1276,-4.1276,-4.0924,-4.0882,-4.0882,-4.0882,-4.0882,-4.0882,-4.0882,-4.0882,-4.0882,-4.0903,-4.1234,-4.1897,-4.2766,-4.2911,-4.2932,-4.2828,-4.2414,-4.2053,-4.1483,-4.1048,-4.0882,-4.0882,-4.0882,-4.0882,-4.082,-4.0427,-3.9951,-3.9454,-3.8647,-3.8212,-3.8191,-3.8191,-3.8171,-3.815,-3.8129,-3.8109,-3.8088,-3.8088,-3.8067,-3.8046,-3.7695,-3.7467,-3.7405,-3.7115,-3.6887,-3.6846,-3.6929,-3.7011,-3.7384,-3.7053,-3.6949,-3.7343,-3.6887,-3.6328,-3.5666,-3.5583,-3.5604,-3.5625,-3.5915,-3.6122,-3.6143,-3.6792,-3.7339,-3.7763,-3.8122,-3.8462,-3.8777,-3.9231,-3.9535,-3.973,-4.023,-4.0688,-4.0686,-4.0698,-4.0643,-4.0464,-4.0168,-3.9523,-3.8672,-3.8602,-3.8908,-3.8975,-3.9076,-3.964,-3.9824,-3.9922,-4.0018,-4.0071,-4.023,-4.0321,-4.0301,-4.0344,-4.0279,-4.0344,-4.0344,-4.0344,-4.0344,-4.0344,-4.0344,-4.3159,-4.3201,-4.3491,-4.3284,-4.2745,-4.2559,-4.2166,-4.1607,-4.1276,-4.1131,-4.1089,-4.0944,-4.0882,-4.0882,-4.1048,-4.1027,-4.0882,-4.0882,-4.0882,-4.0882,-4.0882,-4.0882,-4.0882,-4.0882,-4.0882,-4.0903,-4.112,-4.1441,-4.2021,-4.2352,-4.2331,-4.2083,-4.1897,-4.1586,-4.1172,-4.0965,-4.0882,-4.0882,-4.0882,-4.0882,-4.0841,-4.0448,-4.0013,-3.9488,-3.8869,-3.8481,-3.8191,-3.8191,-3.8191,-3.8191,-3.8191,-3.8191,-3.8191,-3.8191,-3.8191,-3.8171,-3.8026,-3.7943,-3.7922,-3.7777,-3.7695,-3.7695,-3.7695,-3.7695,-3.7819,-3.7529,-3.7322,-3.7384,-3.7074,-3.6618,-3.6495,-3.6498,-3.675,-3.696,-3.715,-3.7319,-3.7445,-3.7657,-3.7997,-3.8807,-3.9345,-3.9626,-3.9669,-3.9908,-4.0125,-4.034,-4.0602,-4.0884,-4.11,-4.1242,-4.123,-4.1022,-4.0921,-4.0767,-4.0068,-3.9679,-3.9652,-3.9674,-3.9769,-4.0016,-4.0262,-4.0419,-4.0472,-4.0721,-4.0839,-4.0755,-4.0734,-4.0474,-4.0474,-4.0409,-4.0409,-4.0409,-4.0344,-4.0344,-4.0344,-4.3139,-4.3201,-4.3491,-4.3263,-4.2704,-4.2518,-4.2042,-4.1338,-4.1172,-4.1027,-4.0903,-4.0882,-4.0882,-4.0882,-4.0882,-4.0882,-4.0882,-4.0882,-4.0882,-4.0882,-4.0882,-4.0882,-4.0882,-4.0882,-4.0882,-4.0882,-4.0882,-4.111,-4.1617,-4.197,-4.1938,-4.1887,-4.1721,-4.1421,-4.1131,-4.0965,-4.0882,-4.0882,-4.0882,-4.0954,-4.0983,-4.0663,-4.029,-3.9924,-3.9592,-3.9119,-3.8433,-3.8437,-3.8437,-3.837,-3.837,-3.8304,-3.8191,-3.8191,-3.8191,-3.8191,-3.8191,-3.8191,-3.8191,-3.8191,-3.8171,-3.8171,-3.8026,-3.8005,-3.8109,-3.7777,-3.7612,-3.7591,-3.7598,-3.7434,-3.7628,-3.7887,-3.7975,-3.7869,-3.7954,-3.8167,-3.8358,-3.8445,-3.8937,-3.9605,-4.0017,-4.0236,-4.0344,-4.0388,-4.056,-4.0777,-4.0971,-4.1229,-4.1421,-4.1742,-4.1865,-4.1587,-4.1668,-4.1633,-4.1273,-4.1001,-4.0632,-4.061,-4.0683,-4.0801,-4.0828,-4.0964,-4.1035,-4.1287,-4.1357,-4.1164,-4.0971,-4.0777,-4.0669,-4.0604,-4.0539,-4.0582,-4.0453,-4.0344,-4.0409,-4.3573,-4.3532,-4.3615,-4.3553,-4.3366,-4.3014,-4.2642,-4.2124,-4.1825,-4.1338,-4.1007,-4.0924,-4.0944,-4.0882,-4.0882,-4.0882,-4.0882,-4.0882,-4.0882,-4.0882,-4.0882,-4.0882,-4.0882,-4.0882,-4.0882,-4.0882,-4.0882,-4.111,-4.1503,-4.1545,-4.1804,-4.2021,-4.1762,-4.1534,-4.1597,-4.1161,-4.0954,-4.1025,-4.1025,-4.1167,-4.1402,-4.1126,-4.0876,-4.078,-4.0766,-4.0156,-3.8895,-3.9075,-3.9009,-3.8747,-3.8723,-3.857,-3.8366,-3.8345,-3.8258,-3.8325,-3.8258,-3.8258,-3.8237,-3.8325,-3.8325,-3.8283,-3.7864,-3.793,-3.8179,-3.7885,-3.7781,-3.8204,-3.8399,-3.8663,-3.8972,-3.9279,-3.9001,-3.7762,-3.823,-3.8637,-3.8787,-3.9238,-3.9866,-4.017,-4.0323,-4.0344,-4.0409,-4.0582,-4.0841,-4.1035,-4.1357,-4.1742,-4.1806,-4.2061,-4.2252,-4.2229,-4.2138,-4.2,-4.2178,-4.2206,-4.1908,-4.1702,-4.1822,-4.1942,-4.1747,-4.1729,-4.1579,-4.1742,-4.155,-4.1357,-4.1357,-4.1164,-4.11,-4.1035,-4.0906,-4.0777,-4.0777,-4.0669,-4.0474,-4.3139,-4.318,-4.3491,-4.3428,-4.3139,-4.2973,-4.2663,-4.2343,-4.2156,-4.1793,-4.14,-4.1358,-4.1172,-4.0924,-4.0882,-4.0882,-4.0882,-4.0882,-4.0882,-4.0882,-4.0882,-4.0882,-4.0882,-4.0882,-4.0882,-4.0882,-4.0882,-4.0944,-4.1069,-4.111,-4.1172,-4.1234,-4.1244,-4.1253,-4.1561,-4.1393,-4.1381,-4.1664,-4.1664,-4.1735,-4.1806,-4.1735,-4.1503,-4.1241,-4.1407,-4.116,-4.0433,-3.9936,-3.9484,-3.912,-3.9329,-3.9432,-3.9323,-3.907,-3.8901,-3.888,-3.8901,-3.8901,-3.8901,-3.8835,-3.8835,-3.888,-3.8753,-3.8753,-3.8793,-3.8555,-3.8447,-3.8747,-3.8814,-3.8814,-3.9144,-3.9494,-3.9519,-3.939,-3.9563,-3.9693,-3.9628,-3.991,-4.0127,-4.0279,-4.0517,-4.0647,-4.0712,-4.0906,-4.1229,-4.1421,-4.1678,-4.187,-4.2061,-4.2189,-4.2275,-4.2275,-4.2275,-4.2275,-4.2275,-4.2275,-4.2178,-4.2017,-4.2201,-4.2275,-4.2275,-4.2212,-4.2125,-4.1998,-4.1806,-4.1678,-4.1614,-4.155,-4.1486,-4.1357,-4.1229,-4.1164,-4.1122,-4.0993,-4.0799,-4.318,-4.3201,-4.3491,-4.3449,-4.318,-4.318,-4.2911,-4.2538,-4.2497,-4.2145,-4.1648,-4.1565,-4.1317,-4.0944,-4.0882,-4.0882,-4.0882,-4.0882,-4.1025,-4.1096,-4.0954,-4.0882,-4.0954,-4.1096,-4.1025,-4.0995,-4.1191,-4.117,-4.0882,-4.1191,-4.1263,-4.1209,-4.1239,-4.1452,-4.1686,-4.1686,-4.1806,-4.1947,-4.2018,-4.2067,-4.2159,-4.2089,-4.1939,-4.1823,-4.1989,-4.1913,-4.146,-4.0918,-4.0289,-3.9771,-3.968,-3.9656,-3.9635,-3.9314,-3.921,-3.921,-3.921,-3.9144,-3.921,-3.9144,-3.921,-3.921,-3.921,-3.921,-3.9144,-3.8946,-3.9012,-3.9078,-3.9144,-3.9165,-3.9407,-3.9691,-4.0018,-4.0279,-4.0257,-4.0344,-4.0344,-4.0344,-4.0409,-4.0453,-4.0647,-4.0841,-4.1035,-4.1293,-4.155,-4.1742,-4.1934,-4.1998,-4.2275,-4.2275,-4.2275,-4.2275,-4.2275,-4.2275,-4.2275,-4.2275,-4.2275,-4.2293,-4.2293,-4.2275,-4.2275,-4.2275,-4.2212,-4.2212,-4.202,-4.202,-4.1956,-4.1893,-4.1829,-4.1614,-4.155,-4.1486,-4.1486,-4.1315,-4.1122,-4.3594,-4.3615,-4.3615,-4.3594,-4.3573,-4.3573,-4.3346,-4.2994,-4.2952,-4.2476,-4.1772,-4.1669,-4.1358,-4.0965,-4.0954,-4.1025,-4.0954,-4.1025,-4.1239,-4.1402,-4.1239,-4.1096,-4.1096,-4.1381,-4.1402,-4.123,-4.1686,-4.1665,-4.1117,-4.1644,-4.1913,-4.1586,-4.1806,-4.2018,-4.2018,-4.2018,-4.2089,-4.2159,-4.2159,-4.23,-4.2581,-4.23,-4.2278,-4.2608,-4.2586,-4.2414,-4.2072,-4.1801,-4.1301,-4.0578,-3.9923,-3.9661,-3.9467,-3.9403,-3.9512,-3.9469,-3.9339,-3.9384,-3.9318,-3.9407,-3.9341,-3.9407,-3.9341,-3.9276,-3.9341,-3.9276,-3.9276,-3.9407,-3.9494,-3.9691,-3.9757,-4.0018,-4.0279,-4.0279,-4.0344,-4.0344,-4.0344,-4.0344,-4.0453,-4.0712,-4.0841,-4.0971,-4.1293,-4.1614,-4.1806,-4.187,-4.2061,-4.2212,-4.2275,-4.2275,-4.2275,-4.2275,-4.2275,-4.2275,-4.2275,-4.2275,-4.2275,-4.2275,-4.2275,-4.2275,-4.2275,-4.2275,-4.2275,-4.2275,-4.2275,-4.2275,-4.2212,-4.2148,-4.2084,-4.2084,-4.1934,-4.187,-4.1742,-4.1637,-4.1508,-4.3615,-4.3615,-4.3615,-4.3615,-4.3615,-4.3615,-4.3553,-4.3428,-4.3408,-4.289,-4.2207,-4.2156,-4.1679,-4.0995,-4.1239,-4.1331,-4.1402,-4.1594,-4.1735,-4.1806,-4.1806,-4.1714,-4.1735,-4.1806,-4.1806,-4.1756,-4.1975,-4.1912,-4.1735,-4.1975,-4.2046,-4.1898,-4.2061,-4.2251,-4.237,-4.2484,-4.2581,-4.2813,-4.2883,-4.2905,-4.2953,-4.2953,-4.2953,-4.3023,-4.3023,-4.2958,-4.2805,-4.2417,-4.2005,-4.1412,-4.1192,-4.1234,-4.1318,-4.1101,-4.0755,-4.0495,-4.0451,-4.0366,-4.0083,-4.0018,-4.0018,-4.0018,-3.9953,-4.0018,-3.9997,-3.9757,-3.9757,-3.9888,-3.9888,-3.9822,-4.0084,-4.0214,-4.0279,-4.0344,-4.0344,-4.0344,-4.0344,-4.0517,-4.0712,-4.0841,-4.1229,-4.1486,-4.1678,-4.1934,-4.2148,-4.2125,-4.2212,-4.2275,-4.2275,-4.2275,-4.2275,-4.2275,-4.2275,-4.2275,-4.2275,-4.2275,-4.2275,-4.2275,-4.2275,-4.2275,-4.2275,-4.2275,-4.2275,-4.2275,-4.2275,-4.2275,-4.2275,-4.2212,-4.2275,-4.2275,-4.2212,-4.2061,-4.2125,-4.2084,-4.187,-4.3615,-4.3615,-4.3615,-4.3615,-4.3615,-4.3615,-4.3615,-4.3615,-4.3594,-4.3097,-4.2488,-4.247,-4.197,-4.123,-4.1544,-4.1686,-4.1756,-4.1877,-4.2067,-4.23,-4.2441,-4.23,-4.2159,-4.2229,-4.2441,-4.2321,-4.2634,-4.2649,-4.26,-4.2507,-4.2614,-4.2835,-4.2827,-4.304,-4.3441,-4.3447,-4.3409,-4.3512,-4.3468,-4.3403,-4.3206,-4.3184,-4.3184,-4.3184,-4.3163,-4.3119,-4.2879,-4.2769,-4.2507,-4.207,-4.183,-4.183,-4.2049,-4.1852,-4.1481,-4.1044,-4.1,-4.0782,-4.041,-4.0344,-4.0344,-4.0279,-4.0344,-4.0344,-4.0279,-4.0084,-4.0084,-4.0214,-4.0084,-4.0084,-4.0214,-4.0344,-4.0344,-4.0344,-4.0409,-4.0517,-4.0517,-4.0712,-4.0971,-4.1229,-4.155,-4.187,-4.1998,-4.2212,-4.2275,-4.2275,-4.2275,-4.2275,-4.2275,-4.2275,-4.2275,-4.2275,-4.2275,-4.2275,-4.2275,-4.2275,-4.2275,-4.2275,-4.2275,-4.2275,-4.2275,-4.2275,-4.2275,-4.2275,-4.2275,-4.2275,-4.2275,-4.2275,-4.2275,-4.2275,-4.2275,-4.2275,-4.2275,-4.2275,-4.2125,-4.3615,-4.3615,-4.3615,-4.3615,-4.3615,-4.3615,-4.3615,-4.3615,-4.3615,-4.3097,-4.2562,-4.2711,-4.2312,-4.1565,-4.1877,-4.2089,-4.2089,-4.2229,-4.237,-4.2651,-4.2883,-4.2856,-4.252,-4.2894,-4.3013,-4.2938,-4.3545,-4.3599,-4.35,-4.3429,-4.3645,-4.3846,-4.3937,-4.4167,-4.427,-4.4423,-4.432,-4.3993,-4.3889,-4.3643,-4.3359,-4.325,-4.3184,-4.3184,-4.3184,-4.301,-4.2835,-4.2879,-4.2922,-4.2507,-4.207,-4.1983,-4.1939,-4.1874,-4.1546,-4.1197,-4.1044,-4.0782,-4.0388,-4.0344,-4.0344,-4.0344,-4.0344,-4.0344,-4.0279,-4.0279,-4.0279,-4.0279,-4.0344,-4.0279,-4.0279,-4.0344,-4.0344,-4.0409,-4.0647,-4.0777,-4.0906,-4.0906,-4.1164,-4.1655,-4.1783,-4.1998,-4.2212,-4.2275,-4.2275,-4.2275,-4.2275,-4.2275,-4.2275,-4.2275,-4.2275,-4.2275,-4.2275,-4.2275,-4.2275,-4.2275,-4.2275,-4.2275,-4.2275,-4.2275,-4.2275,-4.2275,-4.2275,-4.2275,-4.2275,-4.2275,-4.2275,-4.2275,-4.2275,-4.2275,-4.2275,-4.2275,-4.2275,-4.2275,-4.2189,-4.3615,-4.3615,-4.3615,-4.3615,-4.3615,-4.3615,-4.3615,-4.3615,-4.3615,-4.3302,-4.2857,-4.2785,-4.2436,-4.1947,-4.23,-4.2441,-4.2511,-4.2721,-4.3045,-4.3023,-4.3093,-4.3333,-4.3409,-4.3638,-4.3638,-4.3747,-4.414,-4.4336,-4.4286,-4.4264,-4.4351,-4.451,-4.451,-4.4495,-4.4626,-4.4713,-4.4561,-4.4386,-4.408,-4.3911,-4.3714,-4.3337,-4.3184,-4.3184,-4.3184,-4.3141,-4.3075,-4.3119,-4.3119,-4.301,-4.2879,-4.2726,-4.2638,-4.2398,-4.1983,-4.1524,-4.1175,-4.0804,-4.041,-4.0323,-4.0301,-4.0323,-4.0301,-4.0344,-4.0344,-4.0344,-4.0344,-4.0344,-4.0344,-4.0344,-4.0344,-4.0344,-4.0474,-4.0647,-4.0841,-4.1013,-4.1399,-4.155,-4.1614,-4.1806,-4.2061,-4.2212,-4.2275,-4.2275,-4.2275,-4.2275,-4.2275,-4.2275,-4.2275,-4.2275,-4.2275,-4.2275,-4.2275,-4.2275,-4.2275,-4.2275,-4.2275,-4.2275,-4.2275,-4.2275,-4.2275,-4.2275,-4.2275,-4.2275,-4.2275,-4.2275,-4.2275,-4.2275,-4.2275,-4.2275,-4.2275,-4.2275,-4.2275,-4.2275,-4.2275,-4.3691,-4.3843,-4.3919,-4.3974,-4.4146,-4.4125,-4.4201,-4.4084,-4.3895,-4.3583,-4.312,-4.3085,-4.2749,-4.2321,-4.2651,-4.2883,-4.2953,-4.3093,-4.3184,-4.3228,-4.3381,-4.3643,-4.3927,-4.437,-4.4523,-4.4513,-4.4717,-4.4958,-4.504,-4.4851,-4.4801,-4.5194,-4.5041,-4.5107,-4.5238,-4.5216,-4.515,-4.4866,-4.4451,-4.4124,-4.384,-4.3425,-4.3184,-4.3184,-4.3184,-4.3184,-4.3163,-4.3184,-4.3184,-4.3184,-4.3184,-4.3053,-4.2835,-4.2551,-4.2092,-4.1459,-4.1415,-4.1087,-4.076,-4.0629,-4.0629,-4.0607,-4.0432,-4.0301,-4.0344,-4.0344,-4.0344,-4.0344,-4.0344,-4.0344,-4.0517,-4.0517,-4.0712,-4.0971,-4.1164,-4.1421,-4.1742,-4.1806,-4.187,-4.1998,-4.2212,-4.2275,-4.2275,-4.2275,-4.2275,-4.2275,-4.2275,-4.2275,-4.2275,-4.2275,-4.2275,-4.2275,-4.2275,-4.2275,-4.2275,-4.2275,-4.2275,-4.2275,-4.2275,-4.2275,-4.2275,-4.2275,-4.2275,-4.2275,-4.2275,-4.2275,-4.2275,-4.2275,-4.2275,-4.2275,-4.2275,-4.2275,-4.2275,-4.2275,-4.2275,-4.3995,-4.4277,-4.4277,-4.4504,-4.4805,-4.4805,-4.473,-4.4666,-4.4337,-4.3838,-4.3547,-4.3365,-4.3006,-4.2808,-4.3023,-4.3206,-4.3294,-4.3316,-4.3359,-4.3473,-4.3643,-4.3883,-4.4167,-4.4786,-4.5231,-4.5213,-4.5251,-4.5471,-4.553,-4.5303,-4.5281,-4.5806,-4.5631,-4.5565,-4.5893,-4.5959,-4.574,-4.5391,-4.4954,-4.4473,-4.4036,-4.3578,-4.3337,-4.3184,-4.3184,-4.3184,-4.3184,-4.3184,-4.3184,-4.3184,-4.3184,-4.29,-4.2551,-4.2376,-4.2136,-4.1306,-4.1546,-4.1437,-4.1197,-4.1109,-4.1109,-4.1087,-4.0782,-4.0629,-4.0694,-4.0804,-4.0782,-4.0671,-4.0692,-4.0647,-4.0841,-4.0906,-4.1035,-4.1293,-4.1614,-4.1806,-4.187,-4.187,-4.1998,-4.2212,-4.2275,-4.2275,-4.2275,-4.2275,-4.2275,-4.2275,-4.2275,-4.2275,-4.2275,-4.2339,-4.2339,-4.2402,-4.2402,-4.2633,-4.2633,-4.2633,-4.257,-4.2402,-4.2402,-4.2339,-4.2339,-4.2275,-4.2275,-4.2275,-4.2275,-4.2275,-4.2275,-4.2275,-4.2275,-4.2275,-4.2275,-4.2275,-4.2275,-4.2275,-4.2275,-4.4654,-4.473,-4.473,-4.473,-4.4805,-4.4805,-4.488,-4.4741,-4.4316,-4.4016,-4.3837,-4.3486,-4.3225,-4.3132,-4.3115,-4.3381,-4.3687,-4.3709,-4.3709,-4.3752,-4.3949,-4.4124,-4.4561,-4.5085,-4.5456,-4.5792,-4.5844,-4.5866,-4.5954,-4.5828,-4.5836,-4.5937,-4.5893,-4.6011,-4.5959,-4.6002,-4.5959,-4.5762,-4.5347,-4.4888,-4.4408,-4.3883,-4.3468,-4.3228,-4.3184,-4.3184,-4.3184,-4.3184,-4.3184,-4.3184,-4.3184,-4.29,-4.2595,-4.2464,-4.2311,-4.2049,-4.183,-4.1699,-4.1679,-4.1635,-4.1568,-4.1568,-4.1482,-4.1616,-4.1816,-4.1883,-4.1772,-4.1615,-4.1347,-4.1231,-4.1187,-4.134,-4.138,-4.1637,-4.1806,-4.1934,-4.2148,-4.2212,-4.2189,-4.2275,-4.2275,-4.2275,-4.2275,-4.2275,-4.2275,-4.2275,-4.2275,-4.2275,-4.2275,-4.2339,-4.2339,-4.2466,-4.257,-4.2886,-4.3137,-4.3012,-4.2949,-4.2633,-4.2529,-4.2402,-4.2402,-4.2339,-4.2275,-4.2275,-4.2275,-4.2275,-4.2275,-4.2275,-4.2275,-4.2275,-4.2275,-4.2275,-4.2275,-4.2275,-4.2275,-4.488,-4.5106,-4.5106,-4.5256,-4.5405,-4.5405,-4.5405,-4.5298,-4.4672,-4.4292,-4.407,-4.3577,-4.3262,-4.3272,-4.3447,-4.3796,-4.408,-4.402,-4.4086,-4.4189,-4.4495,-4.4692,-4.4997,-4.5434,-4.574,-4.5937,-4.6002,-4.6002,-4.6002,-4.6225,-4.6151,-4.6077,-4.6151,-4.6225,-4.6002,-4.6002,-4.6002,-4.5893,-4.5544,-4.5085,-4.4561,-4.3927,-4.3403,-4.325,-4.3184,-4.3184,-4.3184,-4.3184,-4.3184,-4.3184,-4.3184,-4.3032,-4.2879,-4.2748,-4.2573,-4.218,-4.207,-4.2206,-4.2342,-4.241,-4.2478,-4.2569,-4.2414,-4.2326,-4.246,-4.2549,-4.2571,-4.2458,-4.2301,-4.2143,-4.2361,-4.2091,-4.2172,-4.2362,-4.2244,-4.2171,-4.2275,-4.2275,-4.2275,-4.2275,-4.2275,-4.2275,-4.2275,-4.2275,-4.2275,-4.2275,-4.2275,-4.2275,-4.2275,-4.2339,-4.2339,-4.2656,-4.2759,-4.2949,-4.32,-4.32,-4.3137,-4.2886,-4.2696,-4.2593,-4.2402,-4.2339,-4.2275,-4.2275,-4.2275,-4.2275,-4.2275,-4.2275,-4.2275,-4.2275,-4.2275,-4.2275,-4.2275,-4.2275,-4.2275,-4.5256,-4.5555,-4.5555,-4.5704,-4.5928,-4.6002,-4.5937,-4.5696,-4.4976,-4.4539,-4.432,-4.3599,-4.3206,-4.3337,-4.3752,-4.4211,-4.4561,-4.4233,-4.4451,-4.4735,-4.5041,-4.5281,-4.5434,-4.574,-4.598,-4.598,-4.6002,-4.6002,-4.6002,-4.6225,-4.6225,-4.6151,-4.6374,-4.6374,-4.6077,-4.6002,-4.6002,-4.5893,-4.5675,-4.5194,-4.4517,-4.3796,-4.325,-4.3184,-4.3184,-4.3184,-4.3184,-4.3184,-4.3184,-4.3184,-4.3184,-4.3163,-4.3184,-4.3184,-4.2813,-4.2223,-4.2445,-4.2804,-4.3122,-4.3259,-4.3305,-4.3487,-4.3309,-4.3153,-4.3219,-4.3331,-4.3241,-4.3129,-4.3015,-4.308,-4.3165,-4.3049,-4.2951,-4.2875,-4.2665,-4.239,-4.2298,-4.2275,-4.2275,-4.2275,-4.2275,-4.2275,-4.2275,-4.2275,-4.2275,-4.2275,-4.2275,-4.2275,-4.2275,-4.2275,-4.2402,-4.2759,-4.3012,-4.3012,-4.32,-4.3263,-4.3137,-4.2949,-4.2822,-4.2696,-4.2506,-4.2339,-4.2339,-4.2339,-4.2275,-4.2275,-4.2275,-4.2275,-4.2275,-4.2275,-4.2275,-4.2275,-4.2275,-4.2275,-4.2275,-4.5853,-4.5928,-4.5928,-4.6002,-4.6002,-4.6002,-4.5762,-4.5369,-4.4845,-4.4342,-4.3971,-4.3447,-4.3184,-4.3381,-4.4036,-4.4451,-4.4648,-4.4779,-4.4932,-4.5129,-4.526,-4.5347,-4.5412,-4.5784,-4.598,-4.6002,-4.6002,-4.6002,-4.6077,-4.6151,-4.6151,-4.6077,-4.6225,-4.6077,-4.6077,-4.6151,-4.6002,-4.598,-4.5915,-4.5434,-4.4648,-4.4014,-4.3534,-4.3272,-4.3184,-4.3184,-4.3184,-4.3184,-4.3184,-4.3184,-4.3184,-4.3184,-4.3184,-4.3184,-4.3163,-4.3171,-4.3331,-4.37,-4.4001,-4.4025,-4.4071,-4.4208,-4.4118,-4.4254,-4.4256,-4.4277,-4.4252,-4.4363,-4.3976,-4.3794,-4.3883,-4.3742,-4.351,-4.3303,-4.3119,-4.2798,-4.2591,-4.2729,-4.2683,-4.25,-4.2545,-4.2431,-4.2362,-4.2339,-4.2275,-4.2275,-4.2275,-4.2275,-4.2339,-4.2339,-4.2466,-4.2822,-4.3137,-4.3263,-4.32,-4.3326,-4.3263,-4.3075,-4.3012,-4.2886,-4.2633,-4.2466,-4.2339,-4.2339,-4.2339,-4.2275,-4.2275,-4.2275,-4.2275,-4.2275,-4.2275,-4.2275,-4.2275,-4.2275,-4.2275,-4.6002,-4.6002,-4.6002,-4.6002,-4.6002,-4.6002,-4.574,-4.5281,-4.4801,-4.432,-4.384,-4.3381,-4.3316,-4.3626,-4.3818,-4.408,-4.4451,-4.4604,-4.4866,-4.5281,-4.5369,-4.5456,-4.5718,-4.5893,-4.6002,-4.6002,-4.6002,-4.6002,-4.6077,-4.6374,-4.6596,-4.6374,-4.6743,-4.6817,-4.6299,-4.6522,-4.6374,-4.5998,-4.5478,-4.4997,-4.4517,-4.3905,-4.3403,-4.3184,-4.3184,-4.3184,-4.3184,-4.3184,-4.3184,-4.3184,-4.3184,-4.3184,-4.3184,-4.3254,-4.3232,-4.3511,-4.3628,-4.3905,-4.425,-4.448,-4.4663,-4.4869,-4.4869,-4.496,-4.5096,-4.5095,-4.5025,-4.5025,-4.4841,-4.4681,-4.4566,-4.4405,-4.4199,-4.3946,-4.3625,-4.3372,-4.3165,-4.3188,-4.3211,-4.2959,-4.2729,-4.2614,-4.2454,-4.2298,-4.2275,-4.2275,-4.2275,-4.2275,-4.2402,-4.2529,-4.2633,-4.2886,-4.32,-4.3389,-4.3389,-4.3389,-4.3349,-4.32,-4.32,-4.3075,-4.2759,-4.257,-4.2506,-4.2402,-4.2339,-4.2339,-4.2339,-4.2275,-4.2275,-4.2275,-4.2275,-4.2275,-4.2275,-4.2275,-4.2275,-4.5828,-4.5828,-4.5959,-4.6002,-4.6002,-4.6002,-4.574,-4.5281,-4.4801,-4.432,-4.384,-4.3403,-4.3381,-4.3692,-4.3556,-4.3905,-4.4561,-4.432,-4.4757,-4.526,-4.5522,-4.5696,-4.5871,-4.6002,-4.6002,-4.6002,-4.6002,-4.6002,-4.6225,-4.6522,-4.6743,-4.6522,-4.6743,-4.6817,-4.667,-4.6522,-4.6448,-4.6033,-4.5434,-4.4976,-4.4539,-4.3971,-4.3512,-4.3272,-4.3184,-4.3184,-4.3184,-4.3184,-4.3184,-4.3184,-4.3184,-4.3254,-4.3302,-4.3302,-4.3441,-4.365,-4.3858,-4.3974,-4.4319,-4.4663,-4.4937,-4.5142,-4.537,-4.5301,-4.537,-4.5438,-4.5438,-4.5369,-4.5346,-4.5346,-4.5346,-4.4956,-4.4704,-4.4451,-4.4199,-4.4015,-4.3831,-4.3739,-4.3602,-4.3349,-4.3096,-4.2844,-4.2683,-4.239,-4.2298,-4.2275,-4.2275,-4.2275,-4.2425,-4.2639,-4.2968,-4.3165,-4.3652,-4.3859,-4.3671,-4.3624,-4.349,-4.3412,-4.3412,-4.3263,-4.3012,-4.2886,-4.2822,-4.2633,-4.2466,-4.2339,-4.2402,-4.2339,-4.2275,-4.2275,-4.2275,-4.2275,-4.2275,-4.2275,-4.2275,-4.5369,-4.5391,-4.5806,-4.5959,-4.598,-4.6002,-4.5718,-4.5281,-4.4801,-4.4298,-4.3774,-4.3403,-4.3206,-4.3316,-4.367,-4.3949,-4.4539,-4.5019,-4.526,-4.5587,-4.5937,-4.5849,-4.5959,-4.6002,-4.6002,-4.6002,-4.6002,-4.6002,-4.6077,-4.6374,-4.6374,-4.6151,-4.6522,-4.6225,-4.6151,-4.6299,-4.6299,-4.6055,-4.577,-4.5238,-4.4779,-4.4298,-4.3949,-4.3316,-4.3184,-4.3184,-4.3254,-4.3254,-4.3324,-4.3324,-4.3394,-4.3441,-4.358,-4.3441,-4.365,-4.3997,-4.3927,-4.4112,-4.4457,-4.4732,-4.48,-4.4937,-4.5142,-4.5438,-4.5438,-4.5438,-4.5438,-4.5438,-4.5438,-4.5438,-4.5415,-4.5346,-4.5025,-4.4841,-4.4612,-4.4474,-4.4267,-4.4107,-4.3946,-4.3716,-4.351,-4.3303,-4.2913,-4.2683,-4.2344,-4.2321,-4.2275,-4.2275,-4.2563,-4.276,-4.3229,-4.363,-4.422,-4.4325,-4.4125,-4.3984,-4.3923,-4.375,-4.3608,-4.3498,-4.3326,-4.32,-4.3137,-4.2886,-4.2696,-4.257,-4.2402,-4.2339,-4.2339,-4.2339,-4.2275,-4.2275,-4.2275,-4.2275,-4.2275,-4.4866,-4.4888,-4.5063,-4.5303,-4.5587,-4.5587,-4.5478,-4.526,-4.4801,-4.4146,-4.3447,-4.325,-4.3184,-4.325,-4.3316,-4.3534,-4.3731,-4.3883,-4.4517,-4.4932,-4.515,-4.5478,-4.5718,-4.6002,-4.6002,-4.6002,-4.6002,-4.6002,-4.6002,-4.6225,-4.6151,-4.6151,-4.6448,-4.6522,-4.6448,-4.6151,-4.6151,-4.6137,-4.5866,-4.5238,-4.4713,-4.4233,-4.384,-4.3272,-4.3184,-4.3324,-4.3441,-4.3511,-4.365,-4.3811,-4.388,-4.395,-4.3997,-4.3858,-4.3997,-4.4273,-4.4135,-4.425,-4.4526,-4.4732,-4.4869,-4.5142,-4.5301,-4.5438,-4.5438,-4.5438,-4.5438,-4.5438,-4.5438,-4.5438,-4.5438,-4.5415,-4.5255,-4.5117,-4.4979,-4.4841,-4.475,-4.4566,-4.4451,-4.4267,-4.4061,-4.3854,-4.3395,-4.2936,-4.2637,-4.2344,-4.2298,-4.2362,-4.2586,-4.2926,-4.3332,-4.3785,-4.4375,-4.4622,-4.4448,-4.436,-4.4333,-4.4112,-4.3828,-4.371,-4.3576,-4.3615,-4.349,-4.3263,-4.2949,-4.2759,-4.257,-4.2402,-4.2339,-4.2339,-4.2275,-4.2275,-4.2275,-4.2275,-4.2275,-4.4364,-4.4436,-4.4425,-4.4733,-4.5063,-4.5107,-4.5194,-4.5194,-4.4626,-4.3949,-4.3184,-4.3184,-4.3184,-4.3184,-4.3184,-4.3337,-4.3512,-4.3731,-4.4211,-4.4713,-4.5172,-4.5412,-4.5806,-4.6002,-4.6002,-4.6002,-4.6002,-4.6002,-4.6225,-4.6077,-4.6151,-4.6374,-4.667,-4.667,-4.6448,-4.6299,-4.6299,-4.6337,-4.6212,-4.5515,-4.5008,-4.4656,-4.4176,-4.3735,-4.358,-4.365,-4.3925,-4.4038,-4.413,-4.4246,-4.4385,-4.4454,-4.4387,-4.4411,-4.4411,-4.448,-4.448,-4.4411,-4.4594,-4.4732,-4.5006,-4.5301,-4.537,-4.5438,-4.5438,-4.5438,-4.5438,-4.5438,-4.5438,-4.5438,-4.5438,-4.5415,-4.5415,-4.53,-4.53,-4.5208,-4.5231,-4.5071,-4.4979,-4.4841,-4.4589,-4.4245,-4.3854,-4.3326,-4.2752,-4.25,-4.2298,-4.2298,-4.2477,-4.2908,-4.3479,-4.389,-4.4391,-4.4569,-4.4677,-4.4524,-4.4279,-4.4064,-4.3931,-4.3921,-4.3826,-4.3888,-4.3802,-4.3514,-4.3263,-4.3012,-4.2696,-4.2529,-4.2402,-4.2339,-4.2275,-4.2275,-4.2275,-4.2275,-4.2275,-4.3954,-4.396,-4.415,-4.4457,-4.4733,-4.4676,-4.4939,-4.5391,-4.4645,-4.3964,-4.3503,-4.3438,-4.3416,-4.3394,-4.3441,-4.3591,-4.3916,-4.4239,-4.467,-4.5129,-4.5434,-4.5849,-4.5959,-4.6002,-4.6002,-4.6002,-4.6002,-4.6151,-4.6448,-4.6225,-4.6299,-4.6374,-4.6596,-4.6596,-4.6151,-4.6448,-4.6596,-4.667,-4.692,-4.6435,-4.5694,-4.5404,-4.4913,-4.44,-4.4177,-4.4269,-4.4609,-4.4833,-4.488,-4.4862,-4.4952,-4.5069,-4.5026,-4.4616,-4.4777,-4.5234,-4.4708,-4.4754,-4.521,-4.5006,-4.5074,-4.537,-4.5438,-4.5438,-4.5438,-4.5438,-4.5438,-4.5438,-4.5438,-4.5438,-4.5438,-4.5438,-4.5438,-4.5438,-4.5438,-4.5438,-4.5438,-4.5438,-4.5209,-4.514,-4.4864,-4.4543,-4.4199,-4.3739,-4.2982,-4.2591,-4.2408,-4.2321,-4.2477,-4.2959,-4.3575,-4.3966,-4.4467,-4.479,-4.4877,-4.4569,-4.4282,-4.4115,-4.4033,-4.4111,-4.4022,-4.395,-4.3826,-4.3764,-4.3389,-4.2949,-4.2759,-4.2529,-4.2402,-4.2275,-4.2275,-4.2275,-4.2275,-4.2275,-4.2275,-4.4405,-4.4798,-4.4914,-4.4982,-4.5114,-4.536,-4.604,-4.6672,-4.6401,-4.5624,-4.4715,-4.486,-4.4865,-4.4547,-4.411,-4.4194,-4.4546,-4.4113,-4.4451,-4.5303,-4.5544,-4.574,-4.5893,-4.6002,-4.6002,-4.6002,-4.6002,-4.6077,-4.6151,-4.6299,-4.6225,-4.6299,-4.6596,-4.667,-4.6817,-4.6965,-4.6965,-4.7061,-4.7023,-4.6737,-4.5864,-4.5684,-4.5486,-4.4858,-4.4813,-4.5065,-4.5452,-4.5794,-4.5819,-4.5755,-4.5846,-4.5849,-4.5874,-4.5506,-4.5279,-4.5645,-4.5302,-4.5165,-4.5347,-4.5278,-4.5301,-4.537,-4.5438,-4.5438,-4.5438,-4.5438,-4.5438,-4.5438,-4.5438,-4.5438,-4.5438,-4.5438,-4.5438,-4.5438,-4.5438,-4.5438,-4.5438,-4.5438,-4.5369,-4.5278,-4.5117,-4.4819,-4.4497,-4.39,-4.3188,-4.2729,-4.2522,-4.2362,-4.2321,-4.3096,-4.3739,-4.4084,-4.4518,-4.4978,-4.5137,-4.4897,-4.4696,-4.4531,-4.4404,-4.4365,-4.4237,-4.3936,-4.3826,-4.3678,-4.3326,-4.2886,-4.2719,-4.2529,-4.2402,-4.2275,-4.2275,-4.2275,-4.2275,-4.2275,-4.2275,-4.4846,-4.5324,-4.5595,-4.5663,-4.5709,-4.576,-4.6241,-4.7023,-4.7229,-4.6649,-4.5868,-4.5805,-4.5898,-4.5576,-4.5232,-4.5183,-4.5565,-4.5106,-4.4926,-4.5691,-4.5595,-4.5762,-4.5937,-4.6002,-4.6002,-4.6002,-4.6151,-4.6299,-4.6522,-4.667,-4.6817,-4.6817,-4.6891,-4.7259,-4.7479,-4.7502,-4.7428,-4.7428,-4.7485,-4.7336,-4.6676,-4.6382,-4.6178,-4.5887,-4.5774,-4.5934,-4.6371,-4.6623,-4.6763,-4.6815,-4.6793,-4.6678,-4.6632,-4.638,-4.5967,-4.5967,-4.5668,-4.5415,-4.537,-4.5438,-4.537,-4.5438,-4.5438,-4.5438,-4.5438,-4.5438,-4.5438,-4.5438,-4.5438,-4.5438,-4.5438,-4.5438,-4.5438,-4.5438,-4.5438,-4.5438,-4.5438,-4.5438,-4.5438,-4.5415,-4.5392,-4.5025,-4.4704,-4.4015,-4.3326,-4.2982,-4.266,-4.2522,-4.2431,-4.3051,-4.3693,-4.3992,-4.4449,-4.4953,-4.5249,-4.5399,-4.5197,-4.5013,-4.4775,-4.4444,-4.4025,-4.3639,-4.3615,-4.3553,-4.3137,-4.2822,-4.2656,-4.2466,-4.2339,-4.2275,-4.2275,-4.2275,-4.2275,-4.2275,-4.2275,-4.5324,-4.546,-4.6136,-4.6429,-4.6338,-4.5891,-4.5874,-4.6265,-4.6841,-4.7026,-4.6957,-4.6081,-4.6357,-4.6773,-4.6427,-4.6472,-4.6746,-4.6563,-4.6451,-4.6385,-4.6257,-4.6137,-4.598,-4.6002,-4.6002,-4.6151,-4.6299,-4.6596,-4.7038,-4.7038,-4.7281,-4.7648,-4.7575,-4.7794,-4.7868,-4.7868,-4.7721,-4.7868,-4.7968,-4.7744,-4.7288,-4.7314,-4.7062,-4.6788,-4.679,-4.6859,-4.7158,-4.7365,-4.7296,-4.7321,-4.7321,-4.7229,-4.7092,-4.6885,-4.6541,-4.6104,-4.5576,-4.5507,-4.5438,-4.5438,-4.5438,-4.5438,-4.5438,-4.5438,-4.5438,-4.5438,-4.5438,-4.5438,-4.5438,-4.5438,-4.5438,-4.5438,-4.5438,-4.5438,-4.5438,-4.5438,-4.5438,-4.5438,-4.5438,-4.5438,-4.5438,-4.5163,-4.4819,-4.4222,-4.3693,-4.351,-4.3211,-4.2913,-4.2844,-4.2844,-4.3395,-4.3693,-4.4196,-4.4859,-4.5195,-4.5322,-4.5188,-4.4948,-4.46,-4.4278,-4.3797,-4.3451,-4.3389,-4.3263,-4.2949,-4.2696,-4.2529,-4.2402,-4.2339,-4.2275,-4.2275,-4.2275,-4.2275,-4.2275,-4.2275,-4.6405,-4.6898,-4.7098,-4.7165,-4.7213,-4.7345,-4.7388,-4.7492,-4.8496,-4.8708,-4.8193,-4.8471,-4.8327,-4.8418,-4.7792,-4.7866,-4.7818,-4.7622,-4.7178,-4.699,-4.6949,-4.65,-4.6225,-4.6077,-4.6002,-4.6151,-4.6374,-4.6743,-4.6817,-4.7061,-4.7648,-4.8086,-4.7941,-4.8013,-4.7941,-4.7868,-4.8013,-4.8109,-4.8328,-4.798,-4.7754,-4.764,-4.7479,-4.7411,-4.7413,-4.7528,-4.7849,-4.7987,-4.7964,-4.7987,-4.7712,-4.762,-4.7987,-4.7,-4.6127,-4.5668,-4.5484,-4.5438,-4.5438,-4.5438,-4.5529,-4.562,-4.5552,-4.5438,-4.5438,-4.5461,-4.5461,-4.5438,-4.5438,-4.5438,-4.5438,-4.5438,-4.5438,-4.5438,-4.5438,-4.5438,-4.5438,-4.5438,-4.5438,-4.5438,-4.5438,-4.5369,-4.4956,-4.4589,-4.4153,-4.4015,-4.3762,-4.3418,-4.3211,-4.3211,-4.3437,-4.3825,-4.4144,-4.4897,-4.4867,-4.4944,-4.4895,-4.4752,-4.4539,-4.4254,-4.3852,-4.349,-4.32,-4.2949,-4.2759,-4.2506,-4.2339,-4.2275,-4.2275,-4.2275,-4.2275,-4.2275,-4.2275,-4.2275,-4.2275,-4.7098,-4.7497,-4.7497,-4.7497,-4.7545,-4.7834,-4.7997,-4.8249,-4.9187,-4.9456,-4.9463,-4.9477,-4.9614,-4.9595,-4.9056,-4.8965,-4.9393,-4.8729,-4.8295,-4.8217,-4.7772,-4.7186,-4.6743,-4.6596,-4.6522,-4.6596,-4.6743,-4.7186,-4.7186,-4.7502,-4.8013,-4.8305,-4.8086,-4.7941,-4.7868,-4.8013,-4.8182,-4.8159,-4.8041,-4.7736,-4.7672,-4.763,-4.7653,-4.7774,-4.7846,-4.8125,-4.8331,-4.845,-4.8473,-4.8618,-4.8226,-4.8349,-4.8608,-4.7749,-4.7304,-4.7066,-4.6808,-4.6596,-4.6479,-4.662,-4.6576,-4.6464,-4.626,-4.6147,-4.5918,-4.5803,-4.5575,-4.5438,-4.5438,-4.5438,-4.5438,-4.5438,-4.5438,-4.5438,-4.5438,-4.5438,-4.5438,-4.5438,-4.5438,-4.5438,-4.5438,-4.5438,-4.5163,-4.4819,-4.4543,-4.4403,-4.4193,-4.3871,-4.3621,-4.3533,-4.3871,-4.4302,-4.4526,-4.4867,-4.4874,-4.4901,-4.4988,-4.492,-4.4642,-4.4334,-4.3906,-4.349,-4.32,-4.2886,-4.2506,-4.2402,-4.2339,-4.2339,-4.2275,-4.2275,-4.2275,-4.2275,-4.2275,-4.2275,-4.2275,-4.7497,-4.7497,-4.7497,-4.7497,-4.7497,-4.7545,-4.7834,-4.8315,-4.882,-4.9565,-5.0167,-4.9638,-4.9806,-5.0143,-4.9907,-5.005,-5.0102,-4.9771,-4.932,-4.9437,-4.8717,-4.8064,-4.7575,-4.7575,-4.7186,-4.7112,-4.7355,-4.7794,-4.8013,-4.8232,-4.8523,-4.845,-4.8523,-4.8377,-4.8159,-4.8305,-4.845,-4.8328,-4.8013,-4.7653,-4.7676,-4.7749,-4.7941,-4.7968,-4.8259,-4.8523,-4.8523,-4.8618,-4.8691,-4.8908,-4.9126,-4.9202,-4.9132,-4.8958,-4.8855,-4.8543,-4.8001,-4.7714,-4.7571,-4.7762,-4.8021,-4.7933,-4.7729,-4.7457,-4.7134,-4.6009,-4.5552,-4.5438,-4.5438,-4.5438,-4.5438,-4.5438,-4.5438,-4.5438,-4.5438,-4.5438,-4.5438,-4.5438,-4.5438,-4.5438,-4.5438,-4.5438,-4.5437,-4.5047,-4.5089,-4.4859,-4.483,-4.4573,-4.4282,-4.4104,-4.4302,-4.4844,-4.4794,-4.501,-4.5149,-4.5195,-4.531,-4.5135,-4.4737,-4.4388,-4.3921,-4.3514,-4.32,-4.2886,-4.257,-4.2379,-4.2339,-4.2339,-4.2339,-4.2275,-4.2275,-4.2275,-4.2275,-4.2275,-4.2275,-4.7497,-4.7497,-4.7497,-4.7497,-4.7497,-4.7497,-4.7786,-4.8291,-4.8411,-4.8868,-4.9469,-4.9974,-5.0119,-4.9998,-5.0311,-5.0503,-5.0529,-5.0388,-5.0033,-4.9723,-4.9293,-4.8812,-4.8232,-4.8232,-4.7845,-4.7575,-4.7794,-4.845,-4.8667,-4.8957,-4.9221,-4.9221,-4.915,-4.8933,-4.8572,-4.8717,-4.8717,-4.8523,-4.8305,-4.8232,-4.8523,-4.8595,-4.8691,-4.874,-4.8957,-4.9101,-4.915,-4.9221,-4.9245,-4.9365,-4.9675,-4.9818,-4.9763,-4.9373,-4.896,-4.8555,-4.8662,-4.8469,-4.8584,-4.8826,-4.916,-4.9072,-4.88,-4.8731,-4.8035,-4.6353,-4.5552,-4.5552,-4.5507,-4.5575,-4.5484,-4.5484,-4.5484,-4.5484,-4.5438,-4.5438,-4.5438,-4.5438,-4.5438,-4.5506,-4.5506,-4.5551,-4.5572,-4.5594,-4.5592,-4.568,-4.5926,-4.5809,-4.5381,-4.5154,-4.4957,-4.5225,-4.494,-4.5084,-4.5331,-4.5398,-4.5358,-4.499,-4.452,-4.418,-4.3888,-4.3701,-4.3451,-4.3012,-4.2719,-4.2759,-4.2633,-4.2402,-4.2339,-4.2466,-4.2339,-4.2379,-4.2339,-4.2275,-4.2275,-4.7497,-4.7497,-4.7497,-4.7497,-4.7497,-4.7497,-4.7666,-4.7954,-4.8195,-4.8315,-4.8531,-4.9421,-4.9806,-4.9614,-5.0095,-5.0359,-5.0407,-5.0624,-5.0459,-5.0104,-4.989,-4.9509,-4.9245,-4.9029,-4.8644,-4.8354,-4.8595,-4.9029,-4.9245,-4.9317,-4.9437,-4.9509,-4.9509,-4.9365,-4.9054,-4.9054,-4.9078,-4.8957,-4.8884,-4.9101,-4.934,-4.9245,-4.9029,-4.9101,-4.9293,-4.9509,-4.9509,-4.9509,-4.9723,-4.9985,-5.0361,-5.0449,-5.036,-5.0128,-4.9872,-4.9811,-4.978,-4.9597,-4.9744,-5.0014,-5.0264,-5.0313,-5.0015,-4.9947,-4.9713,-4.8267,-4.7268,-4.72,-4.6909,-4.6887,-4.6355,-4.6194,-4.592,-4.5806,-4.553,-4.5438,-4.5438,-4.5438,-4.5754,-4.6294,-4.6362,-4.6607,-4.6784,-4.6984,-4.6913,-4.6936,-4.7117,-4.6851,-4.6473,-4.6092,-4.5939,-4.5856,-4.5662,-4.5326,-4.5307,-4.5326,-4.5317,-4.4813,-4.4395,-4.4347,-4.4261,-4.4013,-4.3701,-4.3576,-4.3514,-4.3514,-4.3326,-4.2949,-4.2822,-4.2886,-4.2696,-4.2506,-4.2443,-4.2466,-4.2466,-4.7425,-4.7497,-4.7497,-4.7497,-4.7497,-4.7497,-4.7497,-4.7593,-4.7954,-4.793,-4.7714,-4.8507,-4.8844,-4.9157,-4.9614,-4.9782,-5.0046,-5.0503,-5.0577,-5.0625,-5.0554,-5.0175,-4.9961,-4.989,-4.9509,-4.9221,-4.9293,-4.9437,-4.9604,-4.9723,-4.9795,-4.9652,-4.958,-4.9509,-4.9365,-4.9437,-4.9675,-4.9675,-4.9747,-4.989,-4.9723,-4.9437,-4.9293,-4.927,-4.9413,-4.9652,-4.9652,-4.9866,-5.0151,-5.041,-5.085,-5.1076,-5.1083,-5.0919,-5.1035,-5.0971,-5.1038,-5.1105,-5.1297,-5.1605,-5.1897,-5.1929,-5.1495,-5.1147,-5.0911,-5.0343,-4.9398,-4.882,-4.8532,-4.786,-4.7324,-4.6908,-4.6633,-4.6265,-4.5941,-4.5777,-4.5754,-4.5754,-4.6429,-4.7008,-4.734,-4.7581,-4.7846,-4.8109,-4.8174,-4.8133,-4.8002,-4.7828,-4.7563,-4.7165,-4.6841,-4.6788,-4.6759,-4.6305,-4.5868,-4.5614,-4.5628,-4.5174,-4.4825,-4.479,-4.4717,-4.4508,-4.4446,-4.4484,-4.4422,-4.4175,-4.4051,-4.3764,-4.3639,-4.3514,-4.3389,-4.3177,-4.3075,-4.3075,-4.2822,-4.7112,-4.7497,-4.7497,-4.7497,-4.7497,-4.7497,-4.7497,-4.7521,-4.7593,-4.7569,-4.7593,-4.7666,-4.8002,-4.8507,-4.9469,-4.983,-4.9854,-5.0383,-5.0648,-5.0696,-5.0696,-5.0554,-5.0483,-5.0341,-5.0246,-4.9961,-4.9723,-4.9723,-4.9961,-5.0246,-5.0412,-5.0412,-5.0412,-5.0341,-5.0341,-5.0412,-5.0341,-5.0341,-5.0341,-5.0412,-5.0317,-5.0175,-4.9961,-5.0033,-5.0246,-5.0412,-5.0554,-5.0742,-5.0742,-5.086,-5.1044,-5.1436,-5.1536,-5.1489,-5.1562,-5.1665,-5.1825,-5.19,-5.2051,-5.2402,-5.2578,-5.2585,-5.2285,-5.2285,-5.2167,-5.2167,-5.1327,-5.082,-5.0225,-4.8988,-4.8379,-4.8028,-4.7729,-4.7302,-4.6922,-4.6898,-4.6965,-4.7141,-4.7581,-4.7911,-4.8174,-4.8436,-4.8632,-4.8828,-4.8918,-4.8853,-4.8722,-4.8526,-4.8026,-4.7828,-4.7762,-4.7762,-4.7762,-4.762,-4.7344,-4.6448,-4.6187,-4.5705,-4.5305,-4.5269,-4.5233,-4.5147,-4.5123,-4.5123,-4.4915,-4.4669,-4.4546,-4.457,-4.4299,-4.4199,-4.4113,-4.3989,-4.3864,-4.3678,-4.3451]},{"header":{"parameterUnit":"m.s-1","parameterCategory":1,"la1":31.0,"la2":29.5877,"lo1":-88.7671,"lo2":-86.6584,"dy":0.0162,"dx":0.0185,"nx":115,"ny":88,"refTime":"2023-06-13T06:00:00:Z","depth":0,"parameterNumber":3,"parameterNumberName":"V-component_of_WINDS"},"data":[0.0,0.0,0.0,0.0,0.0,0.0,0.0,0.0,0.0,0.0,0.0,0.0,0.0,0.0,0.0,0.0,0.0,0.0,0.0,0.0,0.0,0.0,0.0,0.0,0.0,0.0,0.0,0.0,0.0,0.0,0.0,0.0,0.0,0.0,0.0,0.0,0.0,0.0,0.0,0.0,0.0,0.0,0.0,0.0,0.0,0.0,0.0,0.0,0.0,0.0,0.0,0.0,0.0,0.0,0.0,0.0,0.0,0.0,0.0,0.0,0.0,0.0,0.0,0.0,0.0,0.0,0.0,0.0,0.0,0.0,0.0,0.0,0.0,0.0,0.0,0.0,0.0,0.0,0.0,0.0,0.0,0.0,0.0,0.0,0.0,0.0,0.0,0.0,0.0,0.0,0.0,0.0,0.0,0.0,0.0,0.0,0.0,0.0,0.0,0.0,0.0,0.0,0.0,0.0,0.0,0.0,0.0,0.0,0.0,0.0,0.0,0.0,0.0,0.0,0.0,0.0,0.0,0.0,0.0,0.0,0.0,0.0,0.0,0.0,0.0,0.0,0.0,0.0,0.0,0.0,0.0,0.0,0.0,0.0,0.0,0.0,0.0,0.0,0.0,0.0,0.0,0.0,0.0,0.0,0.0,0.0,0.0,0.0,0.0,0.0,0.0,0.0,0.0,0.0,0.0,0.0,0.0,0.0,0.0,0.0,0.0,0.0,0.0,0.0,0.0,0.0,0.0,0.0,0.0,0.0,0.0,0.0,0.0,0.0,0.0,0.0,0.0,0.0,0.0,0.0,0.0,0.0,0.0,0.0,0.0,0.0,0.0,0.0,0.0,0.0,0.0,0.0,0.0,0.0,0.0,0.0,0.0,0.0,0.0,0.0,0.0,0.0,0.0,0.0,0.0,0.0,0.0,0.0,0.0,0.0,0.0,0.0,0.0,0.0,0.0,0.0,0.0,0.0,0.0,0.0,0.0,0.0,0.0,0.0,0.0,0.0,0.0,0.0,0.0,0.0,0.0,0.0,0.0,0.0,0.0,0.0,0.0,0.0,0.0,0.0,0.0,0.0,0.0,0.0,0.0,0.0,0.0,0.0,0.0,0.0,0.0,0.0,0.0,0.0,0.0,0.0,0.0,0.0,0.0,0.0,0.0,0.0,0.0,0.0,0.0,0.0,0.0,0.0,0.0,0.0,0.0,0.0,0.0,0.0,0.0,0.0,0.0,0.0,0.0,0.0,0.0,0.0,0.0,0.0,0.0,0.0,0.0,0.0,0.0,0.0,0.0,0.0,0.0,0.0,0.0,0.0,0.0,0.0,0.0,0.0,0.0,0.0,0.0,0.0,0.0,0.0,0.0,0.0,0.0,0.0,0.0,0.0,0.0,0.0,0.0,0.0,0.0,0.0,0.0,0.0,0.0,0.0,0.0,0.0,0.0,0.0,0.0,0.0,0.0,0.0,0.0,0.0,0.0,0.0,0.0,0.0,0.0,0.0,0.0,0.0,0.0,0.0,0.0,0.0,0.0,0.0,0.0,0.0,0.0,0.0,0.0,0.0,0.0,0.0,0.0,0.0,0.0,0.0,0.0,0.0,0.0,0.0,0.0,0.0,0.0,0.0,0.0,0.0,0.0,0.0,0.0,0.0,0.0,0.0,0.0,0.0,0.0,0.0,0.0,0.0,0.0,0.0,0.0,0.0,0.0,0.0,0.0,0.0,0.0,0.0,0.0,0.0,0.0,0.0,0.0,0.0,0.0,0.0,0.0,0.0,0.0,0.0,0.0,0.0,0.0,0.0,0.0,0.0,0.0,0.0,0.0,0.0,0.0,0.0,0.0,0.0,0.0,0.0,0.0,0.0,0.0,0.0,0.0,0.0,0.0,0.0,0.0,0.0,0.0,0.0,0.0,0.0,0.0,0.0,0.0,0.0,0.0,0.0,0.0,0.0,0.0,0.0,0.0,0.0,0.0,0.0,0.0,0.0,0.0,0.0,0.0,0.0,0.0,0.0,0.0,0.0,0.0,0.0,0.0,0.0,0.0,0.0,0.0,0.0,0.0,0.0,0.0,0.0,0.0,0.0,0.0,0.0,0.0,0.0,0.0,0.0,0.0,0.0,0.0,0.0,0.0,0.0,0.0,0.0,0.0,0.0,0.0,0.0,0.0,0.0,0.0,0.0,0.0,0.0,0.0,0.0,0.0,0.0,0.0,0.0,0.0,0.0,0.0,0.0,0.0,0.0,0.0,0.0,0.0,0.0,0.0,0.0,0.0,0.0,0.0,0.0,0.0,0.0,0.0,0.0,0.0,0.0,0.0,0.0,0.0,0.0,0.0,0.0,0.0,0.0,0.0,0.0,0.0,0.0,0.0,0.0,0.0,0.0,0.0,0.0,0.0,0.0,0.0,0.0,0.0,0.0,0.0,0.0,0.0,0.0,0.0,0.0,0.0,0.0,0.0,0.0,0.0,0.0,0.0,0.0,0.0,0.0,0.0,0.0,0.0,0.0,0.0,0.0,0.0,0.0,0.0,0.0,0.0,0.0,0.0,0.0,0.0,0.0,0.0,0.0,0.0,0.0,0.0,0.0,0.0,0.0,0.0,0.0,0.0,0.0,0.0,0.0,0.0,0.0,0.0,0.0,0.0,0.0,0.0,0.0,0.0,0.0,0.0,0.0,0.0,0.0,0.0,0.0,0.0,0.0,0.0,0.0,0.0,0.0,0.0,0.0,0.0,0.0,0.0,0.0,0.0,0.0,0.0,0.0,0.0,0.0,0.0,0.0,0.0,0.0,0.0,0.0,0.0,0.0,0.0,0.0,0.0,0.0,0.0,0.0,0.0,0.0,0.0,0.0,0.0,0.0,0.0,0.0,0.0,0.0,0.0,0.0,0.0,0.0,0.0,0.0,0.0,0.0,0.0,0.0,0.0,0.0,0.0,0.0,0.0,0.0,0.0,0.0,0.0,0.0,0.0,0.0,0.0,0.0,0.0,0.0,0.0,0.0,0.0,0.0,0.0,0.0,0.0,0.0,0.0,0.0,0.0,0.0,0.0,0.0,0.0,0.0,0.0,0.0,0.0,0.0,0.0,0.0,0.0,0.0,0.0,0.0,0.0,0.0,0.0,0.0,0.0,0.0,0.0,0.0,0.0,0.0,0.0,0.0,0.0,0.0,0.0,0.0,0.0,0.0,0.0,0.0,0.0,0.0,0.0,0.0,0.0,0.0,0.0,0.0,0.0,0.0,0.0,0.0,0.0,0.0,0.0,0.0,0.0,0.0,0.0,0.0,0.0,0.0,0.0,0.0,0.0,0.0,0.0,0.0,0.0,0.0,0.0,0.0,0.0,0.0,0.0,0.0,0.0,0.0,0.0,0.0,0.0,0.0,0.0,0.0,0.0,0.0,0.0,0.0,0.0,0.0,0.0,0.0,0.0,0.0,0.0,0.0,0.0,0.0,0.0,0.0,0.0,0.0,0.0,0.0,0.0,0.0,0.0,0.0,0.0,0.0,0.0,0.0,0.0,0.0,0.0,0.0,0.0,0.0,0.0,0.0,0.0,0.0,0.0,0.0,0.0,0.0,0.0,0.0,0.0,0.0,0.0,0.0,0.0,0.0,0.0,0.0,0.0,0.0,0.0,0.0,0.0,0.0,0.0,0.0,0.0,0.0,0.0,0.0,0.0,0.0,0.0,0.0,0.0,0.0,0.0,0.0,0.0,0.0,0.0,0.0,0.0,0.0,0.0,0.0,0.0,0.0,0.0,0.0,0.0,0.0,0.0,0.0,0.0,0.0,0.0,0.0,0.0,0.0,0.0,0.0,0.0,0.0,0.0,0.0,0.0,0.0,0.0,0.0,0.0,0.0,0.0,0.0,0.0,0.0,0.0,0.0,0.0,0.0,0.0,0.0,0.0,0.0,0.0,0.0,0.0,0.0,0.0,0.0,0.0,0.0,0.0,0.0,0.0,0.0,0.0,0.0,0.0,0.0,0.0,0.0,0.0,0.0,0.0,0.0,0.0,0.0,0.0,0.0,0.0,0.0,0.0,0.0,0.0,0.0,0.0,0.0,0.0,0.0,0.0,0.0,0.0,0.0,0.0,0.0,0.0,0.0,0.0,0.0,0.0,0.0,0.0,0.0,0.0,0.0,0.0,0.0,0.0,0.0,0.0,0.0,0.0,0.0,0.0,0.0,0.0,0.0,0.0,0.0,0.0,0.0,0.0,0.0,0.0,0.0,0.0,0.0,0.0,0.0,0.0,0.0,0.0,0.0,0.0,0.0,-2.5259,0.0,0.0,0.0,0.0,0.0,0.0,0.0,0.0,0.0,0.0,0.0,0.0,0.0,0.0,0.0,0.0,0.0,0.0,0.0,0.0,0.0,0.0,0.0,0.0,0.0,0.0,0.0,0.0,0.0,0.0,0.0,0.0,0.0,0.0,0.0,0.0,0.0,0.0,0.0,0.0,0.0,0.0,0.0,0.0,0.0,0.0,0.0,0.0,0.0,0.0,0.0,0.0,0.0,0.0,0.0,0.0,0.0,0.0,0.0,0.0,0.0,0.0,0.0,0.0,0.0,0.0,0.0,0.0,0.0,0.0,0.0,0.0,0.0,0.0,0.0,0.0,0.0,0.0,0.0,0.0,0.0,0.0,0.0,0.0,0.0,0.0,0.0,0.0,0.0,0.0,0.0,0.0,0.0,0.0,0.0,0.0,0.0,0.0,0.0,0.0,0.0,0.0,0.0,0.0,0.0,0.0,0.0,0.0,0.0,0.0,-2.6392,-2.5654,-2.5565,-2.5508,-2.5483,0.0,0.0,0.0,0.0,0.0,0.0,0.0,0.0,0.0,0.0,0.0,0.0,0.0,0.0,0.0,0.0,0.0,0.0,0.0,0.0,0.0,0.0,0.0,0.0,0.0,0.0,0.0,0.0,0.0,0.0,0.0,0.0,0.0,0.0,0.0,0.0,0.0,0.0,0.0,0.0,0.0,0.0,0.0,0.0,0.0,0.0,0.0,0.0,0.0,0.0,0.0,0.0,0.0,0.0,0.0,0.0,0.0,0.0,0.0,0.0,0.0,0.0,0.0,0.0,0.0,0.0,0.0,0.0,0.0,0.0,0.0,0.0,0.0,0.0,0.0,0.0,0.0,0.0,0.0,0.0,0.0,0.0,0.0,0.0,0.0,0.0,0.0,0.0,0.0,0.0,0.0,0.0,0.0,0.0,0.0,0.0,0.0,0.0,0.0,0.0,0.0,0.0,0.0,0.0,0.0,0.0,0.0,0.0,0.0,0.0,0.0,0.0,-2.5928,-2.577,-2.5635,0.0,0.0,0.0,0.0,0.0,0.0,0.0,0.0,0.0,0.0,0.0,0.0,0.0,0.0,0.0,0.0,0.0,0.0,0.0,0.0,0.0,0.0,0.0,0.0,0.0,0.0,0.0,0.0,0.0,0.0,0.0,0.0,0.0,0.0,0.0,0.0,0.0,0.0,0.0,0.0,0.0,0.0,0.0,0.0,0.0,0.0,0.0,0.0,0.0,0.0,0.0,0.0,0.0,0.0,0.0,0.0,0.0,0.0,0.0,0.0,0.0,0.0,0.0,0.0,0.0,0.0,0.0,0.0,0.0,0.0,0.0,0.0,0.0,0.0,0.0,0.0,0.0,0.0,0.0,0.0,0.0,0.0,0.0,0.0,0.0,0.0,0.0,0.0,0.0,0.0,0.0,0.0,0.0,0.0,0.0,0.0,0.0,0.0,0.0,0.0,0.0,0.0,0.0,0.0,0.0,0.0,0.0,0.0,0.0,0.0,-2.7212,-2.6902,-2.6407,0.0,-2.5701,0.0,0.0,0.0,0.0,0.0,0.0,0.0,0.0,0.0,0.0,0.0,0.0,0.0,0.0,0.0,0.0,0.0,0.0,0.0,0.0,0.0,0.0,0.0,0.0,0.0,0.0,0.0,0.0,0.0,0.0,0.0,0.0,0.0,0.0,0.0,0.0,0.0,0.0,0.0,0.0,0.0,0.0,0.0,0.0,0.0,0.0,0.0,0.0,0.0,0.0,0.0,0.0,0.0,0.0,0.0,0.0,0.0,0.0,0.0,0.0,0.0,0.0,0.0,0.0,0.0,0.0,0.0,0.0,0.0,0.0,0.0,0.0,0.0,0.0,0.0,0.0,0.0,0.0,0.0,0.0,0.0,0.0,0.0,0.0,0.0,0.0,0.0,0.0,0.0,0.0,0.0,0.0,0.0,0.0,0.0,0.0,0.0,0.0,0.0,0.0,0.0,0.0,0.0,0.0,0.0,0.0,0.0,0.0,0.0,0.0,-2.6778,-2.6583,-2.6264,-2.599,0.0,0.0,0.0,0.0,0.0,0.0,0.0,0.0,0.0,0.0,0.0,0.0,0.0,0.0,0.0,0.0,0.0,0.0,0.0,0.0,0.0,0.0,0.0,0.0,0.0,0.0,0.0,0.0,0.0,0.0,0.0,0.0,0.0,0.0,0.0,0.0,0.0,0.0,0.0,0.0,0.0,0.0,0.0,0.0,0.0,0.0,0.0,0.0,0.0,0.0,0.0,0.0,0.0,0.0,0.0,0.0,0.0,0.0,0.0,0.0,0.0,0.0,0.0,0.0,0.0,0.0,0.0,0.0,0.0,0.0,0.0,0.0,0.0,0.0,0.0,0.0,0.0,0.0,0.0,0.0,0.0,0.0,0.0,0.0,0.0,0.0,0.0,0.0,0.0,0.0,0.0,0.0,0.0,0.0,0.0,0.0,0.0,0.0,0.0,0.0,0.0,0.0,0.0,0.0,0.0,0.0,0.0,0.0,0.0,0.0,-2.6936,-2.6417,-2.6279,-2.6137,-2.6012,-2.5936,0.0,0.0,0.0,0.0,0.0,0.0,0.0,0.0,0.0,0.0,0.0,0.0,0.0,0.0,0.0,0.0,0.0,0.0,0.0,0.0,0.0,0.0,0.0,0.0,0.0,0.0,0.0,0.0,0.0,0.0,0.0,0.0,0.0,0.0,0.0,0.0,0.0,0.0,0.0,0.0,0.0,0.0,0.0,0.0,0.0,0.0,0.0,0.0,0.0,0.0,0.0,0.0,0.0,0.0,0.0,0.0,0.0,0.0,0.0,0.0,0.0,0.0,0.0,0.0,0.0,0.0,0.0,0.0,0.0,0.0,0.0,0.0,0.0,0.0,0.0,0.0,0.0,0.0,0.0,0.0,0.0,0.0,0.0,0.0,0.0,0.0,0.0,0.0,0.0,0.0,0.0,0.0,0.0,0.0,0.0,0.0,0.0,0.0,0.0,0.0,0.0,0.0,0.0,0.0,0.0,0.0,0.0,0.0,-2.8457,-2.7188,-2.6417,-2.6329,-2.6279,-2.619,0.0,0.0,0.0,0.0,0.0,0.0,0.0,0.0,0.0,0.0,0.0,0.0,0.0,0.0,0.0,0.0,0.0,0.0,0.0,0.0,0.0,0.0,0.0,0.0,0.0,0.0,0.0,0.0,0.0,0.0,0.0,0.0,0.0,0.0,0.0,0.0,0.0,0.0,0.0,0.0,0.0,0.0,0.0,0.0,0.0,0.0,0.0,0.0,0.0,0.0,0.0,0.0,0.0,0.0,0.0,0.0,0.0,0.0,0.0,0.0,0.0,0.0,0.0,0.0,0.0,0.0,0.0,0.0,0.0,0.0,0.0,0.0,0.0,0.0,0.0,0.0,0.0,0.0,0.0,0.0,0.0,0.0,0.0,0.0,0.0,0.0,0.0,0.0,0.0,0.0,0.0,0.0,0.0,0.0,0.0,0.0,0.0,0.0,0.0,0.0,0.0,0.0,0.0,0.0,0.0,0.0,0.0,0.0,0.0,-2.7502,-2.7012,-2.6674,-2.6556,-2.6521,-2.6398,0.0,0.0,0.0,0.0,0.0,0.0,0.0,0.0,0.0,0.0,0.0,0.0,0.0,0.0,0.0,0.0,0.0,0.0,0.0,0.0,0.0,0.0,0.0,0.0,0.0,0.0,0.0,0.0,0.0,0.0,0.0,0.0,0.0,0.0,0.0,0.0,0.0,0.0,0.0,0.0,0.0,0.0,0.0,0.0,0.0,0.0,0.0,0.0,0.0,0.0,0.0,0.0,0.0,0.0,0.0,0.0,0.0,0.0,0.0,0.0,0.0,0.0,0.0,0.0,0.0,0.0,0.0,0.0,0.0,0.0,0.0,0.0,0.0,0.0,0.0,0.0,0.0,0.0,0.0,0.0,0.0,0.0,0.0,0.0,0.0,0.0,0.0,0.0,0.0,0.0,0.0,0.0,0.0,0.0,0.0,0.0,0.0,0.0,0.0,0.0,0.0,0.0,0.0,0.0,0.0,0.0,0.0,0.0,0.0,-2.6893,0.0,-2.6809,-2.6674,-2.6623,-2.6485,0.0,0.0,0.0,0.0,0.0,0.0,0.0,0.0,0.0,0.0,0.0,0.0,0.0,0.0,0.0,0.0,0.0,0.0,0.0,0.0,0.0,0.0,0.0,0.0,0.0,0.0,0.0,0.0,0.0,0.0,0.0,0.0,0.0,0.0,0.0,0.0,0.0,0.0,0.0,0.0,0.0,0.0,0.0,0.0,0.0,0.0,0.0,0.0,0.0,0.0,0.0,0.0,0.0,0.0,0.0,0.0,0.0,0.0,0.0,0.0,0.0,0.0,0.0,0.0,0.0,0.0,0.0,0.0,0.0,0.0,0.0,0.0,0.0,0.0,0.0,0.0,0.0,0.0,0.0,0.0,0.0,0.0,0.0,0.0,0.0,0.0,0.0,0.0,0.0,0.0,0.0,0.0,0.0,0.0,0.0,0.0,0.0,0.0,0.0,0.0,0.0,0.0,0.0,0.0,0.0,0.0,0.0,0.0,-2.6943,-2.6943,-2.6943,-2.6944,-2.6674,-2.6674,-2.6537,0.0,0.0,0.0,0.0,0.0,0.0,0.0,0.0,0.0,0.0,0.0,0.0,0.0,0.0,0.0,0.0,0.0,0.0,0.0,0.0,0.0,0.0,0.0,0.0,0.0,0.0,0.0,0.0,0.0,0.0,0.0,0.0,0.0,0.0,0.0,0.0,0.0,0.0,0.0,0.0,0.0,0.0,0.0,0.0,0.0,0.0,0.0,0.0,0.0,0.0,0.0,0.0,0.0,0.0,0.0,0.0,0.0,0.0,0.0,0.0,0.0,0.0,0.0,0.0,0.0,0.0,0.0,0.0,0.0,0.0,0.0,0.0,0.0,0.0,0.0,0.0,0.0,0.0,0.0,0.0,0.0,0.0,0.0,0.0,0.0,0.0,0.0,0.0,0.0,0.0,0.0,0.0,0.0,0.0,0.0,0.0,0.0,0.0,0.0,0.0,0.0,0.0,0.0,0.0,0.0,0.0,0.0,0.0,0.0,-2.8024,-2.8541,-2.8767,-2.8596,-2.7981,-2.7504,0.0,0.0,0.0,0.0,0.0,0.0,0.0,0.0,0.0,0.0,0.0,0.0,0.0,0.0,0.0,0.0,0.0,0.0,0.0,0.0,0.0,0.0,0.0,0.0,0.0,0.0,0.0,0.0,0.0,0.0,0.0,0.0,0.0,0.0,0.0,0.0,0.0,0.0,0.0,0.0,0.0,0.0,0.0,0.0,0.0,0.0,0.0,0.0,0.0,0.0,0.0,0.0,0.0,0.0,0.0,0.0,0.0,0.0,0.0,0.0,0.0,0.0,0.0,0.0,0.0,0.0,0.0,0.0,0.0,0.0,0.0,0.0,0.0,0.0,0.0,0.0,0.0,0.0,0.0,0.0,0.0,0.0,0.0,0.0,0.0,0.0,0.0,0.0,0.0,0.0,0.0,0.0,0.0,0.0,0.0,0.0,0.0,0.0,0.0,0.0,0.0,0.0,0.0,0.0,0.0,0.0,0.0,0.0,0.0,-3.0196,-2.9972,-2.9797,-2.9691,-2.9017,-2.8434,-2.7858,0.0,0.0,0.0,0.0,0.0,0.0,0.0,0.0,0.0,0.0,0.0,0.0,0.0,0.0,0.0,0.0,0.0,0.0,0.0,0.0,0.0,0.0,0.0,0.0,0.0,0.0,0.0,0.0,0.0,0.0,0.0,0.0,0.0,0.0,0.0,0.0,0.0,0.0,0.0,0.0,0.0,0.0,0.0,0.0,0.0,0.0,0.0,0.0,0.0,0.0,0.0,0.0,0.0,0.0,0.0,0.0,0.0,0.0,0.0,0.0,0.0,0.0,0.0,0.0,0.0,0.0,0.0,0.0,0.0,0.0,0.0,0.0,0.0,0.0,0.0,0.0,0.0,0.0,0.0,0.0,0.0,0.0,0.0,0.0,0.0,0.0,0.0,0.0,0.0,0.0,0.0,0.0,0.0,0.0,0.0,0.0,0.0,0.0,0.0,0.0,0.0,0.0,0.0,0.0,0.0,0.0,0.0,0.0,-3.3263,-3.1466,-3.048,-3.0388,-3.0026,-2.9326,0.0,0.0,0.0,0.0,0.0,0.0,0.0,0.0,0.0,0.0,0.0,0.0,0.0,0.0,0.0,0.0,0.0,0.0,0.0,0.0,0.0,0.0,0.0,0.0,0.0,0.0,0.0,0.0,0.0,0.0,0.0,0.0,0.0,0.0,0.0,0.0,0.0,0.0,0.0,0.0,0.0,0.0,0.0,0.0,0.0,0.0,0.0,0.0,0.0,0.0,0.0,0.0,0.0,0.0,0.0,0.0,0.0,0.0,0.0,0.0,0.0,0.0,0.0,0.0,0.0,0.0,0.0,0.0,0.0,0.0,0.0,0.0,0.0,0.0,0.0,0.0,0.0,0.0,0.0,0.0,0.0,0.0,0.0,0.0,0.0,0.0,0.0,0.0,0.0,0.0,0.0,0.0,0.0,0.0,0.0,0.0,0.0,0.0,0.0,0.0,0.0,0.0,0.0,0.0,0.0,0.0,0.0,0.0,0.0,-3.5727,-3.5463,-3.4889,-3.4071,-3.2433,-3.1409,0.0,0.0,0.0,0.0,0.0,0.0,0.0,0.0,0.0,0.0,0.0,0.0,0.0,0.0,0.0,0.0,0.0,0.0,0.0,0.0,0.0,0.0,0.0,0.0,0.0,0.0,0.0,0.0,0.0,0.0,0.0,0.0,0.0,0.0,0.0,0.0,0.0,0.0,0.0,0.0,0.0,0.0,0.0,0.0,0.0,0.0,0.0,0.0,0.0,0.0,0.0,0.0,0.0,0.0,0.0,0.0,0.0,0.0,0.0,0.0,0.0,0.0,0.0,0.0,0.0,0.0,0.0,0.0,0.0,0.0,0.0,0.0,0.0,0.0,0.0,0.0,0.0,0.0,0.0,0.0,0.0,0.0,0.0,0.0,0.0,0.0,0.0,0.0,0.0,0.0,0.0,0.0,0.0,0.0,0.0,0.0,0.0,0.0,0.0,0.0,0.0,0.0,0.0,0.0,0.0,0.0,0.0,0.0,-3.5303,-3.7411,-3.8003,-3.8162,-3.7886,-3.5569,-3.3794,0.0,0.0,0.0,0.0,0.0,0.0,0.0,0.0,0.0,0.0,0.0,0.0,0.0,0.0,0.0,0.0,0.0,0.0,0.0,0.0,0.0,0.0,0.0,0.0,0.0,0.0,0.0,0.0,0.0,0.0,0.0,0.0,0.0,0.0,0.0,0.0,0.0,0.0,0.0,0.0,0.0,0.0,0.0,0.0,0.0,0.0,0.0,0.0,0.0,0.0,0.0,0.0,0.0,0.0,0.0,0.0,0.0,0.0,0.0,0.0,0.0,0.0,0.0,0.0,0.0,0.0,0.0,0.0,0.0,0.0,0.0,0.0,0.0,0.0,0.0,0.0,0.0,0.0,0.0,0.0,0.0,0.0,0.0,0.0,0.0,0.0,0.0,0.0,0.0,0.0,0.0,0.0,0.0,0.0,0.0,0.0,0.0,0.0,0.0,0.0,0.0,0.0,0.0,0.0,0.0,0.0,0.0,0.0,-3.6899,-3.8619,-3.9708,-4.0676,-4.1539,-3.8778,-3.6138,0.0,0.0,0.0,0.0,0.0,0.0,0.0,0.0,0.0,0.0,0.0,0.0,0.0,0.0,0.0,0.0,0.0,0.0,0.0,0.0,0.0,0.0,0.0,0.0,0.0,0.0,0.0,0.0,0.0,0.0,0.0,0.0,0.0,0.0,0.0,0.0,0.0,0.0,0.0,0.0,0.0,0.0,0.0,0.0,0.0,0.0,0.0,0.0,0.0,0.0,0.0,0.0,0.0,0.0,0.0,0.0,0.0,0.0,0.0,0.0,0.0,0.0,0.0,0.0,0.0,0.0,0.0,0.0,0.0,0.0,0.0,0.0,0.0,0.0,0.0,0.0,0.0,0.0,0.0,0.0,0.0,0.0,0.0,0.0,0.0,0.0,0.0,0.0,0.0,0.0,0.0,0.0,0.0,0.0,0.0,0.0,0.0,0.0,0.0,0.0,0.0,0.0,0.0,0.0,0.0,0.0,0.0,0.0,-3.8744,-4.0915,-4.2067,-4.3323,-4.4605,-4.0081,-3.7033,0.0,0.0,0.0,0.0,0.0,0.0,0.0,0.0,0.0,0.0,0.0,0.0,0.0,0.0,0.0,0.0,0.0,0.0,0.0,0.0,0.0,0.0,0.0,0.0,0.0,0.0,0.0,0.0,0.0,0.0,0.0,0.0,0.0,0.0,0.0,0.0,0.0,0.0,0.0,0.0,0.0,0.0,0.0,0.0,0.0,0.0,0.0,0.0,-3.19,0.0,0.0,0.0,0.0,0.0,0.0,0.0,0.0,0.0,0.0,0.0,0.0,0.0,0.0,0.0,0.0,0.0,0.0,0.0,0.0,0.0,0.0,0.0,0.0,0.0,0.0,0.0,0.0,0.0,0.0,0.0,0.0,0.0,0.0,0.0,0.0,0.0,0.0,0.0,0.0,0.0,0.0,0.0,0.0,0.0,0.0,0.0,0.0,0.0,0.0,0.0,0.0,0.0,0.0,0.0,0.0,0.0,0.0,0.0,-4.0288,-4.2338,-4.378,-4.4896,-4.5522,-4.244,-3.9833,0.0,0.0,0.0,0.0,0.0,0.0,0.0,0.0,0.0,0.0,0.0,0.0,0.0,0.0,0.0,0.0,0.0,0.0,0.0,0.0,0.0,0.0,0.0,0.0,0.0,0.0,0.0,0.0,0.0,0.0,0.0,0.0,0.0,0.0,0.0,0.0,0.0,0.0,0.0,0.0,0.0,0.0,0.0,0.0,0.0,0.0,0.0,0.0,0.0,0.0,0.0,0.0,0.0,0.0,0.0,0.0,0.0,0.0,0.0,0.0,0.0,0.0,0.0,0.0,0.0,0.0,0.0,0.0,0.0,0.0,0.0,0.0,0.0,0.0,0.0,0.0,0.0,0.0,0.0,0.0,0.0,0.0,0.0,0.0,0.0,0.0,0.0,0.0,0.0,0.0,0.0,0.0,0.0,0.0,0.0,0.0,0.0,0.0,0.0,0.0,0.0,0.0,0.0,0.0,0.0,0.0,0.0,-3.9582,-4.1707,-4.3536,-4.5133,-4.6013,-4.6113,-4.4886,-4.2948,-4.0184,0.0,0.0,0.0,0.0,0.0,0.0,0.0,0.0,0.0,0.0,0.0,0.0,0.0,0.0,0.0,0.0,0.0,0.0,0.0,0.0,0.0,0.0,0.0,0.0,0.0,0.0,0.0,0.0,0.0,0.0,0.0,0.0,0.0,0.0,0.0,0.0,0.0,0.0,-3.3079,-3.4803,0.0,0.0,0.0,0.0,0.0,0.0,0.0,0.0,-3.536,0.0,0.0,0.0,0.0,0.0,0.0,0.0,0.0,0.0,0.0,0.0,0.0,0.0,0.0,0.0,0.0,0.0,0.0,0.0,0.0,0.0,0.0,0.0,0.0,0.0,0.0,0.0,0.0,0.0,0.0,0.0,0.0,0.0,0.0,0.0,0.0,0.0,0.0,0.0,0.0,0.0,0.0,0.0,0.0,0.0,0.0,0.0,0.0,0.0,0.0,0.0,0.0,0.0,0.0,0.0,0.0,-3.9573,-4.1399,-4.3261,-4.5154,-4.618,-4.7007,-4.7537,-4.5801,-4.3839,-4.1829,0.0,0.0,0.0,0.0,0.0,0.0,0.0,0.0,0.0,0.0,0.0,0.0,0.0,0.0,0.0,0.0,0.0,0.0,0.0,0.0,0.0,0.0,0.0,0.0,0.0,0.0,0.0,0.0,0.0,0.0,0.0,0.0,0.0,0.0,0.0,0.0,0.0,0.0,0.0,-3.6094,-3.6366,0.0,0.0,0.0,0.0,0.0,0.0,0.0,0.0,-3.5211,0.0,0.0,0.0,0.0,0.0,0.0,0.0,0.0,0.0,0.0,0.0,0.0,0.0,0.0,0.0,0.0,0.0,0.0,0.0,0.0,0.0,0.0,0.0,0.0,0.0,0.0,0.0,0.0,0.0,0.0,0.0,0.0,0.0,0.0,0.0,0.0,0.0,0.0,0.0,0.0,0.0,0.0,0.0,0.0,0.0,0.0,0.0,0.0,0.0,0.0,0.0,0.0,0.0,0.0,0.0,-3.9788,-4.2226,-4.4231,-4.5686,-4.6876,-4.7636,-4.7968,-4.6431,-4.4445,0.0,0.0,0.0,0.0,0.0,0.0,0.0,0.0,0.0,0.0,0.0,0.0,0.0,0.0,0.0,0.0,0.0,0.0,0.0,0.0,0.0,0.0,0.0,0.0,0.0,0.0,0.0,0.0,0.0,0.0,0.0,0.0,0.0,0.0,0.0,0.0,0.0,0.0,0.0,0.0,-3.7502,-3.7549,-3.6414,0.0,0.0,0.0,0.0,0.0,0.0,-3.672,-3.694,0.0,0.0,0.0,0.0,0.0,0.0,0.0,0.0,0.0,0.0,0.0,0.0,0.0,0.0,0.0,0.0,0.0,0.0,0.0,0.0,0.0,0.0,0.0,0.0,0.0,0.0,0.0,0.0,0.0,0.0,0.0,0.0,0.0,0.0,0.0,0.0,0.0,0.0,0.0,0.0,0.0,0.0,0.0,0.0,0.0,0.0,0.0,0.0,0.0,0.0,0.0,0.0,0.0,0.0,0.0,-4.0295,-4.3227,-4.5299,-4.6442,-4.7769,-4.8431,-4.8398,-4.7056,-4.5064,0.0,0.0,0.0,0.0,0.0,0.0,0.0,0.0,0.0,0.0,0.0,0.0,0.0,0.0,0.0,0.0,0.0,0.0,0.0,0.0,0.0,0.0,0.0,0.0,0.0,0.0,0.0,0.0,0.0,0.0,0.0,0.0,0.0,0.0,0.0,0.0,0.0,0.0,0.0,0.0,0.0,-3.9072,-3.7924,-3.8965,0.0,0.0,0.0,0.0,-3.7682,-3.8559,0.0,0.0,0.0,0.0,0.0,0.0,0.0,0.0,0.0,0.0,0.0,0.0,0.0,0.0,0.0,0.0,0.0,0.0,0.0,0.0,0.0,0.0,0.0,0.0,0.0,0.0,0.0,0.0,0.0,0.0,0.0,0.0,0.0,0.0,0.0,0.0,0.0,0.0,0.0,0.0,0.0,0.0,0.0,0.0,0.0,0.0,0.0,0.0,0.0,0.0,0.0,0.0,0.0,0.0,0.0,0.0,-4.3434,-4.5343,-4.7105,-4.8663,-4.9525,-4.9955,-4.9922,-4.7778,-4.5828,0.0,0.0,0.0,0.0,0.0,0.0,0.0,0.0,0.0,0.0,0.0,0.0,0.0,0.0,0.0,0.0,0.0,0.0,0.0,0.0,0.0,0.0,0.0,0.0,0.0,0.0,0.0,0.0,0.0,0.0,0.0,0.0,0.0,0.0,0.0,0.0,0.0,0.0,0.0,0.0,0.0,-4.1091,-3.9685,-4.0446,-4.0732,0.0,0.0,-3.9752,-3.8903,-3.9668,0.0,0.0,0.0,0.0,0.0,0.0,0.0,0.0,0.0,0.0,0.0,0.0,0.0,0.0,0.0,0.0,0.0,0.0,0.0,0.0,0.0,0.0,0.0,0.0,0.0,0.0,0.0,0.0,0.0,0.0,0.0,0.0,0.0,0.0,0.0,0.0,0.0,0.0,0.0,0.0,0.0,0.0,0.0,0.0,0.0,0.0,0.0,0.0,0.0,0.0,0.0,0.0,0.0,0.0,0.0,-4.1714,-4.3218,-4.5572,-4.7328,-4.8465,-4.9624,-5.022,-5.022,-4.7814,-4.5778,0.0,0.0,0.0,0.0,0.0,0.0,0.0,0.0,0.0,0.0,0.0,0.0,0.0,0.0,0.0,0.0,0.0,0.0,0.0,0.0,0.0,0.0,0.0,0.0,0.0,0.0,0.0,0.0,0.0,0.0,0.0,0.0,0.0,0.0,0.0,0.0,0.0,0.0,0.0,0.0,0.0,0.0,-4.019,-4.0926,0.0,0.0,0.0,-4.0948,-4.1174,0.0,0.0,0.0,0.0,0.0,0.0,0.0,0.0,0.0,0.0,0.0,0.0,0.0,0.0,0.0,0.0,0.0,0.0,0.0,0.0,0.0,0.0,0.0,0.0,0.0,0.0,0.0,0.0,0.0,0.0,0.0,0.0,0.0,0.0,0.0,0.0,0.0,0.0,0.0,0.0,0.0,0.0,0.0,0.0,0.0,0.0,0.0,0.0,0.0,0.0,0.0,0.0,0.0,0.0,0.0,0.0,0.0,-4.3216,-4.6012,-4.7802,-4.8564,-4.9988,-5.075,-5.0717,-4.8423,0.0,0.0,0.0,0.0,0.0,0.0,0.0,0.0,0.0,0.0,0.0,0.0,0.0,0.0,0.0,0.0,0.0,0.0,0.0,0.0,0.0,0.0,0.0,0.0,0.0,0.0,0.0,-3.1205,0.0,0.0,0.0,0.0,0.0,0.0,0.0,0.0,0.0,0.0,0.0,0.0,0.0,0.0,-4.3294,-4.1558,-4.2302,-4.2815,0.0,0.0,-4.2604,-4.3142,-4.2879,-4.2408,0.0,0.0,0.0,0.0,0.0,0.0,0.0,0.0,0.0,0.0,0.0,0.0,0.0,0.0,0.0,0.0,0.0,0.0,0.0,0.0,0.0,0.0,0.0,0.0,0.0,0.0,0.0,0.0,0.0,0.0,0.0,0.0,0.0,0.0,0.0,0.0,0.0,0.0,0.0,0.0,0.0,0.0,0.0,0.0,0.0,0.0,0.0,0.0,0.0,0.0,0.0,0.0,0.0,0.0,-4.3347,-4.4885,-4.7579,-4.9293,-5.0088,-5.1479,-5.2241,-5.2243,-5.0326,-4.8714,0.0,0.0,0.0,0.0,0.0,0.0,0.0,0.0,0.0,0.0,0.0,0.0,0.0,0.0,0.0,0.0,0.0,0.0,0.0,0.0,0.0,0.0,0.0,0.0,0.0,0.0,0.0,0.0,0.0,0.0,0.0,0.0,0.0,0.0,0.0,0.0,0.0,0.0,0.0,0.0,0.0,-4.4671,-4.4915,-4.5603,-4.583,0.0,-4.5295,-4.5188,-4.4266,-4.4585,-4.4518,-4.3207,0.0,0.0,0.0,0.0,0.0,0.0,0.0,0.0,0.0,0.0,0.0,0.0,0.0,0.0,0.0,0.0,0.0,0.0,0.0,0.0,0.0,0.0,0.0,0.0,0.0,0.0,0.0,0.0,0.0,0.0,0.0,0.0,0.0,0.0,0.0,0.0,0.0,0.0,0.0,0.0,0.0,0.0,0.0,0.0,0.0,0.0,0.0,0.0,0.0,0.0,0.0,0.0,0.0,-4.4399,-4.6209,-4.8681,-5.0422,-5.1545,-5.297,-5.3467,-5.3036,-5.1123,-4.9258,0.0,0.0,0.0,0.0,0.0,0.0,0.0,0.0,0.0,0.0,0.0,0.0,0.0,0.0,0.0,0.0,0.0,0.0,0.0,0.0,0.0,0.0,0.0,0.0,0.0,0.0,0.0,0.0,-3.4671,-3.5641,-3.6352,0.0,0.0,0.0,0.0,0.0,0.0,0.0,0.0,0.0,0.0,-4.6748,-4.5212,-4.5993,0.0,0.0,-4.6161,-4.6077,-4.6458,-4.575,-4.5008,-4.4358,-4.4091,0.0,0.0,0.0,0.0,0.0,0.0,0.0,0.0,0.0,0.0,0.0,0.0,0.0,0.0,0.0,0.0,0.0,0.0,0.0,0.0,0.0,0.0,0.0,0.0,0.0,0.0,0.0,0.0,0.0,0.0,0.0,0.0,0.0,0.0,0.0,0.0,0.0,0.0,0.0,0.0,0.0,0.0,0.0,0.0,0.0,0.0,0.0,0.0,0.0,0.0,0.0,0.0,-4.5713,-4.709,-4.9718,-5.1522,-5.2412,-5.3765,-5.4158,-5.34,-5.185,-5.0026,0.0,0.0,0.0,0.0,0.0,0.0,0.0,0.0,0.0,0.0,0.0,0.0,0.0,0.0,0.0,0.0,0.0,0.0,0.0,0.0,0.0,0.0,0.0,0.0,0.0,0.0,0.0,0.0,-3.5882,-3.6858,-3.751,0.0,0.0,0.0,0.0,0.0,0.0,0.0,0.0,0.0,0.0,-4.8,-4.6616,-4.7201,-4.7883,-4.8215,-4.7705,-4.7555,-4.8375,-4.728,-4.6212,-4.5801,0.0,0.0,0.0,0.0,0.0,0.0,0.0,0.0,0.0,0.0,0.0,0.0,0.0,0.0,0.0,0.0,0.0,0.0,0.0,0.0,0.0,0.0,0.0,0.0,0.0,0.0,0.0,-3.7805,0.0,0.0,-3.6886,0.0,0.0,0.0,0.0,0.0,0.0,0.0,0.0,0.0,0.0,0.0,0.0,0.0,0.0,0.0,0.0,0.0,0.0,0.0,0.0,0.0,0.0,-4.7367,-4.7364,-5.0791,-5.2589,-5.2688,-5.3871,-5.4195,-5.35,-5.2705,-5.142,-4.9457,0.0,0.0,0.0,0.0,0.0,0.0,0.0,0.0,0.0,0.0,0.0,0.0,0.0,0.0,0.0,0.0,0.0,0.0,0.0,0.0,0.0,0.0,0.0,0.0,0.0,0.0,-3.6335,-3.6858,-3.7543,0.0,0.0,0.0,0.0,0.0,0.0,0.0,0.0,0.0,-4.8728,-4.8199,-4.8063,-4.9689,-4.9883,-4.9972,-5.0487,-5.0274,-5.0007,-4.9766,-4.9309,-4.863,0.0,0.0,0.0,0.0,0.0,0.0,0.0,0.0,0.0,0.0,0.0,0.0,0.0,0.0,0.0,0.0,0.0,0.0,0.0,0.0,0.0,0.0,0.0,0.0,0.0,0.0,0.0,-4.0721,-4.0424,0.0,0.0,0.0,0.0,0.0,0.0,0.0,0.0,0.0,0.0,0.0,-4.4993,-4.476,0.0,0.0,0.0,0.0,0.0,0.0,0.0,0.0,0.0,0.0,0.0,0.0,-4.8312,-5.021,-5.227,-5.398,-5.5302,-5.5757,-5.5852,-5.5587,-5.3964,-5.1684,-4.8726,0.0,0.0,0.0,0.0,0.0,0.0,0.0,0.0,0.0,0.0,0.0,0.0,0.0,0.0,0.0,0.0,0.0,0.0,0.0,0.0,0.0,0.0,0.0,0.0,0.0,-3.7682,0.0,0.0,0.0,0.0,0.0,0.0,0.0,0.0,0.0,0.0,-4.5518,-4.6701,-4.7568,-4.8696,-4.9358,-4.9256,-5.0047,-5.0632,0.0,0.0,0.0,0.0,0.0,0.0,0.0,0.0,0.0,0.0,0.0,0.0,0.0,0.0,-4.9743,-4.866,-4.8388,-4.8317,-4.8529,0.0,0.0,0.0,0.0,0.0,0.0,0.0,0.0,0.0,0.0,0.0,0.0,0.0,0.0,-4.3184,-4.3207,-4.3104,0.0,0.0,0.0,0.0,0.0,0.0,0.0,0.0,-4.5768,-4.688,-4.8203,-4.7757,-4.7757,-4.8203,-4.8111,-4.7346,0.0,0.0,0.0,0.0,0.0,0.0,0.0,0.0,-4.9859,-5.1751,-5.3885,-5.5592,-5.6844,-5.71,-5.7061,-5.6762,-5.4365,-5.2049,-4.9826,-4.8158,-4.6884,0.0,0.0,0.0,0.0,0.0,0.0,0.0,0.0,0.0,0.0,0.0,0.0,0.0,0.0,0.0,0.0,0.0,0.0,0.0,0.0,0.0,0.0,0.0,-3.8859,0.0,0.0,0.0,0.0,0.0,0.0,0.0,0.0,0.0,-4.5009,-4.6383,-4.7602,-4.8266,-4.9522,-5.0316,-5.0152,0.0,0.0,0.0,0.0,0.0,0.0,0.0,-5.1349,-5.0844,-5.0688,-5.0533,-5.0126,-5.0594,-5.1104,-5.1361,0.0,0.0,-5.0043,-4.9675,-4.9538,-4.9417,-4.9616,-4.9812,-4.9812,-5.0082,-5.0389,0.0,0.0,0.0,0.0,-4.6684,0.0,0.0,0.0,-4.6184,-4.619,0.0,-4.5959,0.0,0.0,0.0,0.0,-4.3746,-4.4906,0.0,0.0,-4.8677,-5.002,-5.1665,-5.1731,-5.1765,-5.1765,-5.1295,-5.075,-5.0034,-4.8546,0.0,0.0,0.0,0.0,0.0,0.0,-5.2039,-5.2161,-5.5506,-5.7356,-5.7457,-5.7902,-5.7753,-5.6954,-5.4107,-5.258,-5.2557,-5.0525,-4.936,-4.926,-4.7546,0.0,0.0,0.0,0.0,0.0,0.0,0.0,0.0,0.0,0.0,0.0,0.0,0.0,0.0,0.0,0.0,0.0,0.0,0.0,0.0,-3.9996,0.0,0.0,0.0,0.0,0.0,0.0,0.0,0.0,0.0,-4.599,-4.6748,-4.7375,-4.8561,-5.0704,0.0,0.0,0.0,0.0,-5.2455,-5.4012,-5.3792,-5.3665,-5.4582,-5.4382,-5.3851,-5.3044,0.0,0.0,-5.2633,-5.2687,-5.2768,-5.28,-5.2617,-5.2155,-5.1001,-5.0805,-5.0576,-4.9987,-5.0376,-5.0739,-5.0805,-5.1324,-5.1754,-5.3002,0.0,0.0,0.0,0.0,-4.9661,-5.0196,-5.1419,-5.0509,-4.9707,-4.904,-4.8456,0.0,0.0,0.0,0.0,0.0,0.0,-4.826,-5.0488,-5.0782,-5.1949,-5.372,-5.3245,-5.3279,-5.3754,-5.365,-5.3445,-5.3307,-5.3343,-5.1782,-4.8738,0.0,0.0,0.0,0.0,-5.4148,-5.5451,-5.7254,-5.8634,-5.9633,-5.917,-5.8208,-5.6829,-5.5426,-5.4,-5.2547,-5.1883,-5.0822,-4.9393,-4.8825,0.0,0.0,0.0,0.0,0.0,0.0,0.0,0.0,0.0,0.0,0.0,0.0,0.0,0.0,0.0,0.0,0.0,0.0,0.0,-4.1729,-4.2137,-4.2173,0.0,0.0,0.0,0.0,0.0,0.0,0.0,0.0,0.0,-4.9093,-4.8928,-4.9426,0.0,0.0,-5.2378,-5.3432,-5.3675,-5.3779,-5.3977,-5.3893,0.0,-5.3896,-5.3962,-5.3896,-5.3662,-5.3601,-5.3518,-5.3323,-5.3207,-5.3168,-5.3168,-5.313,-5.2929,-5.2681,-5.2551,-5.2454,-5.2324,-5.2421,-5.2551,-5.2584,-5.2861,-5.3198,-5.7235,-5.4309,-5.3538,-5.3583,-5.4186,-5.35,-5.3958,-5.51,-5.3878,-5.3107,-5.2683,-5.1714,-5.0397,-4.889,-4.8444,0.0,0.0,0.0,-5.0799,-5.2833,-5.2833,-5.3923,-5.5784,-5.5446,-5.5615,-5.6292,-5.6055,-5.575,-5.548,-5.5755,-5.4631,-5.2166,0.0,-5.2008,-5.252,-5.4249,-5.5723,-5.6977,-5.8639,-5.9923,-6.069,-6.009,-5.8997,-5.7448,-5.6492,-5.5326,-5.3841,-5.3138,-5.221,-5.0988,-5.0158,-4.9459,0.0,0.0,0.0,0.0,0.0,0.0,0.0,0.0,0.0,0.0,0.0,-4.3126,-4.2665,0.0,0.0,0.0,-4.4271,-4.4125,-4.386,-4.3869,0.0,0.0,0.0,0.0,0.0,0.0,0.0,-4.7144,-4.8596,-5.0021,-5.128,-5.1082,-5.1317,-5.2692,-5.3116,-5.3512,-5.4197,0.0,-5.4364,-5.4628,-5.4503,-5.4409,-5.4671,-5.4659,-5.4652,-5.4502,-5.4384,-5.4305,-5.4305,-5.4226,-5.4146,-5.4146,-5.4107,-5.4146,-5.4139,-5.4146,-5.392,-5.3427,-5.3751,-5.4107,-5.4146,-5.4453,-5.4962,-6.0634,-6.0462,-5.8447,-5.775,-5.7907,-5.7241,-5.7192,-5.7567,-5.6643,-5.6391,-5.6505,-5.5337,-5.416,-5.3026,-5.2042,0.0,-5.2227,-5.2821,-5.3752,-5.4904,-5.4904,-5.6019,-5.798,-5.8014,-5.8386,-5.9028,-5.8389,-5.7712,-5.707,-5.671,-5.6474,-5.6406,-5.5553,-5.4838,-5.4487,-5.6131,-5.7075,-5.7284,-5.9768,-6.1026,-6.1054,-6.0763,-5.9868,-5.8528,-5.7343,-5.6464,-5.5884,-5.4406,-5.3566,-5.3434,-5.1685,-5.0624,-5.0525,0.0,0.0,0.0,0.0,0.0,0.0,0.0,0.0,0.0,0.0,0.0,0.0,0.0,0.0,0.0,-4.683,0.0,-4.6144,-4.5481,0.0,0.0,0.0,-4.6609,-4.8001,-4.8266,-4.8862,-5.0186,0.0,0.0,-5.3235,-5.3533,-5.3864,-5.4593,-5.4477,-5.4444,-5.4918,-5.4538,-5.4547,-5.5733,-5.5452,-5.5339,-5.5982,-5.5876,-5.5555,-5.532,-5.5409,-5.5312,-5.5312,-5.5345,-5.5377,-5.5312,-5.5377,-5.5377,-5.5377,-5.5312,-5.5021,-5.3751,-5.4503,-5.5377,-5.5345,-5.583,-5.6552,-6.4606,-6.465,-6.4354,-6.244,-5.9665,-5.9593,-5.9838,-6.029,-5.9631,-5.8973,-5.8318,-5.7459,-5.6221,-5.481,-5.4928,-5.4904,-5.4771,-5.5343,-5.6277,-5.7469,-5.7502,-5.8073,-5.9118,-5.9266,-5.9443,-5.9616,-5.9599,-5.9471,-5.9302,-5.9208,-5.8945,-5.8581,-5.8341,-5.77,-5.6781,-5.8392,-5.9382,-5.9596,-6.0928,-6.1656,-6.1733,-6.0611,-5.9722,-5.9265,-5.773,-5.6616,-5.5917,-5.5364,-5.4787,-5.4225,-5.3271,-5.2513,-5.2089,-5.0192,0.0,0.0,0.0,0.0,0.0,0.0,0.0,0.0,0.0,-4.6578,-4.6041,0.0,-4.7005,0.0,-4.8316,-4.8858,-4.8561,-4.8361,0.0,0.0,-4.8067,-4.8597,-4.9354,-5.0582,-5.1444,-5.1633,-5.2732,-5.3699,-5.4195,-5.4721,-5.5355,-5.6051,-5.5648,-5.5554,-5.6316,-5.6106,-5.5907,-5.615,-5.5903,-5.5691,-5.5927,-5.5685,-5.5483,-5.5409,-5.5409,-5.5409,-5.5409,-5.5409,-5.5409,-5.5409,-5.5409,-5.5409,-5.5409,-5.5409,-5.5312,-5.4988,-5.5183,-5.5409,-5.5409,-5.5992,-5.6705,-6.6125,-6.6478,-6.6318,-6.4893,-6.2739,-6.2751,-6.2683,-6.2505,-6.1779,-6.112,-6.0566,-5.9323,-5.8256,-5.7432,-5.7533,-5.7457,-5.7311,-5.7839,-5.8504,-5.9127,-5.9084,-5.9415,-6.0119,-6.0494,-6.083,-6.1132,-6.0914,-6.0824,-6.0824,-6.0487,-6.0228,-6.0013,-6.0689,-6.0646,-5.9963,-6.0281,-6.0419,-6.0271,-6.1257,-6.1877,-6.1969,-6.0808,-5.9823,-5.9146,-5.785,-5.6709,-5.5786,-5.5345,-5.4904,-5.4506,-5.3803,-5.327,-5.2939,-5.1564,-5.0622,0.0,0.0,0.0,0.0,0.0,0.0,0.0,0.0,0.0,0.0,0.0,-4.8517,-4.8818,-4.9758,-5.0192,-4.9792,-5.0058,-5.0157,-4.9989,-5.0585,-5.1278,-5.19,-5.2765,-5.3397,-5.3618,-5.4419,-5.5085,-5.5421,-5.5852,-5.6216,-5.6614,-5.6272,-5.6134,-5.6542,-5.6402,-5.6126,-5.6126,-5.5846,-5.5775,-5.6067,-5.5977,-5.5936,-5.6018,-5.5936,-5.5839,-5.5629,-5.545,-5.5409,-5.5409,-5.5409,-5.5409,-5.5409,-5.5409,-5.5409,-5.5409,-5.5409,-5.5539,-5.583,-5.6478,-5.7126,-6.6566,-6.7083,-6.6428,-6.6117,-6.5979,-6.5812,-6.5262,-6.4352,-6.3478,-6.3025,-6.2852,-6.1112,-6.028,-6.0141,-5.9848,-5.9664,-5.9522,-6.0118,-6.0347,-6.0309,-6.0213,-6.0466,-6.1144,-6.1683,-6.2264,-6.2865,-6.2312,-6.2011,-6.1977,-6.1281,-6.1065,-6.1256,-6.2474,-6.3024,-6.2855,-6.1884,-6.1038,-6.0356,-6.1266,-6.1877,-6.2043,-6.1009,-5.9967,-5.8976,-5.7846,-5.6808,-5.5817,-5.504,-5.4668,-5.4599,-5.3957,-5.3551,-5.3585,-5.2842,-5.2403,0.0,-5.1795,0.0,0.0,0.0,0.0,0.0,0.0,0.0,0.0,-4.9483,-5.0091,-5.0727,-5.1223,-5.1352,-5.0886,-5.1383,-5.1978,-5.2572,-5.3268,-5.3964,-5.4523,-5.4725,-5.5019,-5.5648,-5.5714,-5.6017,-5.6547,-5.668,-5.668,-5.668,-5.6525,-5.6336,-5.633,-5.6086,-5.5886,-5.5839,-5.5645,-5.5685,-5.6172,-5.6325,-5.6366,-5.6531,-5.6375,-5.6237,-5.5783,-5.5564,-5.5409,-5.5409,-5.5409,-5.5409,-5.5409,-5.5409,-5.5409,-5.5409,-5.5507,-5.5798,-5.6349,-5.6996,-5.7579,-6.7738,-6.7876,-6.7738,-6.7246,-6.6539,-6.6518,-6.6152,-6.5541,-6.5365,-6.4951,-6.4258,-6.3174,-6.223,-6.1568,-6.1923,-6.1515,-6.0666,-6.1335,-6.1553,-6.1388,-6.1788,-6.2073,-6.224,-6.2933,-6.3291,-6.3466,-6.3701,-6.3683,-6.3476,-6.2945,-6.2778,-6.283,-6.26,-6.26,-6.2851,0.0,0.0,0.0,-6.1552,-6.1796,-6.224,-6.068,-5.9979,-6.0254,-5.8201,0.0,-5.6741,-5.5853,-5.5411,-5.5377,-5.4562,0.0,0.0,0.0,0.0,0.0,0.0,0.0,0.0,0.0,0.0,0.0,-5.2236,-5.1764,-5.0816,-5.0816,-5.1459,-5.2741,-5.2875,-5.3206,-5.4104,-5.4159,-5.4147,-5.4129,-5.4759,-5.5251,-5.5383,-5.5918,-5.6349,-5.6448,-5.6481,-5.6514,-5.6647,-5.668,-5.668,-5.6641,-5.6525,-5.6362,-5.6165,-5.6086,-5.6046,-5.6006,-5.5806,-5.5791,-5.5921,-5.5823,-5.5848,-5.588,-5.5799,-5.5645,-5.5515,-5.545,-5.5409,-5.5409,-5.5409,-5.5409,-5.5409,-5.5409,-5.5442,-5.5409,-5.5895,-5.6349,-5.6478,-5.7061,-5.7741,-6.9015,-6.867,-6.867,-6.8137,0.0,-6.725,-6.701,-6.6632,-6.5877,-6.5083,-6.4213,-6.3154,-6.2416,-6.1961,-6.2133,-6.207,-6.187,-6.224,-6.2528,-6.2773,-6.2966,-6.3049,-6.3082,-6.3815,-6.4105,-6.3976,-6.4352,-6.4361,-6.4114,-6.3542,-6.3342,-6.3474,-6.3474,-6.3605,-6.389,-6.389,-6.3469,-6.2586,-6.213,-6.1897,-6.1843,-6.0622,-6.0,-6.0009,-5.8477,0.0,0.0,0.0,0.0,0.0,0.0,0.0,0.0,-5.4587,0.0,-5.4508,-5.4207,-5.3971,-5.383,-5.383,-5.383,-5.383,-5.4008,-5.3713,-5.2673,-5.2841,-5.3241,-5.3908,-5.3902,-5.4095,-5.4722,-5.5011,-5.5132,-5.509,-5.5719,-5.615,-5.6183,-5.6448,-5.668,-5.668,-5.668,-5.668,-5.6564,-5.6564,-5.6486,-5.6408,-5.6244,-5.6086,-5.5966,-5.5927,-5.5927,-5.5806,-5.5685,-5.5734,-5.6059,-5.6042,-5.601,-5.6206,-5.6124,-5.588,-5.5669,-5.5523,-5.5409,-5.5409,-5.5409,-5.5507,-5.583,-5.5668,-5.5636,-5.6251,-5.6478,-5.6802,-5.732,-5.7838,-5.8065,-6.9842,-6.9291,-6.9256,-6.8647,-6.7799,-6.7856,-6.7694,-6.7243,-6.592,0.0,0.0,-6.2938,-6.2401,-6.2401,-6.2192,-6.2446,-6.2974,-6.3007,-6.3308,-6.3911,-6.3833,-6.3815,-6.3848,-6.4504,-6.475,-6.4608,-6.4794,-6.4794,-6.4575,-6.3846,-6.3667,-6.3929,-6.4438,-6.479,-6.4987,-6.4461,-6.3961,-6.3552,-6.256,-6.1856,-6.1432,-6.0672,-6.009,-5.9739,-5.8868,-5.8014,-5.7097,-5.6829,-5.6423,-5.585,-5.5646,-5.5611,-5.5677,-5.5566,-5.5526,-5.5624,-5.5478,-5.5295,-5.5151,-5.5114,-5.5151,-5.5188,-5.5332,-5.511,-5.4309,-5.4634,-5.4855,-5.4841,-5.4767,-5.4796,-5.4928,-5.5454,-5.5819,-5.5781,-5.6349,-5.668,-5.668,-5.668,-5.668,-5.668,-5.668,-5.6641,-5.6486,-5.6441,-5.633,-5.6205,-5.6046,-5.5904,-5.5929,-5.5823,-5.5645,-5.5491,-5.545,-5.5636,-5.6131,-5.6219,-5.6366,-5.6442,-5.6384,-5.6172,-5.5807,-5.5531,-5.5409,-5.5409,-5.5507,-5.5798,-5.6187,-5.6057,-5.6154,-5.7191,-5.7158,-5.7191,-5.8249,-5.8702,-5.868,-6.9394,-6.9291,-6.902,-6.8526,-6.7793,-6.811,-6.7633,-6.661,-6.6098,-6.582,-6.561,-6.4416,-6.3874,-6.3874,-6.3701,-6.3643,-6.3743,-6.3743,-6.381,-6.3944,-6.4367,-6.4581,-6.4571,-6.5061,-6.5304,-6.526,-6.5525,-6.5514,-6.5238,-6.475,-6.4717,-6.5006,-6.4641,-6.4674,-6.5282,-6.5216,-6.4895,-6.4251,-6.2152,-6.1272,-6.1635,-6.0645,-6.0401,-6.0878,-5.9553,-5.8747,-5.8586,-5.7403,-5.666,-5.6525,-5.5808,-5.5631,-5.609,-5.5973,-5.6054,-5.6469,-5.6497,-5.6459,-5.642,-5.642,-5.6497,-5.6687,-5.6725,-5.6308,-5.5326,-5.5116,-5.5381,-5.6093,-5.5866,-5.5984,-5.6549,-5.6563,-5.6481,-5.6514,-5.6614,-5.668,-5.668,-5.668,-5.668,-5.668,-5.668,-5.668,-5.6636,-5.6447,-5.633,-5.6323,-5.6151,-5.6195,-5.6385,-5.5962,-5.5515,-5.5409,-5.5409,-5.5556,-5.5799,-5.5726,-5.5718,-5.5888,-5.5726,-5.5604,-5.5483,-5.545,-5.5442,-5.5442,-5.5895,-5.6122,-5.5895,-5.6575,-5.6964,-5.7093,-5.7579,-5.8281,-5.8637,-5.909,-5.9457,-7.0753,-7.0126,-6.9967,-6.927,-6.8243,-6.8282,-6.7988,-6.7466,-6.7185,-6.6388,-6.5211,-6.417,-6.3709,-6.3709,-6.3615,-6.3805,-6.4171,-6.4138,-6.4371,-6.4694,-6.4972,-6.5061,-6.5094,-6.5437,-6.5559,-6.5425,-6.5647,-6.5847,-6.5955,-6.5747,-6.5979,-6.6519,-6.5889,-6.5492,-6.5392,-6.5061,-6.4697,-6.4409,-6.3339,-6.2532,-6.1983,-6.148,-6.1193,-6.1127,-6.0418,-5.9883,-5.9482,-5.8847,-5.8112,-5.7348,-5.6901,-5.6625,-5.6449,-5.6374,-5.6464,-5.6647,-5.668,-5.668,-5.668,-5.668,-5.6757,-5.6834,-5.6834,-5.6682,-5.6278,-5.6207,-5.6267,-5.6567,-5.6445,-5.643,-5.6801,-5.6757,-5.668,-5.668,-5.668,-5.668,-5.668,-5.668,-5.668,-5.668,-5.6603,-5.6486,-5.6402,-5.6205,-5.6006,-5.5927,-5.6059,-5.6442,-5.6644,-5.6658,-5.6413,-5.6057,-5.5701,-5.5483,-5.5564,-5.5523,-5.5483,-5.5604,-5.5483,-5.5409,-5.5409,-5.5409,-5.5571,-5.5928,-5.6316,-5.6705,-5.6899,-5.732,-5.7676,-5.8324,-5.8292,-5.8702,-5.909,-5.9522,-5.9684,-7.1542,-7.0652,-7.0652,-6.9964,-6.8852,-6.8462,-6.8294,-6.8204,-6.7778,-6.6689,-6.5159,-6.4486,-6.4167,-6.4034,-6.4001,-6.4233,-6.4564,-6.4564,-6.4862,-6.5392,-6.5425,-6.5425,-6.5425,-6.5603,-6.5603,-6.5503,-6.5769,-6.6168,-6.6485,-6.6684,-6.6904,-6.7235,-6.6784,-6.6154,-6.5425,-6.4895,-6.463,-6.463,-6.4597,-6.3945,-6.252,-6.2321,-6.1914,-6.1384,-6.1185,-6.0854,-6.0291,-6.0092,-5.9463,-5.8369,-5.8138,-5.7773,-5.721,-5.7177,-5.7177,-5.7177,-5.7177,-5.7111,-5.6945,-5.6779,-5.668,-5.668,-5.6846,-5.7022,-5.7143,-5.7143,-5.7038,-5.6829,-5.6724,-5.6719,-5.6719,-5.668,-5.668,-5.668,-5.668,-5.668,-5.668,-5.668,-5.668,-5.6641,-5.6519,-5.629,-5.6126,-5.5927,-5.5823,-5.5848,-5.6284,-5.6737,-5.6996,-5.7288,-5.7103,-5.6802,-5.6122,-5.5636,-5.5474,-5.5409,-5.5409,-5.5409,-5.5409,-5.5409,-5.5442,-5.5507,-5.583,-5.6349,-5.6802,-5.7255,-5.813,-5.8292,-5.8421,-5.9036,-5.8993,-5.9058,-5.9522,-5.964,-5.9673,-7.0284,-7.0172,-7.0206,-7.0005,-6.9559,-6.8696,-6.8192,-6.7911,-6.7086,-6.6552,-6.6365,-6.6949,-6.6751,-6.6287,-6.6121,-6.579,-6.5293,-6.5326,-6.5326,-6.5392,-6.5425,-6.5425,-6.5425,-6.5425,-6.5425,-6.5492,-6.6022,-6.6386,-6.6618,-6.7247,-6.7168,-6.6639,-6.6552,-6.6154,-6.5492,-6.5326,-6.5293,-6.5326,-6.5326,-6.463,-6.3282,-6.251,-6.2188,-6.2122,-6.145,-6.1086,-6.0953,-6.0357,-5.996,-5.9761,-5.9131,-5.8767,-5.8668,-5.8668,-5.8668,-5.8668,-5.8668,-5.8436,-5.774,-5.7077,-5.6746,-5.6746,-5.7342,-5.7707,-5.7713,-5.7713,-5.7493,-5.7072,-5.6829,-5.668,-5.668,-5.668,-5.668,-5.668,-5.668,-5.668,-5.668,-5.668,-5.6641,-5.648,-5.6468,-5.6323,-5.6217,-5.6082,-5.6043,-5.639,-5.7029,-5.7644,-5.799,-5.7504,-5.7093,-5.7255,-5.6867,-5.6154,-5.5604,-5.5409,-5.5409,-5.5409,-5.5409,-5.5442,-5.5571,-5.5992,-5.6478,-5.6867,-5.7547,-5.813,-5.8227,-5.8518,-5.9231,-5.9069,-5.9219,-5.9575,-5.9673,-5.9673,-5.9673,-7.0591,-7.032,-7.032,-6.9858,-6.9136,-6.8665,-6.824,-6.775,-6.736,-6.7181,-6.7168,-6.7466,-6.6982,-6.5889,-6.5856,-6.569,-6.5425,-6.5425,-6.5425,-6.5425,-6.5425,-6.5425,-6.5425,-6.5425,-6.5425,-6.5425,-6.5724,-6.6275,-6.7202,-6.8341,-6.8341,-6.7235,-6.7135,-6.6539,-6.5525,-6.5425,-6.5425,-6.5425,-6.5425,-6.5127,-6.4498,-6.3448,-6.2652,-6.2188,-6.1483,-6.1119,-6.1086,-6.0788,-6.0456,-6.0026,-5.9694,-5.9363,-5.8933,-5.8899,-5.8899,-5.8899,-5.8899,-5.8767,-5.8469,-5.8138,-5.8005,-5.8005,-5.827,-5.8436,-5.8403,-5.8038,-5.768,-5.7493,-5.7022,-5.668,-5.6713,-5.668,-5.668,-5.668,-5.668,-5.6674,-5.6525,-5.6636,-5.6696,-5.681,-5.6796,-5.6912,-5.707,-5.6995,-5.6959,-5.7233,-5.7741,-5.8313,-5.8508,-5.8324,-5.7947,-5.7431,-5.6991,-5.6389,-5.5619,-5.5409,-5.5409,-5.5409,-5.5409,-5.5474,-5.5983,-5.6219,-5.6705,-5.7547,-5.8184,-5.8734,-5.8939,-5.9134,-5.9587,-5.9328,-5.9317,-5.9673,-5.9673,-5.9673,-5.9673,-7.0654,-7.033,-7.0283,-6.9796,-6.897,-6.8771,-6.8407,-6.7877,-6.7512,-6.7314,-6.7314,-6.7115,-6.6452,-6.5525,-6.5624,-6.5624,-6.5425,-6.5425,-6.5425,-6.5425,-6.5425,-6.5425,-6.5425,-6.5425,-6.5425,-6.5459,-6.5657,-6.6485,-6.7877,-6.8904,-6.8937,-6.8009,-6.7711,-6.6937,-6.5823,-6.5558,-6.5425,-6.5425,-6.5425,-6.5425,-6.5227,-6.4233,-6.3206,-6.252,-6.1583,-6.1119,-6.1119,-6.1119,-6.0854,-6.0357,-6.0291,-6.0059,-5.9562,-5.9496,-5.9529,-5.9496,-5.9297,-5.9198,-5.9198,-5.8999,-5.8899,-5.8899,-5.8899,-5.8999,-5.9032,-5.8502,-5.8237,-5.8369,-5.7707,-5.7243,-5.6713,-5.668,-5.668,-5.668,-5.6812,-5.6939,-5.6855,-5.7027,-5.7305,-5.7412,-5.7388,-5.7429,-5.7744,-5.7803,-5.7838,-5.7935,-5.8367,-5.8777,-5.8733,-5.8827,-5.847,-5.7527,-5.7151,-5.6413,-5.5518,-5.5422,-5.5463,-5.556,-5.5615,-5.6066,-5.6602,-5.6731,-5.7074,-5.799,-5.8561,-5.8928,-5.9295,-5.9587,-5.9716,-5.9716,-5.9673,-5.9673,-5.9673,-5.9673,-5.9673,-6.9813,-6.9813,-6.9846,-6.9746,-6.9666,-6.8937,-6.8606,-6.8241,-6.7115,-6.6552,-6.6485,-6.5889,-6.5492,-6.5459,-6.6055,-6.6055,-6.5492,-6.5425,-6.5425,-6.5425,-6.5425,-6.5425,-6.5425,-6.5425,-6.5425,-6.5459,-6.5989,-6.7049,-6.844,-6.8672,-6.8705,-6.8539,-6.7877,-6.7135,-6.6386,-6.569,-6.5425,-6.5425,-6.5425,-6.5425,-6.5326,-6.4697,-6.3935,-6.314,-6.1848,-6.1152,-6.1119,-6.1119,-6.1086,-6.1053,-6.102,-6.0986,-6.0953,-6.0953,-6.092,-6.0887,-6.0324,-5.996,-5.986,-5.9396,-5.9032,-5.8966,-5.9098,-5.9231,-5.9827,-5.9297,-5.9131,-5.9761,-5.9032,-5.8138,-5.7077,-5.6945,-5.684,-5.6873,-5.7336,-5.7668,-5.7701,-5.803,-5.833,-5.815,-5.8008,-5.7972,-5.7761,-5.8162,-5.8475,-5.8626,-5.8947,-5.9202,-5.9061,-5.853,-5.8044,-5.7788,-5.7233,-5.6445,-5.5229,-5.5515,-5.5826,-5.5922,-5.6328,-5.6744,-5.714,-5.7547,-5.7956,-5.8441,-5.8947,-5.9358,-5.9608,-5.9673,-5.9716,-5.9673,-5.9673,-5.9673,-5.9673,-5.9673,-5.9673,-6.9069,-6.9136,-6.9599,-6.9268,-6.8407,-6.8109,-6.7479,-6.6585,-6.6055,-6.5823,-6.5757,-6.5525,-6.5425,-6.5425,-6.569,-6.5657,-6.5425,-6.5425,-6.5425,-6.5425,-6.5425,-6.5425,-6.5425,-6.5425,-6.5425,-6.5459,-6.5646,-6.632,-6.7247,-6.7777,-6.7744,-6.7347,-6.7049,-6.6552,-6.5889,-6.5558,-6.5425,-6.5425,-6.5425,-6.5425,-6.5359,-6.473,-6.4034,-6.3348,-6.2354,-6.1583,-6.1119,-6.1119,-6.1119,-6.1119,-6.1119,-6.1119,-6.1119,-6.1119,-6.1119,-6.1086,-6.0854,-6.0721,-6.0688,-6.0456,-6.0324,-6.0324,-6.0324,-6.0324,-6.0523,-6.0059,-5.9728,-5.9827,-5.933,-5.8601,-5.8263,-5.7985,-5.7825,-5.7738,-5.7895,-5.8018,-5.7937,-5.8125,-5.8371,-5.8492,-5.8744,-5.9026,-5.895,-5.9166,-5.9208,-5.9109,-5.9214,-5.9209,-5.9107,-5.8627,-5.8204,-5.7777,-5.737,-5.6759,-5.5915,-5.6144,-5.6497,-5.6529,-5.6797,-5.7149,-5.7501,-5.7724,-5.8069,-5.8562,-5.9145,-5.9298,-5.9407,-5.9584,-5.9584,-5.9628,-5.9628,-5.9628,-5.9673,-5.9673,-5.9673,-6.9036,-6.9136,-6.9599,-6.9235,-6.8341,-6.8042,-6.7281,-6.6154,-6.5889,-6.5657,-6.5459,-6.5425,-6.5425,-6.5425,-6.5425,-6.5425,-6.5425,-6.5425,-6.5425,-6.5425,-6.5425,-6.5425,-6.5425,-6.5425,-6.5425,-6.5425,-6.5425,-6.579,-6.644,-6.7003,-6.7115,-6.687,-6.6606,-6.6287,-6.5823,-6.5558,-6.5425,-6.5425,-6.5425,-6.5381,-6.527,-6.4917,-6.4321,-6.3583,-6.3053,-6.2151,-6.106,-6.0919,-6.0919,-6.0961,-6.0961,-6.1002,-6.1119,-6.1119,-6.1119,-6.1119,-6.1119,-6.1119,-6.1119,-6.1119,-6.1086,-6.1086,-6.0854,-6.0821,-6.0986,-6.0456,-6.0191,-6.0158,-5.9878,-5.9473,-5.935,-5.9185,-5.8897,-5.8453,-5.8445,-5.8493,-5.8367,-5.8638,-5.8828,-5.8993,-5.9328,-5.9652,-5.9673,-5.9596,-5.9431,-5.9331,-5.9197,-5.9017,-5.8882,-5.8655,-5.8423,-5.7902,-5.7747,-5.7435,-5.7069,-5.7217,-5.7096,-5.7064,-5.7299,-5.7599,-5.7771,-5.7962,-5.8198,-5.869,-5.8927,-5.9062,-5.9197,-5.9331,-5.9452,-5.9496,-5.954,-5.9464,-5.9552,-5.9673,-5.9628,-6.9732,-6.9666,-6.9798,-6.9699,-6.9401,-6.8837,-6.8241,-6.7413,-6.6771,-6.6154,-6.5624,-6.5492,-6.5525,-6.5425,-6.5425,-6.5425,-6.5425,-6.5425,-6.5425,-6.5425,-6.5425,-6.5425,-6.5425,-6.5425,-6.5425,-6.5425,-6.5425,-6.579,-6.6419,-6.6485,-6.6738,-6.7247,-6.6672,-6.6308,-6.6407,-6.5712,-6.5381,-6.5336,-6.5336,-6.5246,-6.5144,-6.518,-6.4784,-6.4012,-6.3836,-6.2881,-6.0906,-6.0604,-6.0647,-6.0675,-6.0783,-6.0835,-6.1102,-6.1069,-6.1077,-6.1035,-6.1077,-6.1077,-6.1044,-6.1035,-6.1035,-6.0969,-6.0448,-6.0407,-6.0804,-6.0481,-6.0316,-6.0696,-6.0712,-6.0544,-6.0299,-6.0053,-5.9628,-5.8848,-5.9011,-5.9212,-5.9301,-5.9706,-5.9946,-5.9696,-5.964,-5.9673,-5.9628,-5.9464,-5.9286,-5.9152,-5.8927,-5.8655,-5.861,-5.8427,-5.8289,-5.8257,-5.8131,-5.7941,-5.8053,-5.8226,-5.7814,-5.753,-5.7829,-5.8128,-5.8124,-5.8233,-5.8292,-5.8655,-5.8792,-5.8927,-5.8927,-5.9062,-5.9107,-5.9152,-5.9241,-5.9331,-5.9331,-5.9452,-5.9584,-6.9036,-6.9103,-6.9599,-6.95,-6.9036,-6.8771,-6.8274,-6.7599,-6.7301,-6.6883,-6.6254,-6.6187,-6.5889,-6.5492,-6.5425,-6.5425,-6.5425,-6.5425,-6.5425,-6.5425,-6.5425,-6.5425,-6.5425,-6.5425,-6.5425,-6.5425,-6.5425,-6.5525,-6.5724,-6.579,-6.5889,-6.5989,-6.5844,-6.57,-6.5552,-6.5288,-6.5111,-6.493,-6.493,-6.4885,-6.4839,-6.4885,-6.4523,-6.3809,-6.3609,-6.293,-6.1818,-6.135,-6.0945,-6.0529,-6.0998,-6.1304,-6.1281,-6.0886,-6.0623,-6.0591,-6.0623,-6.0623,-6.0623,-6.0666,-6.0666,-6.0591,-6.0393,-6.0393,-6.06,-6.052,-6.0496,-6.0675,-6.0633,-6.0633,-6.042,-6.0239,-5.9848,-5.9371,-5.9491,-5.9545,-5.9589,-5.9729,-5.9772,-5.9716,-5.9508,-5.9419,-5.9375,-5.9241,-5.9017,-5.8882,-5.8701,-5.8564,-5.8427,-5.8335,-5.8321,-5.8321,-5.8321,-5.8321,-5.8321,-5.8321,-5.8053,-5.7832,-5.8085,-5.8321,-5.8321,-5.8367,-5.8381,-5.8473,-5.861,-5.8701,-5.8746,-5.8792,-5.8837,-5.8927,-5.9017,-5.9062,-5.9139,-5.9229,-5.9363,-6.9103,-6.9136,-6.9599,-6.9533,-6.9103,-6.9103,-6.8672,-6.8076,-6.8009,-6.7446,-6.6651,-6.6519,-6.6121,-6.5525,-6.5425,-6.5425,-6.5425,-6.5425,-6.5336,-6.5291,-6.5381,-6.5425,-6.5381,-6.5291,-6.5336,-6.5447,-6.5601,-6.5568,-6.5425,-6.5601,-6.5556,-6.5312,-6.5201,-6.5066,-6.4963,-6.4963,-6.4839,-6.4748,-6.4702,-6.4623,-6.461,-6.4656,-6.4427,-6.3943,-6.3741,-6.3323,-6.2639,-6.1967,-6.1305,-6.0805,-6.0957,-6.1066,-6.1033,-6.0683,-6.0378,-6.0378,-6.0378,-6.042,-6.0378,-6.042,-6.0378,-6.0378,-6.0378,-6.0378,-6.042,-6.0548,-6.0506,-6.0463,-6.042,-6.0453,-6.0249,-6.0109,-5.9892,-5.9716,-5.9684,-5.9673,-5.9673,-5.9673,-5.9628,-5.9552,-5.9419,-5.9286,-5.9152,-5.8972,-5.8792,-5.8655,-5.8518,-5.8473,-5.8321,-5.8321,-5.8321,-5.8321,-5.8321,-5.8321,-5.8321,-5.8321,-5.8321,-5.8211,-5.8211,-5.8321,-5.8321,-5.8321,-5.8367,-5.8367,-5.8504,-5.8504,-5.855,-5.8596,-5.8642,-5.8746,-5.8792,-5.8837,-5.8837,-5.9004,-5.9139,-6.9765,-6.9798,-6.9798,-6.9765,-6.9732,-6.9732,-6.9368,-6.8804,-6.8738,-6.7976,-6.685,-6.6684,-6.6187,-6.5558,-6.5381,-6.5336,-6.5381,-6.5336,-6.5201,-6.5144,-6.5201,-6.5291,-6.5291,-6.5111,-6.5144,-6.5346,-6.575,-6.5717,-6.5324,-6.5684,-6.5791,-6.512,-6.4839,-6.4702,-6.4702,-6.4702,-6.4656,-6.461,-6.461,-6.4518,-6.4333,-6.4518,-6.4485,-6.4221,-6.4189,-6.3928,-6.3264,-6.2412,-6.1665,-6.1162,-6.0892,-6.0783,-6.0629,-6.0531,-6.0554,-6.0488,-6.0433,-6.0357,-6.04,-6.0249,-6.0292,-6.0249,-6.0292,-6.0335,-6.0292,-6.0335,-6.0335,-6.0249,-6.0239,-6.0109,-6.0066,-5.9892,-5.9716,-5.9716,-5.9673,-5.9673,-5.9673,-5.9673,-5.9552,-5.9375,-5.9286,-5.9197,-5.8972,-5.8746,-5.861,-5.8564,-5.8427,-5.8367,-5.8321,-5.8321,-5.8321,-5.8321,-5.8321,-5.8321,-5.8321,-5.8321,-5.8321,-5.8321,-5.8321,-5.8321,-5.8321,-5.8321,-5.8321,-5.8321,-5.8321,-5.8321,-5.8367,-5.8413,-5.8459,-5.8459,-5.8518,-5.8564,-5.8655,-5.8778,-5.8869,-6.9798,-6.9798,-6.9798,-6.9798,-6.9798,-6.9798,-6.9699,-6.95,-6.9467,-6.8639,-6.7546,-6.7301,-6.6539,-6.5447,-6.5201,-6.5189,-6.5144,-6.4976,-6.4885,-6.4839,-6.4839,-6.4852,-6.4885,-6.4839,-6.4839,-6.4918,-6.5102,-6.5003,-6.4885,-6.5102,-6.5056,-6.4826,-6.4767,-6.4597,-6.4472,-6.4491,-6.4333,-6.4226,-6.4179,-6.4211,-6.4132,-6.4132,-6.4132,-6.4085,-6.4085,-6.3988,-6.3761,-6.3034,-6.2275,-6.1685,-6.1503,-6.171,-6.1983,-6.1658,-6.1138,-6.0748,-6.0683,-6.0411,-5.9989,-5.9892,-5.9892,-5.9892,-5.9935,-5.9892,-5.9859,-6.0066,-6.0066,-5.9979,-5.9979,-6.0022,-5.9848,-5.976,-5.9716,-5.9673,-5.9673,-5.9673,-5.9673,-5.9508,-5.9375,-5.9286,-5.9017,-5.8837,-5.8701,-5.8518,-5.8413,-5.8381,-5.8367,-5.8321,-5.8321,-5.8321,-5.8321,-5.8321,-5.8321,-5.8321,-5.8321,-5.8321,-5.8321,-5.8321,-5.8321,-5.8321,-5.8321,-5.8321,-5.8321,-5.8321,-5.8321,-5.8321,-5.8321,-5.8367,-5.8321,-5.8321,-5.8367,-5.8427,-5.8381,-5.8459,-5.8564,-6.9798,-6.9798,-6.9798,-6.9798,-6.9798,-6.9798,-6.9798,-6.9798,-6.9765,-6.897,-6.7831,-6.7473,-6.668,-6.5346,-6.5054,-6.4963,-6.4918,-6.4793,-6.4623,-6.4518,-6.4426,-6.4518,-6.461,-6.4564,-6.4426,-6.4551,-6.4719,-6.4896,-6.4975,-6.4989,-6.5153,-6.5335,-6.5013,-6.4872,-6.5168,-6.5023,-6.4814,-6.4509,-6.4445,-6.4347,-6.4056,-6.4024,-6.4024,-6.4024,-6.3991,-6.3926,-6.357,-6.3408,-6.302,-6.2372,-6.2016,-6.2016,-6.234,-6.2048,-6.1498,-6.085,-6.0785,-6.0461,-5.9911,-5.9673,-5.9673,-5.9716,-5.9673,-5.9673,-5.9716,-5.9848,-5.9848,-5.976,-5.9848,-5.9848,-5.976,-5.9673,-5.9673,-5.9673,-5.9628,-5.9508,-5.9508,-5.9375,-5.9197,-5.9017,-5.8792,-5.8564,-5.8473,-5.8367,-5.8321,-5.8321,-5.8321,-5.8321,-5.8321,-5.8321,-5.8321,-5.8321,-5.8321,-5.8321,-5.8321,-5.8321,-5.8321,-5.8321,-5.8321,-5.8321,-5.8321,-5.8321,-5.8321,-5.8321,-5.8321,-5.8321,-5.8321,-5.8321,-5.8321,-5.8321,-5.8321,-5.8321,-5.8321,-5.8321,-5.8381,-6.9798,-6.9798,-6.9798,-6.9798,-6.9798,-6.9798,-6.9798,-6.9798,-6.9798,-6.897,-6.7784,-6.7367,-6.6417,-6.5087,-6.4793,-6.4656,-6.4656,-6.4564,-6.4472,-6.4286,-6.4179,-6.4291,-6.47,-6.45,-6.4374,-6.4565,-6.4864,-6.5251,-6.5411,-6.5458,-6.5784,-6.5931,-6.5447,-6.5481,-6.5788,-6.6015,-6.5708,-6.5222,-6.4915,-6.4704,-6.4283,-6.4121,-6.4024,-6.4024,-6.4024,-6.3764,-6.3505,-6.357,-6.3635,-6.302,-6.2372,-6.2242,-6.2178,-6.2081,-6.1595,-6.1077,-6.085,-6.0461,-5.9878,-5.9673,-5.9673,-5.9673,-5.9673,-5.9673,-5.9716,-5.9716,-5.9716,-5.9716,-5.9673,-5.9716,-5.9716,-5.9673,-5.9673,-5.9628,-5.9419,-5.9331,-5.9241,-5.9241,-5.9062,-5.8669,-5.8578,-5.8473,-5.8367,-5.8321,-5.8321,-5.8321,-5.8321,-5.8321,-5.8321,-5.8321,-5.8321,-5.8321,-5.8321,-5.8321,-5.8321,-5.8321,-5.8321,-5.8321,-5.8321,-5.8321,-5.8321,-5.8321,-5.8321,-5.8321,-5.8321,-5.8321,-5.8321,-5.8321,-5.8321,-5.8321,-5.8321,-5.8321,-5.8321,-5.8321,-5.8335,-6.9798,-6.9798,-6.9798,-6.9798,-6.9798,-6.9798,-6.9798,-6.9798,-6.9798,-6.8796,-6.7598,-6.732,-6.6292,-6.4748,-6.4518,-6.4426,-6.4379,-6.424,-6.4118,-6.4085,-6.4038,-6.4395,-6.4814,-6.4848,-6.4848,-6.501,-6.5594,-6.5885,-6.5966,-6.5934,-6.6064,-6.6145,-6.6145,-6.5967,-6.6161,-6.629,-6.6064,-6.5805,-6.5351,-6.4947,-6.4656,-6.425,-6.4024,-6.4024,-6.4024,-6.3959,-6.3862,-6.3926,-6.3926,-6.3764,-6.357,-6.3344,-6.3214,-6.2858,-6.2242,-6.1562,-6.1044,-6.0494,-5.9911,-5.9781,-5.9749,-5.9781,-5.9749,-5.9673,-5.9673,-5.9673,-5.9673,-5.9673,-5.9673,-5.9673,-5.9673,-5.9673,-5.9584,-5.9419,-5.9286,-5.912,-5.885,-5.8792,-5.8746,-5.861,-5.8427,-5.8367,-5.8321,-5.8321,-5.8321,-5.8321,-5.8321,-5.8321,-5.8321,-5.8321,-5.8321,-5.8321,-5.8321,-5.8321,-5.8321,-5.8321,-5.8321,-5.8321,-5.8321,-5.8321,-5.8321,-5.8321,-5.8321,-5.8321,-5.8321,-5.8321,-5.8321,-5.8321,-5.8321,-5.8321,-5.8321,-5.8321,-5.8321,-5.8321,-5.8321,-6.9751,-6.9655,-6.9607,-6.9526,-6.9463,-6.943,-6.9382,-6.9364,-6.9067,-6.8247,-6.7199,-6.6663,-6.5671,-6.4551,-6.4286,-6.4179,-6.4132,-6.4038,-6.4024,-6.4088,-6.4315,-6.4704,-6.5125,-6.5627,-6.5853,-6.553,-6.5675,-6.603,-6.6305,-6.6339,-6.642,-6.7003,-6.6776,-6.6873,-6.7068,-6.7035,-6.6938,-6.6517,-6.5902,-6.5416,-6.4995,-6.438,-6.4024,-6.4024,-6.4024,-6.4024,-6.3991,-6.4024,-6.4024,-6.4024,-6.4024,-6.3829,-6.3505,-6.3084,-6.2404,-6.1465,-6.14,-6.0915,-6.0429,-6.0235,-6.0235,-6.0202,-5.9943,-5.9749,-5.9673,-5.9673,-5.9673,-5.9673,-5.9673,-5.9673,-5.9508,-5.9508,-5.9375,-5.9197,-5.9062,-5.8882,-5.8655,-5.861,-5.8564,-5.8473,-5.8367,-5.8321,-5.8321,-5.8321,-5.8321,-5.8321,-5.8321,-5.8321,-5.8321,-5.8321,-5.8321,-5.8321,-5.8321,-5.8321,-5.8321,-5.8321,-5.8321,-5.8321,-5.8321,-5.8321,-5.8321,-5.8321,-5.8321,-5.8321,-5.8321,-5.8321,-5.8321,-5.8321,-5.8321,-5.8321,-5.8321,-5.8321,-5.8321,-5.8321,-5.8321,-6.9559,-6.9334,-6.9334,-6.9188,-6.8994,-6.8994,-6.9042,-6.8944,-6.8273,-6.7666,-6.6737,-6.5828,-6.5129,-6.437,-6.4085,-6.4056,-6.4185,-6.4218,-6.4283,-6.43,-6.4704,-6.506,-6.5481,-6.6242,-6.6742,-6.6093,-6.6304,-6.6626,-6.687,-6.6693,-6.7132,-6.791,-6.7651,-6.7553,-6.8039,-6.8136,-6.7813,-6.7294,-6.6647,-6.5934,-6.5287,-6.4606,-6.425,-6.4024,-6.4024,-6.4024,-6.4024,-6.4024,-6.4024,-6.4024,-6.4024,-6.3603,-6.3084,-6.2825,-6.2469,-6.1239,-6.1595,-6.1433,-6.1077,-6.0947,-6.0947,-6.0915,-6.0461,-6.0093,-6.0049,-6.0069,-6.0037,-5.9734,-5.9625,-5.9419,-5.9286,-5.9241,-5.9152,-5.8972,-5.8746,-5.861,-5.8564,-5.8564,-5.8473,-5.8367,-5.8321,-5.8321,-5.8321,-5.8321,-5.8321,-5.8321,-5.8321,-5.8321,-5.8321,-5.8274,-5.8274,-5.8228,-5.8228,-5.8011,-5.8011,-5.8011,-5.8058,-5.8228,-5.8228,-5.8274,-5.8274,-5.8321,-5.8321,-5.8321,-5.8321,-5.8321,-5.8321,-5.8321,-5.8321,-5.8321,-5.8321,-5.8321,-5.8321,-5.8321,-5.8321,-6.9091,-6.9042,-6.9042,-6.9042,-6.8994,-6.8994,-6.8945,-6.8895,-6.824,-6.7456,-6.6546,-6.5701,-6.4843,-6.4247,-6.4071,-6.4315,-6.4768,-6.4801,-6.4801,-6.4866,-6.5157,-6.5416,-6.6064,-6.6841,-6.7392,-6.773,-6.7648,-6.768,-6.781,-6.7942,-6.7795,-6.8104,-6.8039,-6.8054,-6.8136,-6.8201,-6.8136,-6.7845,-6.723,-6.655,-6.5837,-6.506,-6.4445,-6.4088,-6.4024,-6.4024,-6.4024,-6.4024,-6.4024,-6.4024,-6.4024,-6.3603,-6.3149,-6.2955,-6.2728,-6.234,-6.2016,-6.1821,-6.1646,-6.1582,-6.1627,-6.1627,-6.1355,-6.1265,-6.1128,-6.1082,-6.0637,-6.0128,-5.9601,-5.9158,-5.9094,-5.9178,-5.8959,-5.8778,-5.861,-5.8518,-5.8413,-5.8367,-5.8335,-5.8321,-5.8321,-5.8321,-5.8321,-5.8321,-5.8321,-5.8321,-5.8321,-5.8321,-5.8321,-5.8274,-5.8274,-5.8182,-5.8058,-5.7825,-5.7637,-5.7731,-5.7778,-5.8011,-5.8136,-5.8228,-5.8228,-5.8274,-5.8321,-5.8321,-5.8321,-5.8321,-5.8321,-5.8321,-5.8321,-5.8321,-5.8321,-5.8321,-5.8321,-5.8321,-5.8321,-6.8945,-6.8797,-6.8797,-6.8699,-6.86,-6.86,-6.86,-6.8437,-6.7492,-6.676,-6.6111,-6.5218,-6.4442,-6.4153,-6.4412,-6.493,-6.5351,-6.5109,-6.5206,-6.5513,-6.5967,-6.6258,-6.6711,-6.7359,-6.7813,-6.8104,-6.8201,-6.8201,-6.8201,-6.805,-6.8101,-6.8151,-6.8101,-6.805,-6.8201,-6.8201,-6.8201,-6.8039,-6.7521,-6.6841,-6.6064,-6.5125,-6.4347,-6.4121,-6.4024,-6.4024,-6.4024,-6.4024,-6.4024,-6.4024,-6.4024,-6.3797,-6.357,-6.3376,-6.3117,-6.2534,-6.2372,-6.228,-6.2188,-6.2142,-6.2095,-6.1938,-6.1713,-6.1441,-6.1349,-6.1192,-6.1081,-6.0636,-6.0412,-6.0046,-5.994,-5.9557,-5.926,-5.898,-5.868,-5.8444,-5.8321,-5.8321,-5.8321,-5.8321,-5.8321,-5.8321,-5.8321,-5.8321,-5.8321,-5.8321,-5.8321,-5.8321,-5.8321,-5.8274,-5.8274,-5.8043,-5.7918,-5.7778,-5.759,-5.759,-5.7637,-5.7825,-5.7965,-5.8089,-5.8228,-5.8274,-5.8321,-5.8321,-5.8321,-5.8321,-5.8321,-5.8321,-5.8321,-5.8321,-5.8321,-5.8321,-5.8321,-5.8321,-5.8321,-6.8699,-6.8501,-6.8501,-6.8401,-6.8251,-6.8201,-6.8104,-6.7748,-6.6679,-6.6031,-6.5708,-6.4639,-6.4056,-6.425,-6.4866,-6.5546,-6.6064,-6.5578,-6.5902,-6.6323,-6.6776,-6.7132,-6.7359,-6.7813,-6.8169,-6.8169,-6.8201,-6.8201,-6.8201,-6.805,-6.805,-6.8101,-6.7949,-6.7949,-6.8151,-6.8201,-6.8201,-6.8039,-6.7715,-6.7003,-6.5999,-6.493,-6.4121,-6.4024,-6.4024,-6.4024,-6.4024,-6.4024,-6.4024,-6.4024,-6.4024,-6.3991,-6.4024,-6.4024,-6.3473,-6.2599,-6.2779,-6.2866,-6.2743,-6.2649,-6.2569,-6.2395,-6.1852,-6.1628,-6.1438,-6.1455,-6.1184,-6.1167,-6.0865,-6.0676,-6.0375,-6.0074,-5.9663,-5.9285,-5.8858,-5.8479,-5.8352,-5.8321,-5.8321,-5.8321,-5.8321,-5.8321,-5.8321,-5.8321,-5.8321,-5.8321,-5.8321,-5.8321,-5.8321,-5.8321,-5.8228,-5.7918,-5.7731,-5.7731,-5.759,-5.7543,-5.7637,-5.7778,-5.7871,-5.7965,-5.8104,-5.8274,-5.8274,-5.8274,-5.8321,-5.8321,-5.8321,-5.8321,-5.8321,-5.8321,-5.8321,-5.8321,-5.8321,-5.8321,-5.8321,-6.8301,-6.8251,-6.8251,-6.8201,-6.8201,-6.8201,-6.7845,-6.7262,-6.6485,-6.574,-6.5189,-6.4412,-6.4024,-6.4315,-6.5287,-6.5902,-6.6193,-6.6388,-6.6614,-6.6906,-6.71,-6.723,-6.7327,-6.7877,-6.8169,-6.8201,-6.8201,-6.8201,-6.8151,-6.8101,-6.8101,-6.8151,-6.805,-6.8151,-6.8151,-6.8101,-6.8201,-6.8169,-6.8072,-6.7359,-6.6193,-6.5254,-6.4542,-6.4153,-6.4024,-6.4024,-6.4024,-6.4024,-6.4024,-6.4024,-6.4024,-6.4024,-6.4024,-6.4024,-6.3991,-6.3703,-6.3641,-6.3436,-6.3132,-6.302,-6.294,-6.2844,-6.2716,-6.2764,-6.2332,-6.1789,-6.147,-6.1342,-6.0947,-6.0693,-6.0677,-6.0345,-5.9886,-5.9602,-5.9349,-5.8906,-5.8622,-5.8812,-5.8748,-5.8496,-5.8559,-5.8401,-5.8306,-5.8274,-5.8321,-5.8321,-5.8321,-5.8321,-5.8274,-5.8274,-5.8182,-5.7871,-5.7637,-5.7543,-5.759,-5.7495,-5.7543,-5.7684,-5.7731,-5.7825,-5.8011,-5.8182,-5.8274,-5.8274,-5.8274,-5.8321,-5.8321,-5.8321,-5.8321,-5.8321,-5.8321,-5.8321,-5.8321,-5.8321,-5.8321,-6.8201,-6.8201,-6.8201,-6.8201,-6.8201,-6.8201,-6.7813,-6.7132,-6.642,-6.5708,-6.4995,-6.4315,-6.4218,-6.4527,-6.4963,-6.5351,-6.5902,-6.6129,-6.6517,-6.7132,-6.7262,-6.7392,-6.778,-6.8039,-6.8201,-6.8201,-6.8201,-6.8201,-6.8151,-6.7949,-6.7797,-6.7949,-6.7695,-6.7644,-6.8,-6.7848,-6.7949,-6.7874,-6.7424,-6.6711,-6.5999,-6.5092,-6.4347,-6.4024,-6.4024,-6.4024,-6.4024,-6.4024,-6.4024,-6.4024,-6.4024,-6.4024,-6.4024,-6.3976,-6.3944,-6.3755,-6.3628,-6.3437,-6.3196,-6.3083,-6.2905,-6.2759,-6.2759,-6.2597,-6.2499,-6.2211,-6.1972,-6.1972,-6.1719,-6.1498,-6.134,-6.1119,-6.0834,-6.0487,-6.0044,-5.9696,-5.9412,-5.9444,-5.9475,-5.9128,-5.8812,-5.8654,-5.8432,-5.8352,-5.8321,-5.8321,-5.8321,-5.8321,-5.8228,-5.8136,-5.8011,-5.7825,-5.759,-5.7448,-5.7448,-5.7448,-5.7527,-5.759,-5.759,-5.7684,-5.7918,-5.8058,-5.8104,-5.8228,-5.8274,-5.8274,-5.8274,-5.8321,-5.8321,-5.8321,-5.8321,-5.8321,-5.8321,-5.8321,-5.8321,-6.7942,-6.7942,-6.8136,-6.8201,-6.8201,-6.8201,-6.7813,-6.7132,-6.642,-6.5708,-6.4995,-6.4347,-6.4315,-6.4624,-6.4574,-6.5092,-6.6064,-6.5708,-6.6355,-6.71,-6.7489,-6.7748,-6.8007,-6.8201,-6.8201,-6.8201,-6.8201,-6.8201,-6.805,-6.7848,-6.7695,-6.7848,-6.7695,-6.7644,-6.7746,-6.7848,-6.7899,-6.8086,-6.7359,-6.6679,-6.6031,-6.5189,-6.4509,-6.4153,-6.4024,-6.4024,-6.4024,-6.4024,-6.4024,-6.4024,-6.4024,-6.3976,-6.3897,-6.3897,-6.3802,-6.366,-6.3517,-6.3389,-6.3148,-6.2905,-6.271,-6.2562,-6.2446,-6.2495,-6.2446,-6.2396,-6.2396,-6.2302,-6.227,-6.227,-6.227,-6.1877,-6.1529,-6.1182,-6.0834,-6.0581,-6.0329,-6.0202,-6.0012,-5.9665,-5.9317,-5.897,-5.8748,-5.8479,-5.8352,-5.8321,-5.8321,-5.8321,-5.826,-5.8152,-5.8201,-5.8201,-5.8325,-5.8072,-5.7822,-5.776,-5.7714,-5.7479,-5.7479,-5.7543,-5.7731,-5.7825,-5.7871,-5.8011,-5.8182,-5.8274,-5.8228,-5.8274,-5.8321,-5.8321,-5.8321,-5.8321,-5.8321,-5.8321,-5.8321,-6.7262,-6.7294,-6.791,-6.8136,-6.8169,-6.8201,-6.778,-6.7132,-6.642,-6.5675,-6.4898,-6.4347,-6.4056,-6.4218,-6.4591,-6.5157,-6.6031,-6.6744,-6.71,-6.7586,-6.8104,-6.7974,-6.8136,-6.8201,-6.8201,-6.8201,-6.8201,-6.8201,-6.8151,-6.7949,-6.7949,-6.8101,-6.7848,-6.805,-6.8101,-6.8,-6.8,-6.8119,-6.7698,-6.7068,-6.6388,-6.5675,-6.5157,-6.4218,-6.4024,-6.4024,-6.3976,-6.3976,-6.3929,-6.3929,-6.3882,-6.3802,-6.3707,-6.3802,-6.366,-6.3421,-6.3469,-6.3293,-6.3051,-6.2856,-6.2808,-6.271,-6.2562,-6.2396,-6.2396,-6.2396,-6.2396,-6.2396,-6.2396,-6.2396,-6.2365,-6.227,-6.1972,-6.1719,-6.1403,-6.1213,-6.0929,-6.0708,-6.0487,-6.017,-5.9886,-5.9602,-5.9064,-5.8748,-5.8415,-5.8384,-5.8321,-5.8321,-5.8449,-5.8451,-5.8688,-5.8829,-5.9218,-5.909,-5.8556,-5.8369,-5.8024,-5.7664,-5.7478,-5.7463,-5.7495,-5.759,-5.7637,-5.7825,-5.7965,-5.8058,-5.8228,-5.8274,-5.8274,-5.8274,-5.8321,-5.8321,-5.8321,-5.8321,-5.8321,-6.6517,-6.655,-6.6809,-6.7165,-6.7586,-6.7586,-6.7424,-6.71,-6.642,-6.5448,-6.4412,-6.4121,-6.4024,-6.4121,-6.4218,-6.4542,-6.4833,-6.506,-6.5999,-6.6614,-6.6938,-6.7424,-6.778,-6.8201,-6.8201,-6.8201,-6.8201,-6.8201,-6.8201,-6.805,-6.8101,-6.8101,-6.7899,-6.7848,-6.7899,-6.8101,-6.8101,-6.7921,-6.768,-6.7068,-6.629,-6.5578,-6.4995,-6.4153,-6.4024,-6.3929,-6.3802,-6.3755,-6.366,-6.3597,-6.3549,-6.3501,-6.3421,-6.3517,-6.3421,-6.3228,-6.3325,-6.3196,-6.3002,-6.2856,-6.2759,-6.2562,-6.2495,-6.2396,-6.2396,-6.2396,-6.2396,-6.2396,-6.2396,-6.2396,-6.2396,-6.2365,-6.2288,-6.2098,-6.1909,-6.1719,-6.1593,-6.134,-6.1182,-6.0929,-6.0645,-6.036,-5.9728,-5.9096,-5.8685,-5.8415,-5.8352,-5.8306,-5.8481,-5.8813,-5.9097,-5.9443,-5.9833,-5.9892,-5.9388,-5.8868,-5.8301,-5.788,-5.7507,-5.7351,-5.7306,-5.7227,-5.7322,-5.7543,-5.7778,-5.7918,-5.8058,-5.8228,-5.8274,-5.8274,-5.8321,-5.8321,-5.8321,-5.8321,-5.8321,-6.5772,-6.5724,-6.5401,-6.5853,-6.6809,-6.6873,-6.7003,-6.7003,-6.6161,-6.5157,-6.4024,-6.4024,-6.4024,-6.4024,-6.4024,-6.425,-6.4509,-6.4833,-6.5546,-6.629,-6.6971,-6.7327,-6.791,-6.8201,-6.8201,-6.8201,-6.8201,-6.8201,-6.805,-6.8151,-6.8101,-6.7949,-6.7746,-6.7746,-6.7899,-6.8,-6.8,-6.7737,-6.7397,-6.6691,-6.5949,-6.5433,-6.4578,-6.3933,-6.3707,-6.366,-6.3613,-6.3629,-6.3613,-6.3485,-6.3388,-6.334,-6.3244,-6.3131,-6.3131,-6.3083,-6.3083,-6.3131,-6.2954,-6.2856,-6.2661,-6.2495,-6.2446,-6.2396,-6.2396,-6.2396,-6.2396,-6.2396,-6.2396,-6.2396,-6.2396,-6.2365,-6.2365,-6.2207,-6.2207,-6.2081,-6.2112,-6.2035,-6.1909,-6.1719,-6.1371,-6.0897,-6.036,-5.9633,-5.8843,-5.8496,-5.8352,-5.8352,-5.8464,-5.8923,-5.957,-5.9996,-6.0403,-6.0369,-6.024,-5.9624,-5.9027,-5.821,-5.7772,-5.7239,-5.7115,-5.7067,-5.7084,-5.7353,-5.7543,-5.7731,-5.7965,-5.8136,-5.8228,-5.8274,-5.8321,-5.8321,-5.8321,-5.8321,-5.8321,-6.5012,-6.4867,-6.379,-6.4384,-6.5853,-6.608,-6.6468,-6.6822,-6.5724,-6.4722,-6.4043,-6.3947,-6.3914,-6.3882,-6.3802,-6.4173,-6.4802,-6.5433,-6.6226,-6.6906,-6.7359,-6.7974,-6.8136,-6.8201,-6.8201,-6.8201,-6.8201,-6.8101,-6.7899,-6.805,-6.8,-6.7949,-6.7797,-6.7797,-6.8101,-6.7899,-6.7797,-6.7746,-6.7478,-6.6625,-6.5714,-6.5297,-6.4591,-6.3854,-6.3533,-6.3517,-6.3708,-6.4028,-6.3947,-6.3626,-6.3753,-6.3623,-6.327,-6.313,-6.292,-6.2689,-6.2969,-6.2888,-6.2513,-6.2661,-6.2612,-6.2446,-6.2396,-6.2396,-6.2396,-6.2396,-6.2396,-6.2396,-6.2396,-6.2396,-6.2396,-6.2396,-6.2396,-6.2396,-6.2396,-6.2396,-6.2396,-6.2396,-6.2225,-6.213,-6.1751,-6.1308,-6.0834,-6.0202,-5.9159,-5.8622,-5.8369,-5.8384,-5.8464,-5.9128,-5.9839,-6.0375,-6.0784,-6.1225,-6.1064,-6.0369,-5.9707,-5.8808,-5.8038,-5.7487,-5.7112,-5.7019,-5.7115,-5.7163,-5.7448,-5.7778,-5.7918,-5.8136,-5.8228,-5.8321,-5.8321,-5.8321,-5.8321,-5.8321,-5.8321,-6.3565,-6.3241,-6.2822,-6.3062,-6.3687,-6.4183,-6.4994,-6.5886,-6.5504,-6.4857,-6.4158,-6.377,-6.3336,-6.3179,-6.3437,-6.3854,-6.4513,-6.5093,-6.5902,-6.7165,-6.7521,-6.7813,-6.8039,-6.8201,-6.8201,-6.8201,-6.8201,-6.8151,-6.8101,-6.8,-6.805,-6.8,-6.7797,-6.7746,-6.7644,-6.7542,-6.7542,-6.7523,-6.7311,-6.6748,-6.55,-6.5244,-6.481,-6.3915,-6.3851,-6.3913,-6.4165,-6.4498,-6.4384,-6.3998,-6.4125,-6.3835,-6.3576,-6.3503,-6.2897,-6.2825,-6.3073,-6.2594,-6.2414,-6.2464,-6.2495,-6.2446,-6.2396,-6.2396,-6.2396,-6.2396,-6.2396,-6.2396,-6.2396,-6.2396,-6.2396,-6.2396,-6.2396,-6.2396,-6.2396,-6.2396,-6.2396,-6.2396,-6.2302,-6.2319,-6.2098,-6.1687,-6.1245,-6.0423,-5.9444,-5.8812,-5.8527,-5.8306,-5.8384,-5.9317,-6.0202,-6.0676,-6.1133,-6.1765,-6.1842,-6.0952,-6.0129,-5.9229,-5.8394,-5.7687,-5.7391,-5.7129,-5.7115,-5.718,-5.7495,-5.7825,-5.7996,-5.8136,-5.8228,-5.8321,-5.8321,-5.8321,-5.8321,-5.8321,-5.8321,-6.2727,-6.2383,-6.2184,-6.2135,-6.2197,-6.2838,-6.3792,-6.4721,-6.5006,-6.4799,-6.4157,-6.3481,-6.3173,-6.3164,-6.3267,-6.3638,-6.4325,-6.5171,-6.5674,-6.6949,-6.7439,-6.7845,-6.8104,-6.8201,-6.8201,-6.8201,-6.8101,-6.8,-6.7848,-6.7746,-6.7644,-6.7644,-6.7593,-6.7336,-6.7181,-6.7213,-6.7265,-6.7265,-6.7034,-6.6516,-6.574,-6.5326,-6.5039,-6.448,-6.432,-6.4398,-6.471,-6.4913,-6.4957,-6.4583,-6.4405,-6.4247,-6.4184,-6.3836,-6.3268,-6.3268,-6.2857,-6.2509,-6.2446,-6.2396,-6.2446,-6.2396,-6.2396,-6.2396,-6.2396,-6.2396,-6.2396,-6.2396,-6.2396,-6.2396,-6.2396,-6.2396,-6.2396,-6.2396,-6.2396,-6.2396,-6.2396,-6.2396,-6.2396,-6.2365,-6.2333,-6.1972,-6.1529,-6.0581,-5.9633,-5.9159,-5.8717,-5.8527,-5.8401,-5.9254,-6.0139,-6.055,-6.1039,-6.1589,-6.1712,-6.1213,-6.0389,-5.9599,-5.8749,-5.7921,-5.7504,-5.7258,-5.7227,-5.7275,-5.7637,-5.7871,-5.8043,-5.8182,-5.8274,-5.8321,-5.8321,-5.8321,-5.8321,-5.8321,-5.8321,-6.2383,-6.2284,-6.1784,-6.1613,-6.1633,-6.216,-6.2852,-6.3533,-6.4177,-6.4429,-6.4334,-6.3136,-6.3079,-6.3936,-6.3609,-6.3817,-6.4488,-6.5581,-6.6185,-6.6708,-6.7461,-6.7921,-6.8169,-6.8201,-6.8201,-6.8101,-6.8,-6.7797,-6.7491,-6.7491,-6.7368,-6.7109,-6.7161,-6.7005,-6.6953,-6.6953,-6.7057,-6.6953,-6.6785,-6.6321,-6.5687,-6.5572,-6.5223,-6.4843,-6.4697,-6.4792,-6.5057,-6.5342,-6.5247,-6.5132,-6.5132,-6.5006,-6.4816,-6.4532,-6.4058,-6.3457,-6.273,-6.2491,-6.2396,-6.2396,-6.2396,-6.2396,-6.2396,-6.2396,-6.2396,-6.2396,-6.2396,-6.2396,-6.2396,-6.2396,-6.2396,-6.2396,-6.2396,-6.2396,-6.2396,-6.2396,-6.2396,-6.2396,-6.2396,-6.2396,-6.2396,-6.2161,-6.1687,-6.0866,-6.0139,-5.9886,-5.9475,-5.9064,-5.897,-5.897,-5.9728,-6.0139,-6.0691,-6.132,-6.1218,-6.0832,-6.0103,-5.9109,-5.8785,-5.8097,-5.7727,-5.7401,-5.7448,-5.7543,-5.7778,-5.7965,-5.8136,-5.8228,-5.8274,-5.8321,-5.8321,-5.8321,-5.8321,-5.8321,-5.8321,-6.1582,-6.1257,-6.1103,-6.1052,-6.1114,-6.1702,-6.2602,-6.3599,-6.392,-6.42,-6.4538,-6.3742,-6.341,-6.3242,-6.3423,-6.3954,-6.4622,-6.5396,-6.6294,-6.6953,-6.7362,-6.7816,-6.805,-6.8151,-6.8201,-6.8101,-6.7949,-6.7695,-6.7644,-6.7523,-6.7109,-6.6796,-6.6901,-6.6849,-6.6901,-6.6953,-6.6849,-6.6828,-6.667,-6.6343,-6.5879,-6.5721,-6.55,-6.5405,-6.5258,-6.5416,-6.5859,-6.6048,-6.6017,-6.6048,-6.5669,-6.5543,-6.6048,-6.469,-6.3489,-6.2857,-6.2459,-6.2396,-6.2396,-6.2396,-6.2378,-6.236,-6.241,-6.2396,-6.2396,-6.2428,-6.2428,-6.2396,-6.2396,-6.2396,-6.2396,-6.2396,-6.2396,-6.2396,-6.2396,-6.2396,-6.2396,-6.2396,-6.2396,-6.2396,-6.2396,-6.2302,-6.1877,-6.1371,-6.0771,-6.0581,-6.0234,-5.976,-5.9475,-5.9475,-5.9649,-6.0043,-6.0342,-6.0952,-6.0635,-6.0188,-5.9443,-5.8718,-5.8439,-5.8066,-5.7538,-5.7322,-5.759,-5.7778,-5.7918,-5.8104,-5.8274,-5.8321,-5.8321,-5.8321,-5.8321,-5.8321,-5.8321,-5.8321,-5.8321,-6.1103,-6.0794,-6.0794,-6.0794,-6.0855,-6.1225,-6.1989,-6.2879,-6.3241,-6.3873,-6.4607,-6.3757,-6.3502,-6.3765,-6.3787,-6.4102,-6.4808,-6.5405,-6.6017,-6.6365,-6.6974,-6.7388,-6.7695,-6.7797,-6.7848,-6.7797,-6.7695,-6.7388,-6.7388,-6.7213,-6.6849,-6.6638,-6.6796,-6.6901,-6.6953,-6.6849,-6.6775,-6.6744,-6.6733,-6.6615,-6.6373,-6.6162,-6.6194,-6.6058,-6.6006,-6.6238,-6.6523,-6.6533,-6.6565,-6.6459,-6.5923,-6.5639,-6.569,-6.409,-6.3204,-6.2601,-6.2257,-6.1976,-6.182,-6.2007,-6.2089,-6.2222,-6.2374,-6.2506,-6.2481,-6.2468,-6.2441,-6.2396,-6.2396,-6.2396,-6.2396,-6.2396,-6.2396,-6.2396,-6.2396,-6.2396,-6.2396,-6.2396,-6.2396,-6.2396,-6.2396,-6.2396,-6.2161,-6.1687,-6.1308,-6.0975,-6.0548,-6.0107,-5.9902,-5.9918,-6.0107,-6.042,-6.0449,-6.0635,-6.0094,-5.9586,-5.9029,-5.8541,-5.831,-5.7907,-5.7349,-5.7322,-5.759,-5.7825,-5.8104,-5.8228,-5.8274,-5.8274,-5.8321,-5.8321,-5.8321,-5.8321,-5.8321,-5.8321,-5.8321,-6.0794,-6.0794,-6.0794,-6.0794,-6.0794,-6.0855,-6.1225,-6.184,-6.2487,-6.3441,-6.421,-6.3533,-6.3749,-6.418,-6.4166,-6.4351,-6.4854,-6.5305,-6.5598,-6.5754,-6.6289,-6.6764,-6.7161,-6.7161,-6.7388,-6.7439,-6.7317,-6.7005,-6.6849,-6.6691,-6.648,-6.6533,-6.648,-6.6586,-6.6744,-6.6638,-6.6533,-6.667,-6.6849,-6.6962,-6.6994,-6.6942,-6.6901,-6.6785,-6.6575,-6.648,-6.648,-6.6459,-6.6406,-6.6246,-6.5938,-6.5442,-6.4466,-6.3516,-6.2955,-6.2553,-6.2134,-6.1763,-6.1577,-6.1825,-6.202,-6.2186,-6.2343,-6.255,-6.2549,-6.2462,-6.241,-6.2396,-6.2396,-6.2396,-6.2396,-6.2396,-6.2396,-6.2396,-6.2396,-6.2396,-6.2396,-6.2396,-6.2396,-6.2396,-6.2396,-6.2396,-6.2252,-6.186,-6.1635,-6.132,-6.1001,-6.0512,-6.0532,-6.0565,-6.042,-6.0603,-6.0397,-6.0139,-5.9643,-5.9166,-5.8783,-5.8424,-5.804,-5.7718,-5.7239,-5.7353,-5.759,-5.7825,-5.8058,-5.8197,-5.8274,-5.8274,-5.8274,-5.8321,-5.8321,-5.8321,-5.8321,-5.8321,-5.8321,-6.0794,-6.0794,-6.0794,-6.0794,-6.0794,-6.0794,-6.1163,-6.1809,-6.1963,-6.2548,-6.3318,-6.3964,-6.4149,-6.3995,-6.4395,-6.4641,-6.482,-6.5077,-6.5351,-6.5538,-6.5862,-6.6268,-6.6691,-6.6691,-6.6921,-6.7161,-6.7005,-6.6533,-6.6374,-6.6161,-6.5915,-6.5915,-6.5969,-6.613,-6.6396,-6.6289,-6.6289,-6.648,-6.6638,-6.6691,-6.648,-6.6427,-6.6406,-6.6321,-6.6161,-6.6054,-6.5969,-6.5915,-6.5947,-6.5808,-6.5623,-6.4925,-6.3981,-6.3195,-6.2526,-6.2148,-6.1866,-6.162,-6.1629,-6.1936,-6.2219,-6.2388,-6.2601,-6.2655,-6.26,-6.2499,-6.241,-6.241,-6.2491,-6.2441,-6.2459,-6.2459,-6.2459,-6.2459,-6.2396,-6.2396,-6.2396,-6.2396,-6.2396,-6.2347,-6.2347,-6.2266,-6.2153,-6.204,-6.1896,-6.1734,-6.1502,-6.1346,-6.1469,-6.1442,-6.0617,-6.0563,-6.0045,-5.9692,-5.921,-5.8764,-5.8449,-5.7845,-5.7369,-5.7188,-5.7067,-5.7211,-5.7401,-5.7731,-5.7996,-5.7918,-5.8011,-5.8228,-5.8274,-5.8182,-5.8274,-5.8197,-5.8274,-5.8321,-5.8321,-6.0794,-6.0794,-6.0794,-6.0794,-6.0794,-6.0794,-6.1009,-6.1379,-6.1686,-6.184,-6.2117,-6.3256,-6.3749,-6.3502,-6.4118,-6.4457,-6.4518,-6.4795,-6.5022,-6.5297,-6.546,-6.57,-6.5947,-6.6108,-6.6343,-6.6554,-6.6427,-6.6108,-6.5947,-6.5893,-6.5754,-6.57,-6.57,-6.5808,-6.5991,-6.5991,-6.6023,-6.6161,-6.6214,-6.6054,-6.5924,-6.5947,-6.6108,-6.6054,-6.5862,-6.57,-6.57,-6.57,-6.5538,-6.5142,-6.4604,-6.4138,-6.3312,-6.2598,-6.2001,-6.1649,-6.1473,-6.1521,-6.1703,-6.2038,-6.2488,-6.2549,-6.2737,-6.2792,-6.2778,-6.2619,-6.2301,-6.2353,-6.2962,-6.3076,-6.2789,-6.2714,-6.2915,-6.3046,-6.2667,-6.2396,-6.2396,-6.2396,-6.2116,-6.1714,-6.1664,-6.143,-6.1246,-6.1093,-6.1,-6.1031,-6.099,-6.1195,-6.1531,-6.1866,-6.1102,-6.0578,-6.0185,-5.9607,-5.9179,-5.8672,-5.8134,-5.7487,-5.6823,-5.6761,-5.6779,-5.6971,-5.7211,-5.7306,-5.7353,-5.7353,-5.7495,-5.7778,-5.7871,-5.7825,-5.7965,-5.8104,-5.815,-5.8182,-5.8182,-6.0701,-6.0794,-6.0794,-6.0794,-6.0794,-6.0794,-6.0794,-6.0917,-6.1379,-6.1348,-6.1071,-6.2086,-6.2517,-6.2918,-6.3502,-6.3718,-6.4057,-6.4641,-6.4881,-6.4943,-6.4998,-6.5242,-6.5406,-6.546,-6.57,-6.5915,-6.5862,-6.5754,-6.5677,-6.5538,-6.5483,-6.5592,-6.5646,-6.57,-6.5808,-6.5754,-6.5623,-6.5623,-6.5569,-6.546,-6.5538,-6.5754,-6.5862,-6.583,-6.5723,-6.5592,-6.5592,-6.5429,-6.5211,-6.4813,-6.407,-6.364,-6.3082,-6.2461,-6.1911,-6.1558,-6.1503,-6.1447,-6.1541,-6.2048,-6.2262,-6.2438,-6.2747,-6.288,-6.287,-6.2726,-6.238,-6.2487,-6.3105,-6.3225,-6.2944,-6.2817,-6.3021,-6.2953,-6.2512,-6.2148,-6.2116,-6.2116,-6.1613,-6.1124,-6.0866,-6.0628,-6.042,-6.0211,-6.0158,-6.0241,-6.0346,-6.0534,-6.0742,-6.1052,-6.0907,-6.0701,-6.0526,-5.9939,-5.924,-5.8646,-5.8139,-5.7303,-5.6733,-5.6562,-5.647,-5.6585,-5.6634,-5.6554,-5.6603,-5.6796,-5.6892,-5.7163,-5.7258,-5.7353,-5.7448,-5.7559,-5.7684,-5.7684,-5.7871,-6.0301,-6.0794,-6.0794,-6.0794,-6.0794,-6.0794,-6.0794,-6.0824,-6.0917,-6.0886,-6.0917,-6.1009,-6.144,-6.2086,-6.3318,-6.3779,-6.381,-6.4487,-6.4826,-6.4888,-6.4888,-6.4998,-6.5053,-6.5163,-6.5187,-6.5406,-6.5538,-6.5538,-6.5406,-6.5187,-6.5108,-6.5108,-6.5108,-6.5163,-6.5163,-6.5108,-6.5163,-6.5163,-6.5163,-6.5108,-6.5132,-6.5242,-6.5406,-6.5351,-6.5187,-6.5108,-6.4998,-6.4802,-6.4802,-6.466,-6.4315,-6.3802,-6.3218,-6.26,-6.2134,-6.1845,-6.1762,-6.1852,-6.2032,-6.245,-6.266,-6.2807,-6.3006,-6.3006,-6.3003,-6.3003,-6.2682,-6.2339,-6.272,-6.2702,-6.2483,-6.231,-6.2343,-6.1784,-6.1288,-6.1257,-6.1206,-6.1021,-6.0628,-6.0368,-6.0158,-5.9948,-5.9789,-5.9629,-5.9606,-5.966,-5.9766,-5.9925,-6.0377,-6.0534,-6.0586,-6.0586,-6.0586,-6.0001,-5.9122,-5.8787,-5.8196,-5.7331,-5.6701,-5.653,-5.6359,-5.6127,-5.6096,-5.6096,-5.6213,-5.6409,-5.6506,-5.6537,-5.67,-5.6827,-5.6844,-5.694,-5.7036,-5.718,-5.7401]}]]